GFSSW_850_dewp_000.txt.gz
Dewpoint
-2 -2 -3 -3 -2 -2 -4 -4 -4 -4 -3 -1 -3 -8 -6 -6 -6 -7 -7 -8 -10 -10 -12 -12 -12 -12 -12 -13 -14 -14 -15 -13 -12 -13 -13 -13 -13 -4 -1 -2 1 2 4 7 12
-2 -2 -2 -2 -2 -3 -4 -4 -4 -4 -2 -1 -2 -8 -6 -6 -5 -5 -6 -7 -8 -8 -11 -8 -9 -11 -12 -11 -13 -15 -13 -10 -9 -10 -13 -13 -11 -7 -5 -2 1 4 5 8 10
-1 -1 -2 -2 -2 -3 -4 -4 -3 -2 -2 -2 -3 -8 -7 -7 -6 -4 -6 -6 -7 -8 -9 -7 -7 -10 -10 -10 -8 -9 -9 -10 -7 -6 -7 -12 -10 -5 -7 -7 -3 1 3 4 4
-1 -2 -2 -2 -3 -3 -3 -2 -2 -2 -3 -5 -5 -2 -2 -3 -5 -4 -5 -5 -6 -7 -9 -7 -7 -7 -8 -7 -6 -6 -4 -4 -4 -5 -7 -8 -6 -7 -6 -5 -1 1 2 2 1
-1 -2 -3 -3 -3 -2 -2 -2 -2 -3 -5 -6 -6 -6 -4 -4 -3 -4 -4 -4 -6 -7 -7 -6 -7 -6 -6 -6 -5 -5 -4 -2 -3 -4 -5 -5 -5 -5 -5 -3 -2 -1 -1 -2 -3
-1 -2 -3 -2 -1 -1 -1 -0 -1 -1 -3 -4 -5 -5 -3 -2 -3 -2 -3 -3 -3 -5 -5 -5 -5 -4 -3 -3 -4 -2 -1 -1 -2 -3 -3 -3 -4 -4 -4 -3 -3 -3 -3 -4 -4
-0 -1 -2 -1 -0 0 0 -0 -1 -1 -2 -2 -3 -3 -3 -3 -3 -2 -2 -2 -2 -4 -4 -4 -4 -4 -4 -1 -1 -2 -3 -2 -3 -3 -3 -4 -4 -4 -5 -3 -3 -3 -4 -4 -4
-1 -1 -1 -1 0 2 1 -0 -1 -2 -2 -3 -3 -3 -3 -4 -2 -2 -2 -2 -3 -3 -5 -6 -4 -2 -0 -0 -2 -3 -4 -6 -5 -5 -3 -5 -10 -7 -5 -4 -4 -4 -4 -4 -4
-1 -1 -1 -0 1 1 0 -1 -2 -2 -3 -4 -3 -2 -3 -3 -3 -2 -3 -3 -3 -3 -4 -6 -5 -3 -3 -3 -5 -6 -7 -6 -7 -6 -6 -6 -7 -11 -6 -5 -6 -7 -5 -4 -4
-1 -1 -0 0 0 -1 -2 -2 -2 -3 -2 -3 -4 -3 -3 -3 -3 -3 -2 -4 -3 -3 -3 -4 -5 -7 -7 -8 -5 -4 -5 -5 -4 -8 -7 -7 -7 -11 -11 -10 -7 -7 -7 -6 -4
-2 -1 -0 -0 -0 -0 -1 -2 -3 -3 -2 -2 -2 -2 -4 -5 -4 -3 -3 -3 -3 -2 -2 -3 -5 -2 -4 -4 -4 -4 -4 -5 -8 -7 -5 -6 -6 -8 -9 -9 -8 -6 -6 -6 -5
-2 -2 -1 -1 -1 -1 -1 -2 -3 -2 -2 -3 -4 -4 -4 -6 -4 -4 -3 -2 -3 -4 -3 -3 -2 -4 -4 -5 -4 -4 -3 -4 -6 -6 -5 -5 -5 -8 -9 -9 -7 -6 -6 -5 -5
-7 -3 -2 -2 -2 -2 -1 -4 -4 -3 -4 -2 -3 -3 -4 -5 -4 -4 -4 -2 -4 -4 -4 -2 -3 -5 -4 -4 -4 -4 -3 -4 -3 -4 -6 -5 -8 -8 -9 -7 -6 -6 -5 -5 -5
-6 -7 -3 -3 -0 -2 -2 -0 1 1 -3 -2 -3 -3 -5 -4 -5 -4 -5 -3 -4 -4 -4 -4 -3 -4 -4 -4 -4 -2 -5 -4 -3 -2 -4 -5 -4 -6 -7 -7 -8 -6 -6 -6 -6
-4 -6 -6 -1 0 0 -1 -1 2 4 6 -0 -3 -4 -4 -4 -3 -3 -5 -4 -3 -4 -3 -2 -3 -4 -3 -3 -4 -3 -4 -3 -3 -2 -2 -3 -2 -5 -5 -7 -7 -7 -6 -5 -5
-3 -3 -7 -5 0 -0 -1 -1 2 7 4 -0 -4 -3 -3 -3 -3 -3 -4 -4 -6 -5 -6 -5 -4 -4 -4 -5 -5 -5 -3 -2 -2 -2 2 -2 -2 -4 -5 -5 -6 -7 -6 -5 -5
-2 -3 -1 -4 -6 -2 -1 -1 6 5 0 -1 -2 -2 -2 -2 -2 -3 -3 -2 -3 -3 -2 -5 -4 -4 -4 -3 -4 -2 -1 4 3 3 2 -2 -1 -2 -5 -6 -5 -5 -5 -5 -4
-2 -2 -2 1 -0 -2 -0 7 3 2 1 -3 -2 -2 -0 -1 -2 -3 -3 -2 -2 -2 -2 0 -1 -5 -3 -2 -0 -2 -1 3 8 4 2 -2 0 -4 -6 -6 -5 -5 -5 -4 -4
-1 2 -1 -1 2 2 5 6 4 1 -2 -2 -1 -0 0 -1 -1 -2 -1 -1 -2 -2 1 2 1 -2 -3 -2 -2 -0 2 -2 1 1 3 0 -2 -4 -5 -5 -5 -5 -4 -3 -3
1 2 -1 -0 1 3 7 1 -0 -2 -2 -1 -0 0 0 -0 -1 -1 -1 -2 -2 -3 -2 1 4 -0 -2 -2 -3 -1 -3 3 2 9 7 0 0 -1 -3 -3 -4 -3 -3 -3 -2
3 3 -0 1 -2 2 6 2 -1 -2 -2 -1 0 0 0 0 0 0 1 -2 -2 -2 -2 -0 2 2 1 1 2 2 2 -1 -0 2 7 7 2 -3 -2 -3 -2 -3 -3 -2 -2
1 2 -0 1 3 3 3 -1 -2 -1 -1 -0 -0 0 1 1 1 1 1 0 -2 -2 1 1 3 5 3 -0 -2 -0 2 1 5 5 4 5 5 -2 -2 -3 -3 -2 -2 -2 -2
2 2 -0 -0 8 6 2 1 1 -0 0 -0 1 1 1 2 4 1 1 1 -1 -1 2 2 4 6 3 -0 -1 1 -0 0 2 4 6 8 5 -3 -3 -3 -2 -2 -2 -2 -2
2 8 2 2 4 3 3 4 4 3 2 2 1 2 2 3 2 3 2 1 2 1 1 1 4 5 6 3 2 4 2 2 3 7 6 6 4 2 -0 -1 -2 -2 -2 -1 -2
-2 4 1 7 5 4 4 3 4 4 3 1 3 3 3 5 3 3 2 1 1 2 3 3 6 3 3 2 2 3 3 2 3 4 6 5 3 1 -0 -1 -1 -2 -2 -2 -2
3 4 1 3 2 1 2 3 3 2 2 2 3 3 2 4 3 4 2 3 3 2 3 2 5 4 5 3 3 4 3 3 2 2 2 3 4 0 -1 -2 -2 -2 -1 -2 -0
-0 -1 -0 2 3 2 2 2 1 2 2 2 2 3 5 3 2 2 2 2 2 3 4 4 5 7 7 3 4 7 5 3 2 1 2 4 2 -1 -2 -2 -2 -2 -1 1 1

GFSSW_850_dewp_003.txt.gz
Dewpoint
-3 -3 -2 -3 -3 -4 -4 -5 -5 -4 -2 -3 -8 -6 -6 -5 -5 -7 -7 -9 -8 -12 -13 -9 -10 -13 -15 -16 -17 -16 -15 -14 -15 -14 -15 -15 -15 -10 -8 -9 -8 -5 -3 6 9
-2 -2 -2 -2 -2 -4 -4 -5 -5 -3 -2 -4 -8 -6 -6 -5 -4 -6 -7 -8 -8 -12 -6 -11 -12 -14 -15 -16 -15 -15 -14 -12 -13 -15 -15 -16 -15 -12 -10 -8 -5 -2 2 6 8
-1 -2 -2 -2 -4 -5 -5 -5 -3 -2 -2 -4 -9 -6 -7 -5 -3 -5 -7 -8 -8 -9 -5 -8 -10 -13 -13 -12 -11 -11 -12 -14 -12 -10 -12 -13 -14 -11 -11 -10 -9 -5 -0 4 6
-2 -2 -2 -3 -4 -4 -3 -2 -2 -3 -3 -5 -9 -7 -3 -3 -4 -4 -5 -5 -7 -9 -6 -9 -9 -10 -10 -10 -10 -9 -10 -9 -8 -8 -9 -9 -8 -9 -9 -9 -6 -5 -2 2 3
-2 -2 -3 -3 -3 -2 -2 -2 -4 -6 -6 -6 -5 -4 -2 -3 -3 -3 -3 -4 -5 -6 -8 -9 -9 -8 -8 -8 -8 -6 -7 -5 -6 -6 -5 -5 -6 -6 -7 -7 -5 -2 -0 0 1
-2 -2 -3 -2 -2 -2 -2 -3 -3 -4 -5 -5 -5 -3 -2 -4 -2 -2 -2 -3 -4 -5 -5 -6 -6 -5 -5 -6 -5 -5 -5 -4 -4 -5 -6 -5 -8 -7 -8 -5 -4 -3 -3 -3 -3
-1 -2 -2 -1 -1 -0 -0 -1 -1 -2 -3 -4 -4 -3 -3 -3 -3 -3 -2 -2 -3 -4 -5 -6 -5 -4 -4 -2 -2 -4 -3 -5 -5 -7 -6 -6 -9 -6 -9 -6 -6 -4 -4 -4 -4
-1 -1 -1 0 0 0 -0 -1 -2 -2 -3 -3 -4 -1 -3 -2 -3 -3 -3 -3 -3 -3 -4 -5 -4 -4 -2 -3 -3 -5 -5 -10 -10 -8 -7 -9 -11 -12 -10 -8 -7 -7 -6 -5 -4
-1 -1 -0 1 0 -0 -1 -2 -2 -2 -3 -3 -1 -2 -3 -3 -3 -3 -3 -3 -3 -3 -3 -4 -7 -6 -3 -4 -4 -9 -8 -8 -8 -11 -9 -10 -9 -13 -12 -10 -8 -9 -10 -7 -5
-1 -1 -1 0 -1 -1 -2 -2 -3 -3 -4 -4 -3 -3 -4 -3 -3 -3 -2 -2 -3 -3 -3 -5 -6 -6 -9 -7 -6 -6 -5 -6 -6 -10 -9 -7 -7 -9 -10 -11 -11 -11 -9 -9 -9
-2 -1 -0 -1 -2 -3 -3 -2 -1 -3 -2 -3 -3 -5 -5 -4 -4 -4 -3 -3 -4 -4 -5 -6 -4 -4 -5 -5 -5 -5 -4 -4 -6 -7 -5 -5 -5 -8 -10 -11 -11 -10 -8 -8 -8
-2 -1 -1 -1 -0 -0 -1 2 -2 1 -3 -4 -4 -5 -5 -5 -5 -6 -5 -4 -5 -6 -7 -3 -2 -5 -6 -5 -5 -5 -4 -4 -5 -6 -4 -4 -6 -9 -10 -9 -9 -8 -7 -6 -6
-5 -2 -1 -1 -2 -2 2 -6 -5 -3 -3 -4 -3 -5 -4 -4 -6 -5 -5 -5 -7 -7 -8 -5 -3 -5 -6 -6 -4 -5 -3 -3 -3 -4 -5 -5 -6 -8 -8 -8 -8 -7 -6 -6 -6
-6 -5 -3 -2 -1 -3 -1 -4 -3 -2 1 -4 -4 -4 -5 -5 -5 -5 -5 -4 -5 -5 -7 -5 -5 -5 -5 -5 -4 -3 -4 -3 -2 -1 -2 -5 -4 -7 -8 -8 -8 -7 -6 -5 -5
-4 -8 -3 -2 3 2 -0 -0 1 3 10 -3 -4 -4 -5 -5 -5 -4 -5 -4 -4 -5 -5 -2 -6 -6 -5 -4 -4 -2 -3 -2 -1 -1 -1 -3 -3 -6 -7 -7 -8 -7 -6 -5 -5
-3 -3 -8 -2 0 -0 -1 -2 3 8 6 -1 -4 -4 -4 -4 -4 -5 -5 -5 -6 -7 -7 -7 -7 -5 -5 -4 -4 -4 -1 -2 -1 -1 3 -0 -3 -5 -6 -7 -7 -7 -6 -5 -4
-3 -3 -2 -7 3 -0 -0 3 7 8 -0 -1 -2 -4 -3 -3 -3 -5 -4 -2 -2 -1 -2 -5 -5 -5 -4 -2 -2 -2 -0 4 4 3 3 -2 -1 -3 -6 -7 -7 -6 -6 -5 -4
-2 -1 -2 -1 -5 -3 -1 3 8 2 0 -3 -3 -3 -1 -2 -2 -4 -3 -2 -2 -1 -0 -0 1 -4 -3 -2 1 0 0 5 8 4 3 -2 -1 -3 -7 -7 -7 -6 -5 -4 -3
-1 3 0 1 -1 -2 4 7 5 0 -2 -2 -3 -1 -0 -2 -2 -2 -2 -1 -2 -1 2 2 1 -2 -3 -2 -1 1 3 -0 3 3 5 1 -3 -5 -6 -6 -5 -5 -4 -3 -3
6 5 1 -3 1 1 5 1 -0 -2 -2 -3 -0 -2 -0 -1 -2 -1 -1 -2 -1 -1 -1 2 4 -0 -1 -1 -2 0 -1 4 4 10 7 2 1 -0 -3 -3 -5 -4 -3 -3 -2
6 4 -0 -2 -0 2 5 2 -2 -2 -2 -1 -1 -1 -1 -1 -0 -0 0 -1 -2 -1 -1 1 3 3 1 1 2 2 3 1 1 3 8 7 3 -2 -1 -1 -2 -3 -3 -2 -2
4 3 -0 -0 4 2 3 -1 -2 -1 -1 -1 -1 -0 1 1 2 1 1 1 -1 -1 2 2 3 6 4 -0 -2 -1 1 2 5 5 5 7 6 -1 -2 -2 -3 -2 -2 -2 -2
2 2 1 2 9 6 1 1 1 -1 0 -0 1 1 1 2 4 2 2 1 0 -0 2 1 4 6 2 1 -0 1 0 0 1 4 7 9 6 -3 -3 -2 -2 -3 -3 -2 -2
3 10 4 4 4 2 3 3 3 2 1 1 1 2 2 3 2 3 2 1 2 1 2 1 3 5 6 4 2 4 2 1 3 8 7 7 5 1 -0 -1 -2 -2 -2 -2 -2
1 3 1 7 5 3 3 2 3 4 2 2 2 2 2 5 4 2 2 1 1 1 2 3 6 4 3 2 1 2 2 1 2 3 6 4 3 1 -1 -2 -2 -2 -2 -2 -1
4 4 3 3 2 2 2 2 2 1 1 2 2 2 2 3 3 4 2 2 3 1 3 2 6 5 6 3 2 4 2 1 1 1 1 1 2 -2 -2 -2 -2 -1 -1 0 0
-0 -1 6 3 2 2 2 1 0 1 2 1 1 2 5 3 2 2 2 2 2 3 5 5 6 7 6 3 5 7 5 3 2 -0 0 3 1 -2 -2 -2 -1 0 1 1 1

GFSSW_850_dewp_009.txt.gz
Dewpoint
-4 -3 -3 -3 -4 -5 -6 -6 -4 -3 -8 -9 -9 -5 -4 -3 -4 -8 -9 -10 -16 -11 -7 -5 -9 -13 -13 -13 -16 -16 -12 -11 -13 -14 -14 -17 -14 -11 -12 -11 -10 2 7 0 3
-2 -2 -2 -3 -3 -5 -6 -6 -4 -4 -9 -10 -7 -5 -4 -3 -5 -10 -11 -12 -14 -9 -7 -7 -7 -9 -12 -13 -11 -11 -12 -13 -11 -12 -13 -12 -14 -13 -13 -13 -7 1 9 8 6
-1 -2 -2 -2 -4 -5 -6 -5 -3 -5 -10 -9 -6 -6 -4 -2 -1 -6 -13 -14 -11 -8 -8 -8 -8 -8 -12 -11 -10 -10 -9 -9 -8 -9 -10 -9 -7 -10 -11 -10 -6 -3 3 5 7
-1 -2 -2 -3 -4 -5 -5 -4 -3 -4 -9 -9 -7 -5 -2 -0 -2 -5 -7 -6 -5 -6 -6 -8 -7 -7 -9 -9 -9 -8 -8 -7 -8 -7 -7 -6 -7 -7 -9 -8 -7 -6 -1 1 1
-2 -2 -4 -4 -4 -4 -3 -3 -4 -5 -9 -9 -7 -5 -1 -2 -3 -4 -3 -3 -4 -4 -5 -5 -6 -5 -6 -6 -6 -7 -7 -7 -6 -6 -7 -7 -8 -7 -8 -9 -7 -7 -3 -1 0
-2 -3 -3 -3 -2 -2 -3 -4 -4 -5 -5 -6 -4 -2 -1 -2 -3 -3 -3 -3 -4 -5 -7 -6 -5 -4 -4 -5 -5 -6 -6 -6 -6 -6 -7 -6 -6 -7 -10 -9 -6 -7 -5 -3 -1
-1 -2 -2 -2 -2 -4 -6 -6 -6 -6 -5 -3 -3 -0 -0 -4 -3 -4 -3 -4 -4 -5 -5 -6 -5 -4 -4 -3 -5 -5 -5 -4 -6 -7 -10 -10 -9 -10 -10 -8 -7 -7 -6 -4 -3
-1 -1 -1 -1 -2 -3 -4 -4 -4 -4 -4 -3 -3 1 -3 -3 -3 -4 -4 -4 -4 -4 -6 -7 -5 -4 -4 -4 -4 -3 -4 -4 -5 -8 -8 -10 -8 -10 -10 -7 -6 -7 -7 -6 -5
0 -0 -0 -0 -1 -1 -2 -2 -3 -4 -4 -4 -1 1 -3 -3 -4 -4 -3 -4 -3 -4 -3 -3 -5 -5 -4 -1 -1 -4 -3 -4 -4 -9 -9 -9 -6 -7 -7 -8 -8 -8 -8 -8 -6
0 1 -0 -1 -1 -2 -2 -3 -4 -4 -3 -2 -3 0 -4 -4 -5 -4 -5 -4 -3 -3 -4 -3 -4 -3 -4 -4 -2 -3 -3 -4 -3 -6 -6 -5 -4 -6 -6 -7 -8 -8 -7 -7 -7
-0 0 -1 -1 -2 -2 -2 1 -0 -1 -1 -5 -5 -5 -5 -5 -5 -6 -8 -5 -4 -3 -3 -8 -2 -3 -5 -5 -6 -5 -5 -4 -3 -4 -3 -3 -4 -5 -7 -9 -8 -8 -6 -6 -6
-1 -1 -1 -2 -2 -2 -1 5 5 4 1 -5 -5 -6 -6 -5 -5 -7 -10 -6 -6 -4 -8 -4 -2 -6 -7 -6 -5 -5 -2 -0 -3 -3 -2 -2 -3 -5 -8 -8 -7 -6 -6 -6 -6
-2 -1 -1 -1 -1 -0 1 -2 1 -2 6 -5 -5 -5 -6 -5 -6 -6 -8 -6 -5 -5 -6 -4 -4 -7 -6 -4 -3 -4 -1 -1 -0 -1 -2 -2 -2 -6 -7 -8 -6 -6 -6 -6 -6
-4 -2 -1 -1 -2 2 5 -6 -6 -2 8 -3 -3 -4 -5 -6 -5 -5 -6 -6 -3 -5 -7 -4 -6 -7 -5 -3 -4 -2 -2 -1 0 1 2 -2 2 -5 -6 -6 -5 -6 -5 -5 -4
-7 -4 -3 -2 4 2 4 -4 -3 -2 9 -2 -5 -5 -5 -6 -6 -5 -5 -6 -5 -6 -6 -2 -7 -7 -3 -4 -5 -2 -2 -1 1 2 1 0 -1 -5 -6 -5 -5 -4 -4 -4 -4
-4 -5 -3 -3 -0 3 1 -4 -2 10 9 -1 -5 -4 -3 -5 -5 -6 -4 -4 -5 -4 -6 -7 -7 -6 -5 -4 -3 -2 1 1 3 2 5 2 1 -0 -3 -5 -5 -4 -4 -4 -4
-3 -2 -5 -1 3 -1 -3 -1 9 8 -0 -1 -1 -4 -4 -2 -3 -5 -3 -0 1 3 3 -0 -4 -5 -3 -1 -1 -0 3 6 6 6 6 0 1 0 -2 -5 -4 -4 -5 -5 -4
1 -1 -1 -6 -1 -1 -1 8 9 3 1 -3 -3 -3 -1 -3 -2 -3 -1 1 -0 1 2 4 4 -1 -2 -1 0 1 1 6 7 7 6 2 3 -0 -3 -5 -4 -5 -5 -3 -3
5 3 -2 -2 -3 -1 7 8 6 2 -1 -0 -2 -1 0 -1 -3 -1 0 1 0 0 4 5 4 0 -2 -2 -1 1 5 1 4 4 6 5 2 -3 -2 -1 -2 -1 -2 -1 -1
6 7 -2 -1 -4 5 9 3 1 -2 -2 -1 2 -0 2 0 2 1 1 0 1 0 -0 3 5 3 2 0 -0 0 0 5 5 7 8 5 4 3 2 0 -0 -0 -1 -1 -1
7 7 -2 1 1 7 7 2 -1 -3 -2 1 2 2 2 3 3 2 2 2 0 1 0 3 4 5 3 3 4 2 3 3 4 5 9 9 6 1 1 0 1 -1 -1 -1 -1
6 7 -2 6 8 7 5 0 -2 -1 -1 -0 1 3 3 3 4 4 4 3 0 0 4 2 4 5 4 1 1 -1 3 3 7 8 6 6 7 0 1 0 -1 -1 -1 -1 -1
5 5 3 5 7 5 1 2 2 2 1 2 2 2 1 3 4 4 3 2 0 2 3 2 4 5 4 2 2 3 2 3 3 2 5 6 5 -0 -1 -1 -0 0 0 1 1
4 3 4 5 4 3 3 3 3 2 1 1 1 1 3 4 3 3 3 3 1 2 2 1 4 4 6 5 4 5 3 3 4 3 5 5 3 0 -1 -0 0 1 1 1 2
3 4 3 6 5 4 4 2 4 5 2 1 2 2 3 4 4 4 4 4 3 2 2 3 4 5 4 4 4 3 3 3 4 3 5 3 3 1 -1 1 2 2 2 2 3
5 6 3 2 1 3 2 3 3 1 1 3 2 3 3 4 5 6 5 5 4 3 4 4 4 5 6 5 5 5 3 3 2 2 3 2 2 -1 -1 3 3 3 3 3 3
3 3 6 4 3 3 4 2 3 1 2 1 2 3 2 4 4 4 3 3 3 4 4 4 4 4 7 4 4 4 2 2 2 0 1 3 2 3 3 3 3 3 3 3 3

GFSSW_850_dewp_012.txt.gz
Dewpoint
-5 -5 -5 -5 -5 -5 -5 -6 -4 -4 -9 -9 -6 -4 -3 -5 -11 -14 -18 -15 -12 -9 -8 -8 -8 -7 -9 -12 -14 -16 -12 -10 -11 -12 -12 -14 -11 -12 -11 -10 -5 2 -1 1 6
-3 -3 -4 -4 -4 -5 -6 -6 -4 -7 -9 -8 -5 -4 -4 -4 -8 -14 -16 -10 -9 -7 -7 -6 -8 -8 -12 -11 -12 -13 -11 -10 -11 -13 -11 -10 -9 -13 -13 -6 6 5 1 1 4
-2 -2 -3 -3 -4 -5 -6 -5 -3 -8 -8 -6 -6 -4 -2 -1 -7 -10 -13 -6 -5 -5 -5 -6 -6 -8 -11 -10 -11 -10 -7 -9 -8 -9 -8 -7 -7 -9 -10 -7 6 6 3 5 2
-2 -2 -2 -3 -5 -6 -5 -4 -4 -8 -8 -6 -6 -3 -1 -3 -3 -5 -3 -3 -4 -5 -6 -6 -6 -7 -8 -7 -9 -7 -7 -8 -7 -8 -8 -7 -8 -7 -8 -8 -6 -0 0 3 2
-2 -3 -4 -5 -5 -5 -4 -3 -4 -8 -9 -8 -6 -2 -1 -3 -3 -4 -4 -3 -4 -7 -7 -6 -5 -4 -4 -5 -6 -7 -7 -7 -7 -6 -7 -7 -8 -8 -8 -8 -7 -2 2 3 3
-3 -4 -4 -4 -3 -3 -2 -3 -4 -7 -9 -6 -2 -0 -0 -3 -3 -3 -3 -5 -5 -6 -6 -6 -5 -5 -4 -5 -5 -5 -6 -6 -6 -6 -6 -6 -7 -7 -8 -9 -7 -4 -0 1 1
-2 -2 -2 -2 -3 -4 -5 -6 -6 -5 -3 -2 -2 -1 -3 -3 -3 -3 -3 -4 -5 -4 -7 -9 -5 -5 -5 -2 -4 -5 -5 -5 -5 -6 -8 -10 -10 -10 -10 -10 -7 -6 -7 -6 -4
-1 -1 -1 -2 -3 -5 -6 -6 -5 -5 -4 -3 -2 -1 -4 -3 -4 -4 -3 -3 -4 -3 -3 -4 -5 -5 -5 -4 -2 -3 -5 -3 -5 -5 -9 -10 -7 -10 -8 -9 -7 -7 -7 -6 -5
0 0 -0 -1 -2 -3 -3 -5 -6 -5 -4 -4 -1 1 -3 -3 -5 -4 -4 -6 -5 -4 -4 -3 -3 -5 -5 -3 -4 -5 -3 -4 -4 -7 -7 -9 -6 -7 -6 -7 -7 -7 -7 -6 -6
1 0 -1 -1 -2 -2 -3 -3 -4 -4 -3 -2 -1 -1 -3 -4 -5 -6 -7 -8 -5 -3 -3 -4 -3 -4 -5 -5 -3 -3 -4 -5 -3 -5 -3 -4 -4 -5 -5 -7 -7 -7 -7 -7 -6
0 -1 -1 -2 -2 -3 2 4 2 -1 -3 -5 -5 -5 -6 -5 -5 -7 -9 -5 -5 -5 -2 -6 -4 -4 -6 -6 -5 -5 -4 -2 -3 -4 -2 -2 -2 -3 -6 -7 -7 -6 -6 -5 -5
-0 -1 -2 -2 -3 -2 2 4 4 3 -1 -5 -6 -7 -6 -5 -5 -5 -10 -6 -5 -6 -8 -2 -3 -6 -7 -5 -5 -4 -1 -1 -2 -3 -1 -1 -1 -5 -8 -8 -6 -6 -5 -5 -4
-2 -1 -2 -2 -2 -2 1 -2 2 -1 5 -5 -5 -5 -6 -6 -6 -5 -7 -7 -5 -5 -5 -2 -5 -7 -6 -4 -3 -4 -1 -1 -0 -1 -1 -1 -1 -6 -7 -5 -5 -6 -6 -6 -6
-3 -2 -2 -1 -2 1 4 -4 -2 -1 4 -3 -3 -5 -5 -6 -5 -5 -6 -5 -5 -5 -7 -4 -7 -8 -4 -4 -4 -2 -4 -1 -0 1 2 -1 3 -2 -6 -6 -6 -5 -6 -5 -5
-5 -3 -2 -2 4 0 3 -4 -3 -1 6 -2 -5 -6 -5 -6 -6 -6 -5 -6 -7 -7 -6 -2 -7 -7 -4 -5 -4 -3 -2 0 1 2 1 1 1 -3 -6 -5 -5 -4 -4 -4 -4
-8 -4 -3 -3 2 2 2 -5 -2 8 7 -2 -5 -4 -4 -4 -5 -5 -2 -4 -3 -1 -3 -6 -7 -6 -6 -4 -2 -2 1 1 2 2 5 1 1 -1 -1 -3 -2 -3 -4 -4 -4
-2 -4 -3 -3 -2 -1 -2 -2 8 6 1 -1 -2 -4 -2 -3 -3 -3 -0 0 1 1 2 1 -3 -4 -3 -1 -1 -0 3 5 5 6 5 2 2 -1 -3 -3 -4 -4 -4 -4 -4
-1 -1 -5 -1 1 -2 -2 6 6 4 1 -3 -3 -3 -1 -3 -3 -1 -1 1 0 1 3 5 5 1 -2 -1 0 1 3 5 7 7 6 2 3 1 -2 -1 -2 -3 -2 -1 -1
1 -3 -1 -4 -1 -1 5 5 4 2 -1 -1 -1 -0 0 -1 -3 -0 1 1 0 1 3 5 4 1 -0 -1 -1 1 4 1 3 4 5 4 2 -2 -3 -1 -1 -0 -1 -1 -0
5 1 -1 -4 -2 5 4 3 -0 -2 -1 1 2 1 2 2 2 1 1 2 1 1 1 3 6 3 2 1 -0 0 0 4 4 5 8 6 4 3 1 2 0 0 0 -0 -0
7 3 -2 1 3 4 3 1 -2 -2 -1 1 3 4 3 3 3 3 3 2 1 1 2 2 4 4 2 3 3 2 4 3 4 5 7 8 6 1 1 1 1 0 -1 -0 0
6 2 1 6 5 6 2 -1 -1 -1 -0 1 2 3 3 3 4 4 4 3 0 1 4 2 3 4 4 1 1 1 3 4 5 6 5 6 5 -0 0 -1 -0 0 1 1 1
5 4 4 5 4 2 1 2 2 1 2 2 2 2 1 3 4 3 3 1 -0 2 2 1 3 4 2 0 2 3 2 2 3 2 5 4 4 -1 -1 -1 1 2 2 2 2
2 4 4 4 6 2 2 3 3 2 1 1 1 2 2 4 3 2 4 2 2 2 2 1 3 3 4 2 4 5 4 2 3 3 5 5 4 1 0 2 3 3 3 3 3
3 2 4 4 4 3 3 3 4 4 1 1 2 2 3 3 3 5 5 4 3 2 2 2 4 4 4 4 4 4 4 4 4 3 5 4 3 1 3 3 3 3 3 3 3
4 5 3 2 3 1 2 2 3 1 2 2 4 3 3 4 4 5 4 4 4 3 3 3 4 5 5 4 5 6 4 4 3 3 3 3 2 3 3 3 3 3 3 3 3
3 5 3 4 3 2 2 2 2 2 2 1 2 2 1 4 4 4 4 3 3 4 3 3 3 3 5 4 5 5 3 2 1 1 1 3 2 3 3 4 4 3 2 3 3

GFSSW_850_dewp_015.txt.gz
Dewpoint
-4 -5 -5 -6 -6 -6 -6 -6 -4 -4 -9 -8 -5 -3 -4 -11 -13 -16 -14 -12 -10 -5 -5 -6 -8 -11 -12 -11 -14 -15 -11 -9 -11 -12 -12 -12 -11 -11 -10 -2 -5 3 1 3 11
-2 -3 -4 -5 -5 -6 -6 -6 -4 -7 -9 -5 -4 -4 -3 -8 -13 -14 -10 -4 -3 -4 -6 -6 -10 -11 -11 -11 -11 -13 -9 -10 -11 -13 -11 -9 -10 -12 -6 3 5 2 0 5 11
-2 -2 -3 -4 -5 -6 -6 -4 -5 -9 -7 -5 -6 -3 -1 -4 -10 -4 -3 -4 -6 -6 -6 -5 -9 -9 -9 -10 -10 -8 -7 -10 -8 -10 -9 -7 -7 -9 -8 -1 3 -2 1 6 10
-2 -2 -3 -4 -5 -6 -5 -4 -7 -9 -7 -6 -6 -2 -2 -4 -9 -4 -4 -4 -6 -7 -6 -5 -6 -5 -6 -6 -8 -8 -7 -8 -8 -8 -7 -7 -8 -7 -8 -9 -8 -4 -3 1 6
-2 -3 -4 -5 -6 -5 -4 -4 -7 -8 -8 -8 -3 -2 -3 -3 -3 -3 -4 -5 -5 -8 -7 -5 -5 -5 -4 -5 -6 -7 -7 -7 -6 -7 -7 -7 -8 -8 -8 -9 -6 -0 2 1 -0
-3 -4 -5 -5 -5 -4 -4 -4 -6 -8 -9 -3 -1 -2 -3 -4 -3 -3 -3 -5 -5 -10 -9 -5 -5 -4 -4 -3 -5 -5 -5 -6 -6 -6 -6 -6 -7 -7 -8 -9 -7 -1 2 1 1
-3 -3 -3 -3 -3 -3 -3 -4 -6 -6 -2 -2 -0 -3 -3 -3 -4 -3 -4 -4 -6 -4 -4 -5 -5 -5 -4 -3 -4 -5 -4 -5 -5 -5 -7 -8 -10 -9 -10 -9 -7 -3 1 2 1
-2 -2 -3 -4 -5 -5 -5 -5 -4 -3 -3 -3 -1 -2 -3 -4 -4 -4 -4 -4 -5 -4 -4 -3 -3 -5 -4 -4 -3 -5 -6 -4 -6 -6 -8 -10 -7 -10 -9 -7 -8 -4 0 2 1
-0 -1 -2 -3 -3 -3 -4 -5 -5 -4 -4 -2 -2 -1 -3 -4 -5 -6 -7 -9 -6 -4 -4 -4 -4 -5 -6 -7 -5 -5 -4 -5 -5 -5 -4 -8 -6 -8 -6 -5 -7 -8 -3 -2 -2
0 -1 -1 -2 -2 -3 -3 -4 -5 -4 -2 -2 -2 -3 -4 -5 -5 -6 -8 -6 -4 -5 -4 -3 -4 -5 -5 -5 -3 -3 -4 -4 -4 -4 -3 -2 -4 -5 -4 -7 -7 -7 -7 -6 -5
-0 -1 -1 -2 -3 1 1 -2 -1 -3 -5 -5 -5 -5 -6 -5 -5 -6 -12 -8 -6 -7 -3 -5 -4 -5 -6 -6 -5 -6 -3 -1 -3 -4 -1 -1 -1 -2 -5 -7 -7 -7 -7 -7 -6
-1 -1 -2 -2 -2 1 1 3 3 1 -3 -5 -6 -6 -6 -6 -6 -6 -9 -6 -6 -5 -7 -3 -3 -6 -6 -5 -5 -3 -2 -2 -2 -3 -1 -1 -1 -7 -8 -7 -5 -4 -4 -5 -5
-1 -2 -2 -3 -2 -4 -3 1 -0 -0 0 -5 -5 -5 -5 -6 -6 -5 -6 -5 -5 -6 -4 -2 -5 -7 -5 -4 -4 -4 -2 -2 -1 -1 -2 -1 -1 -5 -6 -5 -5 -5 -4 -4 -5
-2 -2 -3 -3 -3 -2 -4 -3 -2 0 0 -2 -4 -5 -5 -6 -6 -5 -5 -5 -6 -6 -6 -4 -8 -7 -4 -4 -4 -2 -4 -2 -1 1 2 -1 2 -3 -6 -6 -5 -5 -5 -5 -5
-4 -3 -2 -3 -3 -0 -3 -3 -3 1 4 -2 -5 -5 -5 -6 -6 -4 -3 -5 -5 -3 -5 -3 -8 -5 -4 -4 -4 -1 -2 -0 1 2 1 0 -0 -1 -3 -5 -3 -4 -4 -4 -4
-6 -3 -2 -3 2 0 1 -5 -1 6 5 -3 -5 -4 -4 -4 -4 -3 -2 -3 -2 -1 -2 -2 -6 -6 -5 -4 -2 -2 1 1 1 2 4 1 1 1 -1 -3 -3 -3 -3 -4 -4
-6 -4 -4 -3 0 -1 0 -3 6 5 1 -1 -2 -4 -3 -3 -3 -1 -0 1 1 -2 2 2 -0 -2 -3 -1 -1 0 3 4 3 5 5 2 1 0 -2 -3 -4 -4 -3 -2 -2
-2 -5 -5 -3 -0 -1 -3 5 4 3 1 -2 -3 -3 -2 -3 -2 0 -0 2 0 1 4 5 3 1 -1 -1 0 1 2 4 4 7 6 2 3 1 -3 -1 -2 -1 -1 -1 -1
-2 -1 -3 -3 -1 -2 5 4 3 3 -1 -1 -1 0 1 1 -1 -0 1 2 1 1 3 5 3 1 1 1 -1 2 4 1 3 4 5 4 2 -0 -2 0 0 -0 -0 0 -0
1 -1 -2 -2 -1 5 3 2 -0 -2 -1 1 1 1 2 3 2 1 2 1 1 2 1 3 6 2 2 1 0 0 0 4 4 4 7 6 5 4 1 2 -0 0 0 0 0
7 -2 2 1 4 2 2 1 -2 -2 -1 1 2 3 3 3 3 3 3 1 1 1 1 2 4 3 1 2 3 3 4 3 4 5 7 7 6 2 1 1 0 0 1 1 1
6 0 5 6 4 3 1 -1 -1 1 0 1 2 2 3 3 4 4 4 2 0 1 3 2 3 4 3 1 1 1 3 3 6 6 4 5 5 -1 -1 0 1 2 2 2 2
3 4 4 5 3 2 1 2 2 1 2 2 2 1 2 3 4 3 3 1 0 1 2 1 3 3 0 -0 -0 3 3 3 3 2 5 5 3 -1 -1 1 2 3 3 2 2
2 3 3 4 3 1 2 2 2 2 1 1 1 2 2 3 2 3 4 3 2 2 2 1 3 2 4 0 3 4 4 3 3 3 4 4 3 1 1 3 3 3 3 2 2
2 2 4 3 3 3 3 3 3 3 1 1 3 3 2 3 3 5 4 4 2 2 2 2 4 3 3 3 3 4 4 4 5 4 5 4 4 2 2 3 3 3 3 3 3
3 3 2 3 4 1 2 2 4 2 2 2 4 3 3 4 3 5 4 4 4 3 3 3 3 4 4 4 4 5 4 4 4 4 4 3 2 1 3 3 3 3 3 3 2
4 4 1 3 2 1 2 1 2 2 2 1 2 2 1 3 3 3 3 3 3 3 3 3 2 4 3 4 3 2 2 3 2 1 1 3 1 3 4 3 3 3 3 3 3

GFSSW_850_dewp_018.txt.gz
Dewpoint
-5 -5 -6 -6 -6 -7 -7 -7 -5 -4 -8 -7 -4 -4 -5 -9 -13 -8 -3 -4 -5 -5 -6 -7 -9 -11 -11 -14 -16 -14 -11 -10 -12 -12 -11 -11 -11 -11 -3 2 -2 4 3 4 7
-3 -4 -5 -5 -6 -6 -7 -6 -4 -6 -8 -4 -5 -3 -5 -11 -4 -3 -4 -6 -6 -6 -6 -11 -11 -11 -11 -11 -10 -11 -10 -10 -12 -13 -10 -9 -11 -12 -5 1 1 1 0 4 9
-2 -3 -4 -5 -5 -6 -6 -5 -4 -9 -5 -5 -5 -2 -2 -7 -4 -3 -4 -5 -7 -6 -6 -9 -8 -9 -8 -9 -9 -8 -8 -9 -8 -10 -9 -7 -7 -9 -2 1 -0 -4 -0 6 10
-2 -2 -3 -4 -5 -6 -6 -4 -8 -8 -6 -7 -4 -2 -4 -6 -4 -3 -4 -5 -7 -7 -6 -7 -7 -6 -5 -6 -8 -7 -8 -9 -8 -9 -7 -7 -8 -7 -7 -9 -9 -7 -3 2 7
-2 -2 -3 -4 -5 -6 -4 -5 -9 -7 -8 -5 -2 -3 -4 -3 -3 -3 -4 -5 -8 -7 -6 -7 -6 -4 -4 -5 -6 -6 -7 -7 -6 -7 -7 -7 -7 -8 -8 -8 -8 -5 1 1 2
-3 -4 -5 -5 -5 -4 -4 -8 -8 -8 -4 -1 -1 -4 -4 -3 -4 -3 -4 -5 -6 -4 -5 -5 -5 -5 -3 -4 -5 -5 -5 -5 -6 -6 -6 -6 -7 -7 -9 -9 -8 -3 -1 1 2
-3 -4 -4 -4 -3 -3 -5 -7 -7 -4 -2 -1 -3 -4 -3 -3 -4 -4 -4 -4 -5 -4 -4 -3 -4 -5 -4 -4 -3 -4 -4 -7 -6 -6 -8 -8 -8 -9 -9 -9 -8 -7 1 1 -0
-2 -2 -2 -3 -3 -4 -5 -6 -4 -3 -2 -1 -1 -4 -3 -4 -4 -4 -8 -6 -7 -4 -4 -4 -4 -5 -7 -4 -6 -6 -6 -5 -7 -5 -7 -9 -5 -9 -10 -8 -6 -7 -0 3 1
-0 -2 -3 -4 -4 -4 -4 -4 -4 -3 -2 -2 -2 -3 -3 -5 -6 -6 -8 -7 -5 -4 -4 -4 -5 -6 -7 -8 -6 -6 -5 -5 -5 -5 -3 -4 -3 -6 -5 -5 -4 -6 -7 2 3
0 -1 -2 -2 -2 -3 -4 -4 -4 -3 -3 -3 -3 -4 -5 -5 -5 -6 -11 -5 -5 -5 -5 -4 -6 -7 -6 -5 -5 -4 -5 -4 -4 -4 -3 -2 -3 -3 -5 -5 -6 -7 -7 -5 3
-0 -1 -2 -2 2 -1 -4 -4 -3 -5 -6 -6 -5 -6 -6 -6 -6 -7 -12 -6 -7 -9 -4 -4 -4 -5 -6 -6 -6 -6 -3 -2 -3 -4 -1 -1 -1 -4 -7 -6 -6 -7 -7 -6 -5
-1 -1 -2 -1 1 0 -1 -1 -1 -1 -4 -6 -6 -6 -6 -6 -5 -5 -6 -7 -7 -6 -6 -3 -4 -6 -5 -5 -5 -4 -3 -3 -3 -3 -1 -1 -1 -6 -6 -5 -4 -4 -4 -4 -5
-1 -2 -3 -1 -2 -3 0 -1 -1 -0 -4 -6 -5 -5 -5 -5 -5 -5 -5 -4 -6 -5 -4 -3 -5 -6 -5 -4 -2 -3 -3 -3 -1 -2 -2 -2 -2 -4 -7 -5 -5 -4 -4 -5 -5
-2 -2 -3 -2 -2 -2 -0 -3 -2 0 -0 -2 -5 -5 -5 -6 -6 -3 -4 -5 -6 -6 -6 -4 -8 -5 -4 -4 -3 -1 -5 -3 -1 1 2 -1 1 -2 -3 -5 -4 -5 -5 -4 -4
-2 -2 -3 -4 -3 -3 -3 -4 -4 3 0 -4 -5 -5 -5 -6 -5 -3 -3 -5 -3 -3 -4 -3 -7 -4 -2 -3 -4 -1 -1 0 0 2 1 1 -1 -2 -3 -3 -3 -4 -4 -4 -4
-3 -3 -2 -3 -3 0 -5 -5 -1 2 3 -2 -4 -4 -4 -4 -3 -2 -2 -3 -2 -1 -1 -1 -5 -5 -4 -4 -2 -1 1 -0 1 2 4 2 1 1 -1 -2 -3 -3 -2 -2 -2
-5 -3 -3 -3 1 1 -2 -3 4 4 0 -1 -2 -3 -3 -2 -1 -1 -0 1 2 -3 3 1 0 -0 -2 0 -0 0 1 2 3 5 5 2 1 1 -1 -3 -2 -1 -1 -1 -1
-4 -4 -3 -4 -3 -2 -4 4 3 3 1 -2 -3 -2 -2 -3 -1 0 0 2 1 1 4 4 1 1 -1 -1 1 1 2 3 2 6 5 2 3 1 -1 -1 -1 -0 -0 0 -0
-1 -4 -3 2 -1 -3 4 4 3 2 -1 -1 -1 0 1 1 -0 0 2 2 2 1 3 5 3 1 1 1 -0 1 4 1 3 3 5 4 2 -1 -1 0 -0 0 0 0 0
-1 -3 -2 -1 -1 4 3 2 -0 -1 -1 0 1 1 2 3 2 1 2 1 1 2 1 3 5 2 1 0 -0 1 0 4 4 4 6 5 4 3 2 1 0 1 2 1 1
4 -0 5 2 5 1 2 0 -2 -1 -0 1 2 3 3 3 2 3 3 1 0 1 1 1 3 2 -0 1 2 3 3 3 3 4 5 6 5 1 1 1 1 2 2 2 1
3 0 5 6 2 2 1 -1 -0 1 1 1 2 2 3 3 4 4 4 2 0 2 3 2 2 3 2 0 1 2 3 2 3 4 4 4 4 -1 -0 1 2 2 2 2 2
2 4 4 4 2 1 1 2 2 1 2 1 2 2 2 3 4 3 3 2 1 1 2 1 2 2 -2 1 -0 3 3 3 2 2 5 5 3 -2 -1 0 2 3 3 2 1
2 3 3 1 1 1 2 2 3 2 1 1 2 2 2 3 3 3 4 3 3 2 2 1 2 1 2 -1 0 3 3 3 3 5 4 4 2 1 0 1 3 3 2 2 2
-0 3 4 3 3 2 2 2 3 2 1 2 2 2 2 3 3 5 4 3 2 3 2 2 4 3 3 2 3 4 4 4 4 4 5 3 3 2 1 2 3 2 2 2 3
1 3 2 4 3 1 1 2 4 2 2 3 3 2 2 3 2 4 4 3 3 3 3 2 3 4 4 3 3 4 4 4 4 4 4 4 4 1 3 3 2 1 2 3 3
3 2 2 3 1 1 1 1 2 1 2 2 2 2 1 2 3 3 3 3 2 2 2 3 2 2 2 3 2 1 -0 3 3 2 1 2 -0 2 3 2 1 2 2 3 2

GFSSW_850_dewp_021.txt.gz
Dewpoint
-4 -5 -6 -6 -6 -7 -7 -8 -6 -5 -8 -5 -4 -5 -10 -11 -4 -4 -4 -6 -6 -6 -8 -8 -11 -10 -13 -15 -15 -14 -11 -11 -12 -11 -10 -11 -11 -11 -1 3 -1 3 3 4 9
-2 -4 -5 -6 -6 -7 -8 -7 -5 -7 -7 -4 -4 -4 -9 -4 -3 -3 -4 -6 -6 -6 -10 -11 -11 -11 -11 -10 -10 -11 -9 -9 -12 -13 -9 -8 -11 -11 -4 1 3 2 1 4 7
-2 -3 -4 -5 -6 -7 -7 -6 -5 -9 -5 -5 -4 -2 -7 -4 -4 -3 -5 -7 -7 -7 -9 -9 -11 -10 -9 -9 -8 -8 -7 -9 -9 -11 -8 -7 -7 -9 -3 -3 -3 -5 -2 4 7
-2 -3 -4 -5 -5 -6 -6 -5 -9 -6 -5 -6 -2 -4 -7 -7 -2 -3 -4 -7 -7 -6 -8 -8 -8 -7 -5 -6 -9 -6 -8 -9 -8 -8 -8 -8 -8 -7 -5 -9 -8 -6 -3 2 7
-2 -2 -3 -4 -5 -6 -5 -7 -7 -6 -6 -2 -3 -4 -4 -3 -3 -4 -4 -6 -6 -7 -8 -8 -7 -5 -4 -6 -6 -5 -7 -7 -7 -8 -7 -7 -7 -8 -8 -8 -8 -6 -2 -0 3
-2 -3 -3 -5 -6 -5 -6 -8 -7 -7 -2 -1 -4 -5 -4 -3 -4 -4 -4 -6 -5 -6 -6 -7 -5 -4 -3 -5 -4 -5 -5 -5 -6 -6 -7 -6 -6 -7 -8 -9 -8 -7 -3 -0 -1
-4 -4 -5 -5 -4 -4 -7 -8 -7 -2 -1 -2 -4 -3 -4 -4 -6 -6 -6 -6 -4 -4 -4 -5 -6 -5 -4 -3 -3 -6 -6 -6 -5 -6 -6 -8 -6 -8 -10 -9 -7 -7 -0 1 -0
-3 -3 -3 -3 -3 -4 -7 -7 -3 -2 -1 -1 -4 -4 -4 -5 -6 -8 -9 -8 -4 -4 -4 -5 -5 -8 -7 -4 -7 -6 -6 -5 -7 -5 -4 -6 -3 -7 -5 -6 -8 -6 -6 0 2
-1 -2 -2 -3 -4 -5 -5 -3 -3 -2 -2 -2 -4 -5 -4 -6 -6 -9 -6 -5 -4 -4 -4 -5 -7 -7 -8 -6 -6 -6 -6 -5 -4 -4 -3 -3 -3 -4 -6 -5 -4 -4 -5 -5 3
-1 -1 -2 -2 -4 -4 -4 -3 -3 -2 -3 -4 -4 -6 -6 -6 -6 -9 -5 -6 -6 -5 -7 -6 -9 -5 -5 -6 -5 -3 -4 -3 -2 -4 -2 -1 -2 -4 -6 -6 -6 -7 -7 -7 -6
-1 -1 -1 1 -2 -4 -4 -2 -4 -6 -7 -6 -6 -6 -6 -6 -5 -7 -6 -7 -9 -7 -2 -6 -4 -3 -5 -5 -5 -5 -3 -2 -3 -4 -1 -1 -2 -5 -5 -4 -3 -4 -6 -6 -5
-1 -1 -1 2 -1 -2 -3 -3 -3 -4 -5 -5 -6 -6 -6 -5 -4 -6 -6 -7 -7 -4 -5 -3 -3 -6 -5 -5 -5 -4 -3 -4 -3 -3 -1 -1 -3 -5 -5 -4 -4 -3 -3 -4 -5
-1 -1 0 -2 -0 -1 -3 -3 -2 -2 -5 -5 -5 -5 -5 -5 -3 -3 -5 -5 -6 -3 -3 -1 -5 -5 -5 -3 -1 -2 -3 -2 -2 -2 -1 -2 -2 -3 -6 -5 -5 -5 -4 -4 -4
-2 -2 -1 -1 -3 -1 -2 -2 -1 -1 0 -2 -4 -5 -5 -6 -5 -3 -5 -5 -5 -5 -4 -4 -7 -4 -2 -2 -2 0 -4 -1 0 1 2 -1 0 -1 -3 -4 -3 -3 -5 -5 -4
-2 -2 -3 -2 -3 -1 -2 -4 -4 4 1 -4 -4 -5 -4 -5 -5 -3 -3 -4 -2 -3 -3 -4 -5 -2 -0 -3 -3 0 -0 1 1 2 2 1 -0 -1 -3 -2 -1 -2 -1 -1 -2
-2 -2 -3 -3 -4 -3 -5 -6 2 1 1 -2 -4 -3 -3 -3 -2 -2 -2 -3 -2 -0 -0 -1 -3 -3 -2 -3 -2 -1 1 -0 1 2 4 2 1 2 0 -0 -0 -0 1 -0 -1
-4 -3 -3 -2 -3 -2 -6 -1 4 3 -0 -1 -3 -3 -3 -1 -0 -1 0 2 2 -2 4 1 -0 -0 -2 0 -0 1 1 3 5 6 5 2 1 2 0 -0 -0 1 1 0 0
-4 -3 -3 -3 -1 -1 -5 4 3 2 1 -2 -3 -1 -1 -2 -0 1 1 2 1 1 4 4 1 1 0 0 1 2 2 5 3 6 5 2 3 2 -0 0 0 0 0 0 0
-3 -3 -3 -3 -3 -2 2 5 3 2 -1 -1 -1 0 1 1 0 1 2 2 2 2 3 5 2 1 1 1 -0 2 5 2 4 4 6 3 2 1 0 0 0 1 1 1 1
-2 -3 1 -0 -2 -1 3 2 -0 -0 -1 -1 1 1 2 3 2 2 2 1 1 2 1 3 5 2 1 0 0 1 1 4 5 7 6 3 4 2 2 1 1 2 2 2 1
0 1 3 2 5 1 3 1 -1 0 0 1 2 3 3 3 2 3 3 1 0 2 1 1 4 1 -0 3 3 3 4 3 3 5 8 7 4 1 1 1 1 2 2 2 2
1 5 6 5 1 1 2 -1 0 1 1 2 2 2 3 3 4 4 4 2 1 1 3 2 3 4 1 1 1 2 2 2 4 4 5 6 4 -1 0 1 2 3 3 2 2
3 5 5 3 4 2 2 2 2 1 2 1 2 2 2 3 4 3 3 2 2 2 3 2 3 2 -4 1 -0 3 3 2 2 3 5 6 3 -2 0 1 2 3 2 -0 0
2 5 3 1 0 2 2 2 3 2 1 2 2 2 2 3 4 4 4 3 3 2 1 1 3 0 0 -2 -0 3 3 3 4 6 4 4 2 0 -0 0 2 2 0 2 1
-1 4 3 3 3 2 2 1 3 2 1 2 2 2 2 3 4 5 4 3 2 3 2 2 5 3 3 2 3 3 4 3 4 4 5 3 3 1 0 1 2 1 0 2 2
1 4 3 3 2 2 1 2 3 2 1 3 3 2 2 3 1 4 4 3 3 3 3 2 4 4 5 3 3 4 3 3 4 4 4 4 4 1 1 3 2 2 1 2 3
1 2 2 2 0 2 2 2 2 2 2 2 2 2 1 2 2 2 2 2 2 3 3 3 4 4 4 2 2 3 -0 2 2 2 3 3 -0 1 3 2 1 1 2 2 2

GFSSW_850_dewp_024.txt.gz
Dewpoint
-3 -4 -5 -6 -7 -8 -8 -8 -8 -5 -8 -5 -4 -8 -12 -5 -3 -4 -4 -6 -6 -7 -11 -8 -8 -9 -14 -12 -13 -14 -13 -11 -12 -12 -11 -11 -12 -10 -2 -1 1 2 3 6 10
-2 -3 -5 -6 -7 -7 -7 -8 -6 -6 -6 -4 -4 -8 -5 -3 -4 -4 -5 -7 -6 -8 -9 -8 -9 -12 -11 -10 -10 -13 -13 -12 -13 -12 -13 -12 -13 -10 -6 -6 -3 1 5 8 11
-1 -3 -5 -6 -7 -7 -7 -7 -5 -8 -4 -4 -4 -8 -5 -4 -4 -4 -6 -7 -6 -10 -10 -11 -11 -9 -10 -9 -9 -10 -11 -11 -12 -11 -12 -12 -11 -11 -10 -9 -9 -8 1 8 10
-1 -2 -4 -5 -6 -7 -7 -5 -7 -5 -5 -3 -3 -7 -5 -7 -5 -4 -5 -7 -6 -8 -10 -9 -8 -9 -10 -11 -10 -10 -10 -13 -11 -9 -10 -11 -11 -10 -10 -11 -7 -4 0 6 8
-1 -2 -3 -5 -6 -6 -5 -6 -6 -6 -4 -2 -4 -6 -4 -3 -4 -4 -5 -5 -6 -8 -7 -7 -9 -9 -10 -9 -8 -7 -7 -6 -7 -8 -7 -6 -8 -8 -9 -9 -7 -2 3 5 5
-2 -2 -4 -5 -6 -6 -5 -7 -6 -4 -1 -3 -4 -4 -3 -5 -5 -6 -5 -6 -6 -5 -7 -6 -5 -7 -6 -5 -6 -5 -6 -6 -6 -6 -6 -6 -7 -7 -8 -8 -6 -1 1 4 4
-3 -3 -4 -5 -5 -5 -7 -6 -5 -2 -1 -3 -4 -4 -4 -4 -6 -7 -6 -6 -5 -6 -4 -6 -5 -5 -4 -3 -4 -5 -5 -6 -5 -6 -5 -7 -7 -8 -7 -8 -8 -2 0 2 4
-4 -5 -5 -4 -4 -7 -7 -6 -2 -1 -1 -4 -4 -4 -4 -5 -6 -9 -8 -5 -5 -4 -5 -7 -5 -5 -3 -5 -7 -7 -7 -7 -5 -5 -4 -5 -5 -7 -5 -5 -6 -6 -4 2 4
-3 -3 -3 -3 -5 -6 -6 -3 -2 -2 -2 -3 -4 -3 -5 -6 -6 -9 -7 -5 -4 -4 -5 -7 -6 -5 -6 -7 -7 -9 -10 -8 -6 -5 -5 -5 -6 -5 -6 -5 -4 -4 -4 -4 1
-1 -2 -3 -4 -5 -5 -3 -3 -2 -2 -4 -3 -5 -6 -6 -6 -7 -7 -5 -4 -4 -4 -4 -5 -6 -7 -8 -10 -11 -8 -8 -5 -6 -6 -5 -3 -4 -6 -5 -5 -5 -5 -5 -4 -2
-1 -2 -2 -3 -4 -4 -3 -3 -3 -3 -4 -4 -5 -6 -6 -5 -5 -6 -7 -8 -6 -5 -5 -5 -6 -4 -5 -5 -6 -7 -6 -5 -6 -4 -2 -2 -5 -5 -5 -4 -4 -4 -4 -3 -2
-1 1 2 -3 -4 -3 -2 -0 -4 -4 -5 -5 -6 -5 -4 -4 -6 -5 -6 -6 -5 -5 -4 -6 -3 -5 -6 -6 -5 -4 -4 -4 -4 -3 -1 -2 -4 -5 -5 -4 -4 -4 -3 -3 -3
0 -0 1 1 -0 -1 -3 -3 -6 -5 -5 -4 -5 -5 -5 -4 -2 -3 -4 -5 -6 -5 -5 -5 -5 -5 -5 -2 -2 -2 -2 -1 -1 -2 -2 -2 -2 -4 -5 -4 -4 -3 -3 -3 -2
0 1 -1 -1 -0 -2 -2 -3 -4 -3 -4 -4 -5 -5 -5 -5 -4 -2 -5 -4 -5 -4 -5 -5 -5 -3 -2 -2 -1 -1 -3 0 0 0 -2 -1 -1 -2 -4 -3 -3 -1 -0 0 -1
-2 -2 -1 -2 -1 -0 -2 -3 -1 3 1 -3 -4 -4 -3 -4 -4 -2 -3 -4 -4 -4 -3 -4 -3 -2 -1 -1 -1 1 0 1 1 1 0 -0 -1 -0 -3 -1 -1 -0 1 1 0
-2 -3 -3 -3 -2 -1 -4 -5 1 2 1 -2 -4 -4 -3 -2 -2 -2 -2 -2 -2 -2 -4 -3 -3 -2 -1 -2 -1 -0 0 1 1 2 4 2 1 0 -1 -0 -0 0 1 1 2
-2 -3 -3 -4 -2 -5 -6 -1 1 1 -0 -2 -2 -3 -2 -1 -1 -1 -0 1 0 -0 0 -2 -1 -1 -0 -1 -0 -0 1 2 5 5 3 1 1 3 0 -0 -0 0 1 2 2
-3 -3 -3 -2 -3 -5 -6 3 0 2 0 -2 -2 -2 -1 -1 -0 0 0 1 0 0 0 1 2 0 0 1 2 2 2 5 5 3 2 2 1 2 -0 -1 -0 0 1 1 2
-4 -3 -3 -1 -2 -3 2 5 3 0 -1 -2 -2 -1 1 0 -0 1 2 2 1 1 2 2 1 0 0 -0 0 2 4 2 5 5 6 1 1 1 -0 0 0 0 0 1 2
-1 -2 -2 -3 -3 -3 4 2 1 -1 -1 -2 0 0 1 1 1 1 2 1 1 1 1 3 3 1 -1 0 1 1 1 5 4 10 4 -2 1 -0 2 1 0 0 1 1 2
-2 1 2 -0 -1 3 5 2 -0 0 1 0 1 2 2 2 2 2 2 1 1 1 0 -0 2 1 -1 1 3 2 3 3 3 5 6 5 -2 0 0 0 0 0 2 2 2
0 3 3 5 3 2 2 -0 0 1 2 2 2 2 2 3 3 4 4 2 2 1 1 2 2 0 -2 0 1 1 2 1 4 4 4 4 1 -2 -2 -0 1 1 2 2 2
5 6 6 4 8 6 2 2 2 1 1 1 3 2 2 3 5 3 3 3 2 2 2 2 2 -1 -1 1 1 2 2 1 1 3 4 7 1 -3 -1 0 -1 1 1 0 0
4 9 4 2 3 2 3 3 3 2 2 2 2 2 3 4 3 4 4 3 3 3 1 2 2 -1 -2 -4 -2 -2 -2 -0 1 6 3 2 0 -2 -3 -3 -1 0 1 0 1
1 6 5 8 4 2 2 2 3 3 2 2 2 2 3 5 4 4 4 3 2 2 3 3 3 2 0 -1 -1 0 1 -0 1 2 4 2 -1 -2 -2 -2 -1 1 1 0 1
5 6 4 4 3 2 3 3 2 2 1 2 2 2 1 2 -1 3 2 2 1 3 3 3 4 4 4 1 0 2 0 0 1 1 1 1 2 -2 -2 -1 1 1 1 1 1
1 2 5 3 3 4 4 2 2 2 3 2 2 3 4 2 1 3 3 3 2 2 4 5 5 5 8 2 3 6 1 -0 0 -0 1 2 -1 -2 -1 0 1 1 1 2 2

GFSSW_850_dewp_027.txt.gz
Dewpoint
-2 -3 -4 -6 -6 -7 -8 -8 -8 -7 -6 -7 -5 -9 -11 -4 -4 -4 -4 -5 -5 -9 -12 -6 -5 -7 -11 -12 -13 -14 -12 -10 -11 -11 -13 -13 -13 -13 -8 -7 -4 -3 1 3 8
-1 -2 -4 -6 -6 -7 -7 -7 -8 -5 -8 -4 -5 -11 -4 -4 -4 -5 -7 -6 -7 -8 -6 -7 -8 -12 -12 -12 -14 -13 -13 -13 -14 -15 -14 -15 -15 -12 -7 -8 -6 -3 -1 5 8
-1 -2 -3 -5 -6 -7 -7 -8 -6 -7 -5 -4 -6 -7 -4 -4 -0 -6 -7 -6 -9 -10 -5 -8 -12 -12 -12 -13 -14 -14 -12 -14 -15 -15 -16 -16 -15 -14 -12 -10 -8 -6 -2 4 6
-1 -2 -3 -4 -6 -6 -7 -7 -5 -7 -5 -4 -5 -6 -4 -7 -4 -5 -7 -6 -8 -11 -5 -8 -10 -12 -12 -11 -13 -13 -15 -16 -15 -13 -13 -13 -13 -13 -13 -11 -9 -7 -2 2 4
-1 -2 -3 -4 -6 -7 -7 -5 -7 -5 -4 -2 -7 -6 -5 -1 -6 -5 -6 -5 -5 -5 -7 -9 -11 -12 -13 -14 -14 -13 -13 -14 -13 -11 -10 -9 -11 -12 -12 -11 -10 -6 -2 2 4
-1 -2 -4 -5 -6 -6 -5 -7 -5 -5 -1 -4 -6 -5 -3 -4 -5 -6 -6 -6 -6 -8 -9 -10 -10 -11 -13 -12 -10 -10 -8 -8 -8 -8 -8 -7 -9 -9 -9 -9 -9 -6 -3 -0 1
-2 -3 -4 -5 -6 -6 -6 -6 -6 -1 -2 -4 -5 -6 -1 -5 -6 -7 -7 -6 -5 -5 -8 -7 -8 -10 -9 -6 -8 -8 -7 -7 -7 -6 -6 -7 -9 -10 -9 -9 -8 -6 -5 -2 0
-3 -4 -4 -5 -5 -6 -6 -6 -2 -1 -3 -3 -5 -5 -3 -5 -5 -7 -8 -7 -6 -4 -5 -6 -6 -6 -6 -6 -8 -8 -7 -5 -7 -6 -6 -6 -4 -9 -7 -7 -7 -8 -5 -3 -1
-4 -5 -5 -5 -6 -7 -6 -2 -2 -2 -3 -3 -4 1 -6 -7 -7 -8 -7 -7 -4 -3 -4 -6 -5 -7 -5 -6 -6 -8 -6 -9 -6 -7 -7 -7 -6 -6 -6 -6 -7 -8 -7 -5 -2
-3 -4 -4 -5 -6 -6 -3 -3 -2 -2 -3 -4 -1 -4 -8 -7 -7 -6 -6 -4 -4 -4 -5 -6 -7 -6 -8 -8 -7 -10 -11 -9 -9 -7 -8 -7 -6 -7 -5 -5 -5 -5 -5 -5 -4
-2 -3 -4 -5 -6 -3 -3 -3 -2 -0 -4 -5 -7 -6 -8 -8 -7 -6 -5 -5 -5 -5 -4 -6 -5 -6 -7 -8 -9 -10 -10 -8 -8 -7 -6 -5 -6 -5 -5 -5 -5 -5 -4 -3 -1
-1 -2 -4 -4 -3 -3 -2 2 2 -3 -5 -5 -5 -5 -5 -6 -7 -5 -5 -5 -5 -6 -6 -8 -5 -6 -8 -8 -8 -7 -5 -5 -5 -5 -5 -4 -5 -5 -5 -4 -4 -4 -3 -2 -1
2 2 -2 -3 -3 -2 5 3 -5 -4 -6 -5 -5 -6 -5 -5 -4 -4 -5 -6 -8 -8 -9 -6 -5 -7 -6 -5 -5 -4 -3 -2 -2 -4 -4 -4 -4 -4 -5 -4 -4 -4 -3 -2 -2
1 2 1 -1 0 2 4 -4 -6 -3 -3 -6 -6 -6 -5 -5 -4 -4 -3 -5 -7 -8 -9 -6 -6 -5 -4 -3 -3 -2 -3 -2 -1 -2 -2 -3 -2 -3 -4 -3 -2 -0 0 -0 -1
1 -1 -1 1 2 -0 -0 -4 -6 1 1 -4 -5 -5 -6 -4 -4 -3 -3 -5 -7 -5 -4 -4 -5 -3 -2 -1 -2 -1 -1 -1 -1 -0 -2 -2 -4 -1 -4 -2 -1 -0 0 1 1
-2 -2 -2 -0 2 0 -3 -3 -3 5 2 -3 -5 -4 -3 -3 -3 -3 -4 -3 -3 -6 -6 -4 -4 -3 -2 -2 -2 -2 0 -1 0 0 3 -2 -1 -0 -2 -1 -0 -0 1 1 1
-2 -2 -2 -1 3 -2 -4 1 -0 4 -3 -3 -3 -4 -3 -2 -2 -2 -2 -1 -1 0 -0 -2 -2 -2 -1 -1 -1 -1 0 4 5 4 4 0 -0 2 0 -1 -0 0 1 1 1
-2 -2 -2 -3 -4 -4 -4 0 3 1 -3 -4 -4 -3 -2 -2 -1 -1 -2 -0 -1 -1 -2 -0 3 -1 -2 -1 0 0 1 5 5 4 2 -0 -2 2 -1 -1 -0 -0 0 1 1
-3 -2 -1 -2 -4 -6 1 3 -0 -3 -3 -3 -3 -2 -1 -1 -1 0 1 0 0 0 1 1 1 -1 -1 -1 -0 1 3 0 3 6 5 -2 1 1 -1 -0 -0 -0 -0 1 1
3 2 4 -1 -3 -3 2 2 0 -2 -3 -4 -1 -0 0 -0 0 0 1 0 1 -1 -0 0 3 -0 -2 -1 0 -1 -0 4 4 9 4 -4 -3 -2 2 1 -0 -0 -0 1 1
3 0 3 -4 -3 -1 3 1 -0 -1 -1 -2 -1 -0 0 1 0 1 1 1 -0 -0 -2 -3 -0 0 -3 -1 -2 -0 1 2 1 2 5 4 -1 -2 -2 -2 -1 -1 -1 -0 1
4 2 0 -2 -0 -1 3 -0 -1 -0 1 0 0 0 1 1 2 2 2 2 1 0 -0 -0 -0 1 -4 -2 -1 -1 0 0 4 2 3 5 2 -3 -4 -2 -1 -2 -1 1 1
2 4 2 2 6 3 2 1 0 1 0 1 2 1 1 2 4 2 3 3 1 1 2 0 2 1 -1 1 0 0 -1 -1 -0 2 3 6 2 -4 -3 -1 -1 -1 -1 -0 -0
3 8 4 4 3 0 2 2 2 2 1 1 2 1 2 2 2 4 4 3 3 2 1 2 0 -0 1 -2 -4 -2 -3 -4 -2 4 4 2 -1 -3 -4 -3 -3 -3 -1 -0 -0
3 5 5 6 4 2 1 1 2 2 1 1 1 1 2 4 3 3 2 3 2 2 2 2 3 -0 -0 -3 -4 -3 -2 -2 -1 -1 3 1 -0 -2 -2 -2 -2 -2 -0 -0 -0
2 5 5 5 3 2 3 2 1 1 0 1 1 1 0 3 -1 2 1 -0 0 2 2 1 4 4 3 -1 -4 -2 -3 -2 -2 -1 -1 -1 -1 -2 -2 -3 -2 -1 -1 -0 0
1 4 5 4 3 3 3 2 1 1 3 0 1 0 3 0 1 1 2 1 -0 1 3 3 5 4 7 3 3 7 2 -3 -2 -2 -2 1 -1 -3 -2 -1 0 1 1 2 3

GFSSW_850_dewp_030.txt.gz
Dewpoint
-1 -2 -3 -4 -6 -7 -7 -9 -9 -10 -8 -7 -7 -6 -11 -6 -5 -4 -1 -4 -6 -8 -15 -10 -4 -5 -7 -11 -11 -12 -8 -6 -7 -6 -10 -12 -11 -12 -8 -8 -5 0 0 6 8
-1 -1 -2 -4 -5 -6 -7 -8 -8 -9 -5 -8 -5 -9 -8 -4 -4 1 -5 -6 -7 -12 -10 -4 -6 -7 -10 -11 -13 -13 -10 -12 -14 -14 -14 -15 -15 -11 -7 -8 -5 -0 5 8 7
-1 -1 -2 -3 -5 -6 -7 -8 -8 -7 -7 -5 -5 -9 -4 -4 -2 -4 -7 -7 -11 -9 -5 -6 -10 -11 -11 -13 -14 -13 -11 -14 -15 -14 -16 -15 -15 -12 -11 -9 -6 -4 3 6 7
-1 -1 -2 -3 -5 -6 -7 -8 -8 -6 -5 -5 -5 -6 -4 -5 -2 -6 -6 -7 -10 -8 -5 -9 -12 -11 -12 -12 -13 -13 -16 -17 -15 -14 -15 -16 -16 -14 -13 -10 -9 -5 -2 5 5
-1 -1 -2 -3 -5 -6 -7 -8 -5 -7 -5 -4 -6 -5 -5 -1 -4 -6 -6 -6 -7 -6 -4 -8 -11 -12 -12 -14 -14 -15 -17 -15 -15 -13 -10 -12 -13 -14 -12 -11 -9 -4 -1 2 3
-1 -2 -2 -4 -5 -6 -7 -6 -7 -5 -4 -3 -7 -5 -5 -1 -6 -7 -7 -7 -7 -8 -10 -10 -11 -12 -15 -14 -12 -13 -12 -11 -11 -10 -10 -10 -10 -10 -11 -10 -10 -6 -2 1 3
-2 -2 -3 -4 -5 -7 -6 -7 -5 -4 -2 -4 -7 -6 -1 -2 -7 -8 -8 -7 -6 -6 -7 -8 -10 -12 -11 -8 -10 -10 -8 -8 -8 -8 -7 -9 -8 -10 -9 -9 -8 -7 -6 -1 -0
-2 -3 -3 -5 -6 -6 -7 -6 -5 -1 -3 -4 -8 -7 1 -4 -6 -7 -9 -9 -8 -6 -6 -8 -7 -6 -7 -8 -10 -10 -8 -5 -8 -8 -7 -7 -4 -11 -8 -8 -8 -8 -6 -5 -1
-3 -3 -4 -6 -6 -7 -6 -5 -2 -2 -3 -4 -6 -5 -1 -8 -7 -9 -8 -8 -6 -6 -5 -7 -6 -9 -7 -7 -7 -7 -5 -5 -5 -8 -7 -7 -6 -8 -6 -6 -7 -8 -8 -5 -3
-4 -5 -5 -5 -6 -6 -5 -2 -2 -2 -3 -4 -0 -1 -6 -8 -8 -8 -8 -5 -6 -5 -7 -6 -6 -6 -6 -6 -3 -7 -10 -11 -9 -7 -10 -8 -8 -7 -6 -7 -7 -7 -8 -6 -5
-3 -4 -4 -5 -6 -5 -2 -2 -0 0 -0 -4 -7 -5 -9 -10 -9 -8 -7 -5 -4 -5 -4 -7 -5 -4 -7 -8 -10 -11 -10 -10 -9 -7 -8 -8 -7 -6 -6 -6 -5 -5 -5 -1 2
-2 -3 -5 -6 -5 -3 -1 4 4 0 -3 -5 -6 -6 -7 -6 -8 -7 -5 -5 -6 -4 -6 -8 -5 -6 -9 -9 -10 -9 -7 -6 -6 -7 -7 -5 -6 -6 -5 -4 -4 -3 -1 -0 1
-1 -2 -3 -4 -3 -3 3 6 4 -3 -6 -6 -5 -7 -5 -5 -6 -6 -5 -6 -7 -5 -9 -3 -5 -8 -8 -7 -6 -6 -5 -1 -3 -5 -5 -5 -4 -4 -5 -4 -3 -2 -2 -1 -0
2 -1 -3 -3 -2 2 5 -1 0 -2 -3 -7 -7 -8 -6 -6 -6 -6 -5 -5 -8 -9 -10 -5 -7 -7 -6 -4 -3 -3 -2 -2 -3 -2 -2 -4 -1 -3 -4 -3 -2 -1 -1 -2 -1
2 2 0 0 6 2 5 -3 -6 -1 5 -6 -7 -6 -7 -5 -5 -6 -7 -7 -7 -7 -6 -4 -5 -4 -3 -1 -3 -1 -2 -2 -2 -1 -1 -3 -0 -3 -3 -2 0 0 1 1 1
-0 -0 0 0 4 5 0 -4 -6 6 6 -4 -6 -5 -6 -5 -4 -5 -6 -5 -4 -8 -6 -5 -5 -3 -2 -3 -3 -3 -1 -1 -0 0 5 -0 -2 -0 -2 -2 0 0 1 1 1
-1 -2 4 5 6 -2 -4 -1 1 6 -4 -3 -4 -5 -4 -3 -3 -4 -3 -2 -1 -1 -0 -3 -2 -2 -3 -1 -2 -2 -0 7 8 8 8 1 0 2 0 -1 -0 1 1 1 2
-2 -2 -2 -0 2 -3 -3 3 5 0 -4 -6 -5 -4 -2 -3 -2 -2 -2 -1 -2 -0 -2 -0 3 -1 -3 -1 -0 0 -0 8 7 10 7 -0 -0 3 -0 -0 -0 0 1 1 1
-2 -2 1 -3 -4 -4 5 4 1 -4 -4 -4 -4 -3 -1 -2 -1 -1 0 -0 -1 0 2 0 2 -2 -2 -3 -2 -0 4 -1 1 6 8 0 2 0 -1 -0 -0 -0 0 1 1
1 -1 4 -3 -5 -5 6 4 1 -2 -5 -5 -2 -3 -1 -2 -1 -0 -0 -0 -0 -2 -2 -1 3 -1 -4 -3 0 -1 -3 3 6 9 6 -1 -1 4 1 1 -0 -1 -0 0 0
4 1 4 -4 -4 2 4 3 -0 -3 -3 -3 -3 -2 -1 -1 -1 0 1 -0 -1 -2 -3 -3 0 0 -4 -1 -3 -1 -0 0 -0 2 7 7 1 -3 -2 -1 -1 -1 -1 -1 0
4 3 4 -5 1 -0 4 0 -2 -1 0 -0 -1 -2 -1 -0 0 1 2 3 -0 -1 -0 -2 -0 3 -3 -4 -3 -2 -0 -0 8 4 7 7 4 -4 -4 -3 -2 -1 -1 -0 0
2 6 -1 -3 6 4 2 0 -1 -1 -2 -0 1 0 1 1 3 2 4 2 0 2 3 1 3 6 2 1 -0 -3 -3 -3 -1 4 5 7 3 -5 -3 1 -0 -1 -0 1 1
5 9 2 4 5 1 2 2 2 2 1 0 0 0 1 2 1 3 4 3 2 2 -0 2 0 -0 3 -2 -4 -3 -5 -5 -3 6 5 4 1 -2 -2 -0 -1 -2 -1 -1 -1
5 5 1 6 4 1 -0 -0 2 3 1 0 1 0 1 3 2 3 3 3 2 1 1 2 4 0 -0 -3 -4 -5 -5 -5 -4 -1 2 1 -1 -2 -1 -2 -2 1 1 0 1
6 4 4 3 0 2 2 1 1 -0 1 1 1 0 1 3 1 2 1 1 1 1 1 1 5 5 4 -2 -3 -3 -4 -2 -3 -3 -3 -1 -1 -3 -3 0 1 1 2 1 3
4 3 4 5 4 4 4 1 0 1 3 0 -0 1 5 2 3 2 1 -0 -1 1 2 4 7 7 8 4 4 8 4 -2 -3 -3 -1 2 -1 -3 -0 1 2 2 2 2 2

GFSSW_850_dewp_033.txt.gz
Dewpoint
-2 -2 -2 -3 -4 -6 -7 -9 -10 -11 -13 -10 -7 -8 -7 -10 -7 -5 -4 -2 -4 -7 -11 -13 -8 -10 -6 -6 -7 -7 -9 -8 -8 -6 -8 -10 -12 -10 -7 -2 2 3 8 9 8
-2 -2 -2 -2 -4 -5 -7 -8 -10 -10 -11 -6 -8 -6 -9 -8 -5 -5 1 -1 -7 -11 -13 -12 -10 -8 -5 -8 -8 -11 -9 -11 -13 -12 -13 -14 -13 -10 -8 -4 6 8 9 8 8
-2 -1 -2 -2 -3 -5 -7 -8 -9 -10 -9 -7 -5 -7 -7 -4 -4 -1 -7 -7 -12 -11 -7 -5 -5 -6 -6 -8 -12 -14 -12 -14 -13 -15 -15 -12 -11 -9 -8 -4 5 8 8 7 7
-1 -1 -1 -2 -3 -6 -7 -8 -9 -9 -6 -6 -5 -6 -5 -4 3 -7 -7 -7 -10 -8 -6 -8 -9 -9 -10 -10 -14 -15 -15 -14 -13 -14 -16 -16 -16 -13 -10 -6 -3 6 7 7 7
-1 -1 -2 -2 -4 -6 -7 -8 -9 -6 -7 -5 -5 -5 -4 -2 -1 -6 -7 -6 -6 -8 -6 -6 -6 -11 -9 -12 -15 -15 -14 -15 -14 -10 -11 -14 -15 -12 -10 -6 -4 2 5 6 5
-1 -1 -2 -3 -4 -6 -7 -8 -7 -7 -5 -4 -4 -5 -4 2 -6 -7 -8 -7 -6 -5 -5 -5 -7 -10 -13 -11 -12 -15 -15 -14 -13 -10 -10 -11 -10 -10 -11 -10 -3 -1 4 3 4
-2 -2 -2 -4 -5 -6 -8 -7 -7 -5 -4 -2 -4 -5 -4 -3 -6 -8 -8 -8 -7 -6 -6 -8 -8 -8 -8 -7 -12 -10 -8 -9 -9 -9 -9 -9 -7 -9 -11 -11 -6 -5 1 2 2
-3 -3 -3 -4 -6 -7 -7 -7 -5 -4 -2 -3 -6 -6 -7 -3 -4 -8 -9 -9 -9 -6 -6 -9 -8 -6 -7 -10 -10 -9 -7 -5 -7 -7 -7 -7 -4 -10 -9 -9 -8 -7 -7 -0 2
-3 -3 -4 -6 -7 -6 -6 -6 -4 -2 -2 -4 -6 -6 1 -7 -9 -8 -10 -6 -7 -6 -7 -11 -7 -7 -8 -7 -5 -7 -4 -4 -5 -8 -6 -7 -4 -8 -8 -7 -7 -7 -7 -6 0
-4 -4 -5 -6 -6 -6 -6 -3 -2 -2 -3 -3 -3 3 0 -7 -8 -9 -8 -6 -6 -5 -7 -6 -6 -5 -5 -4 -1 -5 -5 -4 -4 -8 -10 -9 -5 -6 -6 -6 -6 -4 -2 3 3
-4 -5 -6 -5 -6 -6 -3 -1 -1 -1 -0 -3 -4 -2 -9 -11 -10 -8 -7 -5 -4 -5 -3 -6 -3 -2 -7 -8 -10 -9 -7 -6 -6 -7 -8 -7 -5 -5 -5 -4 1 2 3 3 4
-3 -4 -4 -6 -6 -4 -2 2 5 5 -0 -3 -5 -6 -8 -7 -8 -6 -6 -5 -5 -2 -3 -4 -2 -6 -8 -9 -8 -8 -5 -1 -5 -6 -7 -6 -4 -4 -3 -2 -0 1 2 3 4
-1 -4 -5 -5 -5 -2 -1 7 5 2 -2 -6 -6 -8 -6 -5 -5 -6 -5 -5 -4 -3 -2 -2 -5 -9 -7 -3 -2 -1 -0 -1 -2 -4 -4 -4 -3 -2 -3 -2 -1 -0 1 2 3
-0 -3 -5 -4 -2 -3 2 6 3 -3 -1 -4 -6 -7 -6 -6 -6 -6 -6 -5 -6 -3 -4 -4 -6 -5 -5 -1 -2 1 -0 -1 -1 -1 0 -4 -0 -2 -2 -2 -0 -1 0 2 3
2 -2 -3 -1 6 5 5 4 -5 -3 5 -5 -5 -7 -7 -5 -6 -6 -8 -5 -4 -5 -3 -4 -4 -1 0 -1 -3 0 -2 -1 -0 0 1 0 -0 -2 -2 2 2 1 1 1 2
1 -0 -0 3 5 4 4 -3 -7 8 4 -2 -5 -4 -6 -4 -4 -6 -6 -5 -5 -6 -4 -4 -3 -2 -1 -3 -3 -2 -1 1 1 2 5 4 2 0 -0 2 2 1 1 2 2
-1 0 3 5 7 2 -3 -6 4 9 -1 -3 -3 -3 -2 -3 -3 -3 -4 -1 1 -0 -0 -3 -1 -2 -3 -0 -1 -0 2 7 6 7 7 6 6 7 3 1 1 2 2 1 2
-1 -0 2 0 4 -2 -4 6 7 1 -2 -5 -3 -2 -0 -2 -2 -2 -1 1 -0 3 2 3 3 -1 -2 -1 -0 1 1 6 7 8 7 2 5 4 1 1 1 1 1 2 2
-2 -2 -2 -3 -4 -3 4 8 6 -0 -3 -3 -3 -0 -1 -1 -1 0 1 1 -1 -0 3 4 2 -2 -2 -3 -1 -1 4 -1 2 6 7 4 3 1 1 2 0 1 1 1 1
-2 -2 -1 -4 -5 -4 7 7 2 -2 -4 -3 -1 -1 1 -0 0 1 1 1 -0 -1 -1 -1 3 -2 -3 -3 0 0 -3 3 6 6 7 3 4 7 3 2 1 0 1 1 1
1 1 4 -1 -4 1 6 6 0 -3 0 1 -0 -2 1 0 0 2 3 1 1 -2 -3 0 3 0 -4 -2 -1 1 2 1 2 4 6 6 3 -0 1 2 1 1 1 1 1
4 5 5 -4 2 4 4 2 -2 -1 -0 0 1 -1 1 -0 2 3 5 3 -0 0 1 -1 1 2 -0 -3 -2 -2 0 1 4 4 5 5 3 -2 2 2 1 0 -0 -0 1
4 5 4 -1 4 5 2 1 -1 -0 -1 -0 2 2 1 3 4 5 5 2 2 3 4 2 2 4 3 2 1 -2 -3 -4 1 3 4 3 3 -3 0 0 0 1 -1 1 1
6 6 4 6 7 5 4 2 2 1 1 0 1 1 2 3 3 5 5 3 2 0 -2 2 2 2 4 0 -2 -3 -3 -5 -2 4 4 4 3 -0 3 3 2 2 1 2 2
6 6 0 5 3 5 3 3 4 3 1 1 1 2 2 3 4 6 5 4 3 0 1 3 4 4 3 -1 -2 -3 -2 -3 -3 -2 1 1 0 0 1 2 2 2 2 2 2
7 7 1 1 -4 4 4 2 4 2 2 2 2 1 3 4 4 5 4 3 4 2 2 2 5 3 2 3 1 -0 -0 0 -1 -2 -0 0 1 1 1 1 2 2 2 2 2
5 4 7 6 3 5 5 2 2 3 2 2 1 5 4 4 2 2 1 0 2 2 4 6 4 4 5 4 3 3 1 -1 -1 -1 -1 1 1 1 2 2 2 2 2 1 1

GFSSW_850_dewp_036.txt.gz
Dewpoint
-3 -3 -3 -3 -3 -4 -6 -7 -9 -11 -12 -12 -11 -7 -8 -7 -9 -7 -6 -2 -3 -6 -8 -10 -11 -10 -8 -5 -6 -7 -7 -7 -8 -5 -6 -10 -7 -1 2 5 6 7 8 8 6
-3 -3 -2 -2 -3 -3 -5 -7 -9 -10 -11 -11 -7 -7 -6 -8 -7 -6 -2 -1 -4 -5 -8 -14 -13 -7 -3 -6 -6 -7 -7 -8 -11 -9 -12 -13 -7 -5 4 8 9 9 9 7 5
-2 -2 -2 -2 -3 -3 -5 -7 -9 -10 -10 -9 -6 -6 -6 -6 -4 -5 -3 -7 -8 -7 -9 -9 -9 -4 -4 -6 -9 -11 -12 -13 -13 -14 -14 -10 -9 -8 4 7 9 9 8 7 5
-2 -2 -2 -2 -3 -4 -5 -7 -8 -9 -10 -6 -7 -5 -6 -4 2 -5 -6 -6 -6 -8 -6 -5 -3 -1 -8 -10 -11 -14 -14 -13 -13 -13 -13 -13 -12 -11 -7 4 6 8 8 7 5
-1 -1 -1 -2 -3 -4 -5 -7 -9 -9 -7 -7 -5 -5 -4 -3 -4 -7 -7 -7 -7 -6 -7 -5 -3 -5 -10 -12 -15 -13 -14 -13 -10 -12 -15 -16 -12 -10 -6 2 7 8 7 6 6
-1 -1 -2 -2 -3 -4 -6 -8 -9 -8 -6 -5 -4 -4 -4 1 -2 -6 -7 -8 -7 -6 -6 -5 -5 -7 -7 -11 -15 -15 -14 -14 -11 -10 -10 -10 -10 -10 -6 3 7 7 5 4 4
-1 -2 -2 -3 -4 -5 -7 -8 -8 -6 -5 -4 -3 -4 -4 -5 -4 -7 -8 -8 -9 -6 -6 -7 -7 -6 -8 -10 -15 -14 -11 -11 -10 -10 -10 -8 -8 -10 -4 3 7 6 6 5 4
-2 -3 -3 -4 -5 -7 -7 -8 -6 -5 -4 -2 -3 -4 -5 -4 -3 -6 -9 -9 -8 -7 -7 -9 -8 -6 -9 -10 -9 -7 -7 -5 -8 -8 -8 -8 -5 -9 -7 0 5 6 5 5 5
-3 -3 -4 -5 -6 -7 -7 -6 -5 -4 -2 -2 -3 -4 -6 -2 -7 -8 -9 -6 -7 -12 -11 -11 -7 -6 -8 -7 -6 -6 -6 -5 -6 -7 -6 -7 -5 -7 -10 -7 -4 -4 0 3 3
-3 -4 -4 -5 -7 -6 -6 -5 -3 -2 -2 -2 -1 1 -5 -4 -8 -9 -10 -7 -6 -5 -8 -7 -5 -4 -5 -5 -3 -4 -6 -4 -4 -7 -8 -6 -5 -6 -7 -4 2 4 5 5 5
-4 -4 -5 -6 -6 -6 -5 -2 -1 -0 -0 -8 -6 -1 -5 -8 -9 -9 -10 -7 -4 -5 -3 -4 -4 -3 -7 -7 -7 -9 -6 -4 -6 -8 -8 -6 -5 -4 1 2 4 4 5 5 5
-4 -5 -5 -5 -6 -5 -2 1 6 5 -2 -8 -4 -3 -4 -9 -7 -7 -6 -5 -5 -3 -3 -4 -3 -6 -8 -4 -3 -4 -2 -3 -4 -5 -8 -5 -3 -3 -0 2 3 4 4 4 4
-3 -4 -4 -5 -5 -3 2 6 4 4 4 -5 -5 -5 -7 -5 -6 -6 -5 -5 -4 -4 -3 -2 -5 -9 -3 -2 -0 1 -0 -1 -2 -3 -4 -4 -2 -0 -1 1 3 4 3 3 2
-2 -3 -5 -5 -3 -2 -2 6 3 1 -2 -4 -6 -7 -6 -6 -6 -6 -6 -6 -4 -4 -4 -5 -6 -3 -1 -1 -2 2 -1 -1 -2 -1 -2 -4 0 -1 -1 1 1 3 4 3 3
-2 -4 -4 -2 5 -0 5 5 -1 3 0 -6 -6 -8 -7 -5 -6 -7 -7 -5 -5 -6 -4 -4 -1 -0 -0 -2 -3 -0 -3 -2 -1 0 1 1 -0 -1 2 3 2 2 4 4 3
1 -3 -2 4 6 4 4 -1 -1 6 1 -3 -5 -5 -7 -4 -5 -7 -6 -5 -4 -4 -4 -3 -3 -2 -2 -2 -3 -2 -0 2 2 2 4 3 3 0 2 3 3 2 3 3 3
2 0 3 5 4 3 0 -3 1 7 -2 -3 -4 -5 -3 -3 -3 -5 -2 -0 2 -1 -1 -1 -1 -2 -2 0 -1 -1 3 5 6 7 6 4 7 5 3 2 2 2 2 2 2
0 3 4 4 3 -1 -4 2 6 3 -1 -5 -2 -1 -1 -2 -2 -1 -1 1 -1 3 1 2 3 -1 -2 -1 -1 -0 3 5 6 7 4 3 7 4 2 2 2 2 2 2 2
0 2 1 -0 -0 -1 1 7 6 2 -3 -3 -2 0 -0 -1 -1 0 0 1 -1 -0 2 3 2 -1 -3 -3 -2 -1 3 -0 4 4 5 4 3 1 2 2 2 3 4 4 3
-1 -2 -3 -3 -4 -3 6 7 4 -1 -2 -3 -1 -0 0 -0 0 1 2 1 -0 -2 -1 -0 3 -1 -3 -3 -1 -1 -2 3 4 5 6 4 5 6 3 3 2 1 2 2 2
-1 -2 -0 -4 -5 -2 5 6 1 -1 0 -0 0 -1 0 -0 1 3 3 2 1 -0 -2 -0 2 0 -1 -2 -1 0 1 1 2 3 5 6 3 1 2 2 2 2 2 2 2
3 3 5 -0 -3 4 3 1 -1 -1 -0 0 1 2 0 0 3 5 4 2 2 2 -1 -0 1 1 -0 -3 -2 -2 0 2 4 2 4 4 2 1 2 1 0 0 2 2 2
3 8 5 -1 -2 3 1 2 -0 -1 -1 -0 1 2 2 3 6 5 4 3 0 2 3 0 1 3 3 2 0 -2 -2 -0 3 2 3 2 2 -2 1 2 1 2 2 2 2
5 5 5 5 6 2 2 2 3 2 1 1 1 1 2 3 4 5 4 4 -1 -1 -1 2 2 1 4 1 -1 -3 -4 -4 -0 3 3 3 2 1 3 3 2 3 3 2 1
7 4 -1 2 2 5 3 2 3 3 1 1 1 1 2 4 5 6 5 4 2 -0 1 2 3 3 2 0 -1 -2 -2 -3 -3 -3 0 0 2 3 3 2 2 2 2 1 1
6 7 1 -1 -4 2 4 3 4 3 2 2 2 3 2 4 3 6 4 4 3 1 2 3 4 2 -0 3 2 -1 -2 0 -0 -2 -1 2 4 2 2 2 2 2 2 1 -1
5 5 -1 6 0 4 4 2 4 3 2 3 3 4 3 3 3 2 2 2 2 2 4 4 3 1 -1 3 1 1 1 -1 -1 -0 -0 1 2 2 2 2 2 2 1 -1 -3

GFSSW_850_dewp_039.txt.gz
Dewpoint
-6 -4 -4 -3 -3 -3 -3 -4 -6 -8 -11 -12 -13 -13 -6 -8 -7 -10 -10 -5 -3 -4 -4 -7 -8 -8 -5 -5 -5 -8 -7 -6 6 3 -0 -1 -6 -1 7 9 7 7 8 9 10
-4 -4 -4 -3 -3 -3 -3 -4 -6 -8 -9 -12 -12 -9 -7 -7 -9 -10 -3 -3 -1 0 -4 -6 -10 -9 -4 -5 -5 -6 -6 -7 0 3 2 -7 1 3 7 9 9 7 7 9 9
-3 -3 -3 -3 -2 -3 -3 -4 -6 -8 -10 -11 -10 -6 -6 -7 -5 -6 -3 -4 -4 -4 -5 -6 -7 -6 -4 -5 -8 -9 -10 -12 -11 -0 -3 -9 -5 2 8 9 8 8 7 8 7
-3 -3 -2 -2 -2 -3 -3 -4 -6 -8 -10 -10 -6 -6 -6 -4 -2 -6 -6 -6 -6 -8 -7 -7 -4 -3 -3 -6 -8 -13 -14 -13 -13 -13 -11 -9 -8 4 2 7 5 6 7 6 6
-2 -2 -2 -2 -2 -2 -3 -5 -7 -8 -9 -8 -6 -5 -5 -2 -5 -3 -7 -7 -6 -6 -7 -5 -2 -3 -9 -11 -14 -14 -13 -11 -13 -13 -12 -12 -10 -8 -3 4 8 8 7 6 5
-1 -1 -2 -2 -2 -2 -4 -6 -7 -8 -8 -6 -5 -4 -3 -0 -2 -4 -6 -7 -7 -6 -5 -5 -6 -5 -7 -12 -14 -14 -14 -11 -10 -11 -12 -10 -10 -8 -2 7 8 8 7 6 5
-1 -2 -3 -3 -2 -3 -5 -6 -7 -8 -5 -5 -3 -3 -2 -6 -4 -4 -6 -8 -8 -6 -5 -7 -7 -5 -8 -11 -14 -13 -11 -10 -10 -11 -10 -9 -8 -6 -0 8 8 8 7 6 4
-1 -2 -3 -3 -3 -4 -5 -7 -7 -5 -5 -3 -2 -2 -5 -7 -5 -5 -7 -8 -8 -6 -7 -10 -7 -7 -9 -12 -9 -8 -8 -6 -9 -9 -8 -9 -7 -9 4 8 8 8 8 7 7
-1 -3 -3 -3 -4 -5 -6 -7 -5 -5 -3 -2 -2 -1 -6 -5 -4 -8 -9 -7 -8 -6 -11 -8 -7 -8 -8 -7 -7 -6 -5 -5 -6 -8 -7 -7 -6 -7 1 7 6 6 6 7 6
-2 -3 -3 -4 -5 -6 -6 -5 -5 -2 -1 -1 2 0 -8 -6 -8 -9 -10 -7 -7 -7 -13 -6 -6 -4 -5 -7 -6 -6 -6 -5 -5 -6 -7 -6 -5 -4 -7 1 2 3 4 5 5
-3 -4 -4 -4 -6 -5 -5 -2 0 -1 0 -6 -6 -3 -2 -5 -7 -9 -11 -7 -5 -5 -3 -4 -4 -4 -7 -7 -7 -5 -7 -4 -6 -8 -8 -6 -3 -1 3 3 5 5 6 6 7
-3 -4 -4 -6 -5 -5 -3 1 6 5 0 -7 -5 -5 -4 -5 -6 -9 -7 -5 -5 -3 -4 -3 -3 -6 -5 -3 -4 -3 -4 -4 -4 -4 -6 -3 -1 -0 1 4 5 5 6 6 6
-2 -4 -5 -5 -5 -3 2 4 5 4 4 -3 -7 -6 -5 -5 -6 -6 -5 -5 -5 -4 -4 -3 -5 -5 -3 -1 0 1 -1 -2 -3 -3 -5 -3 -1 2 1 4 5 5 5 5 4
-1 -4 -4 -5 -3 -2 1 6 5 0 -1 -4 -5 -6 -6 -6 -6 -6 -6 -6 -4 -4 -4 -5 -3 -2 -2 -2 -1 1 -1 -2 -2 -3 -5 -3 2 1 1 2 4 5 4 4 3
-1 -3 -4 -3 1 -2 3 6 1 -1 2 -7 -6 -8 -6 -5 -6 -7 -7 -5 -5 -5 -5 -4 -1 -1 -1 -2 -3 -0 -2 -2 -1 -0 0 1 -0 -0 2 3 3 4 4 4 3
-1 -3 -4 4 5 1 4 -1 -2 4 -1 -5 -5 -6 -6 -4 -5 -7 -5 -4 -4 -3 -3 -2 -3 -3 -2 -2 -3 -2 0 2 3 2 4 3 3 1 3 3 3 3 4 4 3
1 -3 0 6 6 3 -0 -3 -0 7 -2 -3 -3 -6 -4 -3 -4 -5 -0 0 0 -1 -1 -1 -0 -2 -2 -1 -2 -0 2 5 6 6 6 4 6 4 2 2 3 3 4 4 3
1 -1 5 6 5 -1 -3 -1 4 3 -1 -4 -3 -3 -1 -2 -1 -1 -0 1 -1 0 1 3 3 -1 -2 -2 -1 0 3 4 6 6 3 3 6 4 2 2 2 3 3 3 2
2 3 4 4 1 -1 -4 2 5 3 -3 -2 -1 -0 0 -1 -0 0 0 0 -1 -0 2 2 1 -2 -3 -3 -2 -1 2 -0 4 4 4 4 3 2 2 3 2 2 2 3 3
3 3 1 -1 -3 -2 3 4 5 1 -2 -2 0 -0 1 -0 1 1 2 1 -1 -1 -1 1 3 -1 -3 -3 -3 -3 -2 3 3 4 5 4 5 5 4 4 2 3 3 3 3
1 0 0 -3 -3 -3 2 5 4 -1 -0 -3 -1 0 -0 0 1 3 3 1 1 0 -2 -0 0 -1 -1 -2 -1 -0 1 1 2 3 5 5 3 -1 3 2 2 2 3 2 1
-1 1 4 -2 -3 3 4 3 0 -1 -1 1 1 1 0 1 4 4 4 2 3 2 -1 0 1 1 -1 -2 -1 -1 0 0 1 1 4 3 1 1 2 1 2 2 2 1 1
2 8 7 -1 -1 3 1 1 1 -1 -1 0 1 2 1 4 5 5 4 3 0 1 2 -0 1 2 1 1 -1 -1 -2 2 1 1 3 1 1 0 2 2 2 2 2 2 2
3 6 6 5 -1 0 -0 1 2 1 1 1 1 1 2 4 5 5 4 3 -1 -1 1 1 3 0 2 1 -1 -3 -4 -1 -0 3 2 2 0 3 3 3 3 3 3 2 1
5 3 2 3 5 5 1 2 3 2 1 1 1 1 2 4 5 6 5 3 1 1 1 0 3 2 1 1 -1 -3 -3 -3 -3 -3 -1 -2 1 2 3 2 3 3 2 1 -0
6 5 -0 -1 -1 4 3 3 3 2 1 2 2 3 2 3 3 5 4 2 -1 1 3 3 3 1 1 2 1 -1 -3 -2 -1 -2 -2 2 4 2 2 2 3 2 1 -0 -2
6 6 -1 3 2 2 4 2 3 2 4 3 3 3 2 3 3 3 1 2 2 2 4 3 2 -1 -4 2 -2 -4 -2 -1 -1 -0 -1 4 2 2 2 2 2 2 0 -3 -5

GFSSW_850_dewp_042.txt.gz
Dewpoint
-8 -6 -6 -5 -4 -4 -4 -4 -4 -5 -6 -9 -11 -11 -12 -8 -7 -8 -11 -14 -4 -3 -4 -4 -7 -8 -6 -6 -4 -7 -7 4 6 6 4 2 6 5 6 9 8 8 11 11 12
-7 -6 -4 -4 -4 -3 -3 -4 -3 -5 -6 -9 -10 -10 -9 -7 -8 -11 -12 -8 -6 -3 -0 -4 -7 -6 -4 -5 -5 -7 -6 -4 3 3 4 2 -1 2 8 9 8 8 9 11 10
-6 -4 -3 -3 -3 -3 -3 -3 -3 -5 -7 -9 -9 -9 -6 -6 -6 -7 -4 -3 -4 -4 -4 -4 -6 -6 -4 -5 -7 -7 -7 -9 -1 2 -0 0 -0 2 8 9 8 7 10 11 9
-4 -3 -2 -2 -3 -2 -2 -3 -4 -5 -8 -8 -9 -6 -5 -5 -3 -4 -6 -6 -6 -6 -4 -6 -5 -3 -3 -5 -6 -10 -10 -11 -2 3 2 -6 -3 7 5 3 4 5 7 9 8
-3 -3 -2 -2 -3 -2 -2 -3 -4 -6 -7 -7 -6 -5 -5 -2 -6 -3 -5 -5 -6 -6 -6 -6 -3 -3 -6 -8 -11 -13 -13 -11 -5 -0 -4 -7 -7 4 -2 4 6 6 8 8 6
-3 -2 -1 -2 -3 -2 -2 -3 -5 -6 -7 -7 -5 -5 -3 -0 -5 -3 -4 -6 -8 -6 -5 -6 -5 -4 -5 -11 -14 -14 -11 -10 -13 -13 -11 -10 -9 -5 -1 6 7 7 7 7 6
-2 -1 -1 -3 -3 -2 -2 -4 -5 -7 -7 -5 -4 -3 -2 -7 -5 -5 -4 -7 -8 -7 -5 -5 -5 -4 -6 -10 -14 -12 -10 -10 -10 -11 -9 -9 -9 -7 4 7 6 7 7 7 6
-1 -1 -1 -3 -3 -2 -3 -5 -6 -7 -5 -4 -3 -1 -5 -7 -6 -5 -7 -8 -7 -7 -6 -6 -6 -6 -9 -11 -9 -8 -8 -8 -9 -9 -8 -10 -8 -9 6 8 8 7 6 6 6
-0 -1 -2 -3 -3 -3 -4 -6 -6 -5 -4 -2 -1 -0 -5 -7 -4 -6 -8 -8 -7 -6 -6 -6 -6 -7 -9 -7 -6 -7 -5 -6 -6 -8 -7 -8 -6 -8 8 8 8 8 8 7 6
0 -1 -3 -3 -3 -4 -5 -5 -5 -4 -2 -1 2 1 -8 -5 -6 -8 -9 -9 -5 -6 -8 -6 -6 -5 -6 -7 -5 -6 -6 -6 -5 -7 -7 -6 -4 1 2 7 6 6 6 7 7
-0 -1 -3 -3 -4 -5 -5 -4 -0 -0 -0 -4 -5 -5 -2 -5 -5 -9 -9 -9 -4 -5 -3 -4 -4 -4 -7 -7 -8 -7 -7 -6 -6 -7 -7 -3 1 3 4 4 5 6 6 7 7
-1 -2 -4 -4 -5 -5 -4 -0 1 4 2 -5 -4 -4 -8 -5 -5 -8 -8 -6 -5 -3 -4 -3 -4 -6 -3 -5 -4 -4 -4 -4 -4 -4 -5 -0 2 2 3 4 5 6 7 7 8
-1 -3 -4 -5 -5 -5 -2 6 5 5 5 -2 -9 -8 -5 -5 -5 -6 -5 -5 -5 -4 -4 -3 -5 -5 -2 -1 -0 -0 -2 -2 -3 -4 -4 -2 -0 3 3 5 5 6 6 6 6
-1 -3 -4 -4 -4 -4 1 5 5 5 -2 -4 -4 -6 -6 -5 -6 -6 -5 -5 -5 -4 -5 -4 -2 -3 -3 -2 -1 0 -2 -2 -2 -4 -1 -3 0 2 3 4 5 5 5 5 5
-1 -3 -3 -4 -1 -2 1 6 4 4 0 -6 -6 -7 -6 -6 -6 -7 -6 -5 -5 -4 -5 -3 -2 -2 -1 -2 -3 -0 -2 -1 -1 0 -0 1 -0 0 3 5 4 4 5 4 3
-0 -2 -2 -0 3 -1 5 2 3 3 5 -4 -6 -6 -5 -5 -6 -7 -4 -4 -4 -2 -2 -2 -2 -2 -2 -2 -2 -2 1 2 2 2 4 3 4 2 4 3 3 4 4 3 3
0 -2 -2 3 4 0 3 2 1 3 -2 -3 -4 -6 -4 -3 -4 -3 -0 0 -2 -0 0 -0 -0 -2 -2 -1 -2 0 1 4 5 5 6 3 5 3 1 2 3 4 4 4 3
1 -1 -2 5 6 3 1 -3 -1 0 1 -5 -4 -3 -2 -2 -1 -1 -0 1 -1 -2 1 2 2 -1 -3 -2 -0 1 1 5 6 7 4 3 6 4 2 2 2 3 3 3 3
2 2 2 7 5 -1 -1 -0 -0 3 -2 -2 -2 -0 0 -1 -0 0 0 -0 -1 -1 1 2 1 -2 -3 -1 -2 0 2 -0 4 3 4 4 3 2 3 3 3 3 3 3 3
2 4 6 6 1 0 -1 -0 1 3 -1 -3 -1 -1 1 -0 1 1 1 1 -1 -1 -1 1 3 -2 -4 -3 -2 -3 -1 3 2 2 2 3 4 5 4 4 3 3 3 3 3
4 5 4 -1 -0 0 0 1 4 2 0 -3 -0 0 -0 0 1 2 2 1 0 0 -1 -0 -0 -1 -1 -2 -0 0 1 1 2 2 4 4 3 0 3 3 3 3 2 3 3
5 2 4 -0 -2 2 3 3 1 -1 -0 1 0 -1 -0 1 4 3 3 2 2 2 -1 -0 0 1 -1 -3 -1 -1 0 -1 0 1 3 3 2 1 1 1 2 2 2 2 2
3 8 7 -0 0 3 1 0 1 -1 0 1 2 1 2 4 4 4 4 2 0 0 0 -1 0 2 0 -1 -2 -0 -1 1 -0 1 3 0 -1 1 2 2 2 2 1 1 1
4 7 7 4 -5 0 -1 -0 2 1 1 1 2 1 3 4 4 5 4 2 -1 -0 2 -1 1 -0 1 -2 -1 -2 -4 0 -0 2 2 1 -1 2 2 2 3 2 2 1 1
3 4 4 5 5 0 -3 0 2 2 1 0 1 1 3 5 5 5 4 3 0 1 2 -1 2 1 1 1 -1 -3 -4 -3 -2 -2 -1 -3 1 -1 2 2 3 3 2 1 -0
5 3 -0 1 3 3 2 3 2 2 2 2 2 3 2 3 2 5 3 2 -3 1 3 2 3 -0 2 2 1 -0 -2 -3 -3 -3 -2 -1 0 1 2 2 3 3 2 1 -1
6 2 -1 2 3 3 4 3 3 3 4 3 2 2 2 2 3 3 1 1 1 2 4 2 1 0 1 0 -3 -3 -2 -2 -1 -1 -1 2 -0 2 2 2 3 2 1 -0 -4

GFSSW_850_dewp_045.txt.gz
Dewpoint
-9 -9 -8 -7 -5 -4 -5 -4 -4 -4 -4 -6 -8 -10 -12 -13 -10 -8 -10 -11 -5 -5 -5 -4 -5 -8 -8 -7 -4 -7 -6 4 5 4 6 5 5 4 7 8 8 8 12 12 12
-8 -8 -8 -5 -4 -4 -4 -4 -3 -3 -4 -6 -8 -10 -11 -9 -8 -9 -9 -11 -11 -6 -2 -3 -6 -7 -4 -5 -4 -7 -6 -0 3 4 8 5 4 4 8 8 8 8 11 12 12
-8 -6 -6 -4 -4 -3 -3 -3 -3 -3 -4 -6 -8 -10 -9 -6 -8 -5 -4 -3 -4 -5 -4 -4 -6 -7 -4 -5 -5 -6 -6 -6 2 2 3 5 1 6 8 8 8 9 12 12 11
-7 -5 -5 -3 -3 -3 -3 -3 -3 -3 -5 -7 -9 -9 -6 -5 -3 -4 -5 -6 -5 -4 -5 -4 -5 -4 -3 -4 -6 -7 -9 -6 1 2 -1 0 -1 7 7 5 6 7 10 10 9
-6 -4 -3 -2 -2 -2 -3 -2 -3 -4 -5 -7 -8 -6 -5 -4 -9 -4 -4 -5 -6 -5 -5 -4 -4 -3 -2 -5 -9 -9 -11 -11 -6 2 -3 -2 -0 4 4 4 5 7 8 8 7
-5 -3 -2 -1 -2 -2 -3 -2 -3 -5 -6 -8 -6 -5 -4 -0 -7 -3 -5 -5 -5 -6 -5 -5 -5 -4 -5 -9 -12 -12 -11 -11 -9 -1 -3 -7 -7 1 -0 5 5 6 8 9 7
-3 -3 -1 -1 -2 -2 -3 -3 -4 -6 -7 -7 -5 -4 -3 -8 -5 -5 -5 -5 -6 -7 -6 -5 -5 -4 -4 -10 -13 -11 -9 -9 -9 -10 -9 -8 -8 -7 3 7 7 9 10 9 7
-3 -2 -1 -1 -3 -2 -3 -4 -5 -7 -7 -5 -4 -2 -5 -8 -7 -6 -4 -7 -7 -7 -7 -5 -5 -4 -7 -11 -8 -8 -7 -7 -8 -9 -9 -9 -6 -8 9 7 7 8 9 9 7
-2 -1 -0 -1 -2 -3 -4 -5 -6 -6 -5 -4 -1 -1 -6 -7 -6 -5 -7 -9 -7 -6 -5 -5 -4 -7 -9 -6 -5 -6 -6 -5 -6 -7 -7 -8 -6 -2 8 8 8 7 7 7 7
-1 0 0 -2 -3 -3 -5 -5 -5 -4 -4 -1 -0 2 -7 -4 -5 -7 -8 -9 -5 -5 -5 -5 -6 -5 -6 -6 -4 -4 -4 -5 -5 -6 -6 -5 -1 1 4 7 6 7 7 7 6
-0 1 -0 -3 -3 -4 -5 -4 -2 -0 -1 -3 -4 -3 -2 -6 -5 -8 -9 -9 -5 -5 -3 -5 -3 -4 -6 -7 -8 -6 -6 -5 -6 -6 -1 0 2 3 4 5 6 6 7 7 7
0 1 -1 -3 -4 -5 -5 -2 -1 4 2 -4 -5 -4 -6 -6 -5 -8 -8 -7 -5 -3 -4 -3 -3 -6 -3 -6 -5 -5 -4 -3 -3 -4 -2 1 3 4 4 5 6 6 7 7 8
1 1 -1 -3 -4 -6 -5 2 7 5 6 -1 -7 -7 -6 -5 -5 -7 -6 -5 -5 -4 -3 -1 -4 -4 -2 -1 -1 -1 -1 -2 -2 -3 -2 -1 0 3 5 5 6 6 7 8 8
1 1 -2 -4 -5 -5 -4 2 7 7 -0 -4 -3 -5 -5 -5 -6 -6 -5 -5 -4 -3 -4 -2 -2 -3 -2 -0 -1 1 -2 -2 -3 -4 -1 -2 -1 1 4 6 6 6 6 6 6
1 1 -1 -3 -4 -4 1 2 7 6 1 -5 -5 -7 -6 -6 -6 -6 -5 -6 -4 -3 -4 -1 -2 -1 -0 -1 -2 1 -1 -0 -1 1 -0 2 -1 -1 4 7 6 5 5 5 6
1 1 -1 -4 -0 -2 1 6 6 3 5 -4 -5 -6 -4 -5 -6 -6 -3 -5 -4 -1 -1 -1 -2 -2 -2 -1 -1 0 1 2 2 3 4 3 4 3 4 4 5 5 5 4 3
1 1 -0 -4 3 -0 5 4 2 4 -2 -3 -4 -5 -3 -3 -3 -2 -0 1 -1 1 2 0 -0 -2 -2 -0 -1 0 2 4 4 6 4 3 4 3 2 1 4 4 4 3 2
1 2 -1 -2 7 7 4 -1 2 -0 2 -5 -5 -3 -1 -2 -0 -0 0 1 -0 -1 1 2 1 -1 -3 -1 1 2 1 7 6 7 5 2 5 3 2 2 3 4 3 3 3
2 2 -1 -1 9 7 2 1 2 0 0 -2 -2 -0 -0 -1 0 1 1 0 -1 -1 1 3 1 -2 -3 -1 -1 2 3 0 5 4 5 2 3 1 3 3 3 3 4 4 3
2 2 -1 -0 7 7 0 1 -2 2 -1 -3 -2 -0 1 1 1 2 1 1 -1 -1 -1 2 3 -2 -3 -2 -1 -1 -0 4 3 4 1 1 3 2 4 4 4 4 4 4 4
2 4 2 4 7 4 2 1 2 2 1 -2 0 0 0 1 2 2 2 1 0 -0 -1 -0 2 0 -1 -1 1 1 2 2 2 2 1 2 -2 1 2 3 4 3 3 3 3
5 3 7 6 0 1 2 -0 1 -0 -0 1 -1 -1 0 1 3 3 3 2 2 1 1 -0 2 3 -0 -2 -1 -1 0 1 3 2 4 3 1 1 2 2 3 3 3 3 3
5 7 7 6 3 2 0 0 0 -0 -0 1 2 1 2 4 4 4 4 2 1 -0 2 0 2 3 1 -1 -1 0 0 -1 -0 2 4 7 -2 1 2 2 3 2 2 2 1
4 7 6 6 -3 1 0 -1 0 1 1 1 2 2 4 4 4 5 4 2 -1 0 0 -1 1 1 3 -1 0 -0 0 -0 0 3 1 1 -3 -0 2 3 2 2 2 1 1
4 5 5 6 3 -0 -2 1 1 2 1 0 2 2 4 5 4 5 4 2 0 2 2 1 2 1 1 1 -1 -3 -3 1 -0 -1 2 -1 -1 -3 0 2 2 2 2 1 1
3 3 1 2 0 0 0 3 2 2 2 1 3 3 2 4 3 5 4 2 -1 2 3 1 4 1 3 1 0 0 -2 -3 -2 -3 -2 -2 -2 -4 0 2 3 3 2 1 -0
5 1 -2 2 3 1 2 3 2 4 4 2 3 3 2 3 3 2 1 1 0 3 3 2 3 2 3 -1 -3 1 -1 -1 -2 -2 -2 -1 -2 2 2 2 3 3 2 1 -1

GFSSW_850_dewp_048.txt.gz
Dewpoint
-8 -9 -8 -9 -8 -7 -5 -4 -5 -4 -4 -4 -6 -7 -12 -13 -14 -11 -12 -11 -8 -11 -9 -6 -4 -6 -6 -8 -5 -6 -7 1 3 4 7 6 5 4 6 8 8 9 11 12 10
-8 -8 -8 -8 -7 -5 -4 -4 -4 -4 -4 -4 -6 -9 -12 -12 -10 -10 -7 -10 -11 -4 -2 -3 -6 -6 -8 -9 -6 -8 -6 -4 -1 4 5 4 4 3 5 7 7 9 13 13 12
-8 -9 -8 -7 -6 -4 -4 -3 -3 -4 -4 -5 -7 -10 -11 -8 -6 -4 -4 -4 -10 -8 -3 -3 -6 -7 -9 -8 -7 -8 -6 -5 -0 3 2 4 4 2 4 3 6 7 13 13 13
-8 -8 -8 -6 -4 -3 -3 -3 -3 -3 -4 -6 -8 -10 -9 -5 -3 -3 -4 -5 -4 -4 -4 -3 -5 -8 -11 -8 -8 -7 -9 -5 1 2 2 1 1 2 4 3 6 8 12 13 13
-7 -8 -6 -5 -3 -2 -3 -4 -3 -3 -5 -6 -9 -9 -5 0 -2 -5 -4 -5 -5 -5 -3 -3 -4 -8 -10 -10 -8 -8 -9 -2 -1 1 -0 2 1 1 4 6 7 10 12 12 10
-7 -7 -5 -3 -2 -2 -3 -4 -3 -4 -6 -7 -8 -6 -4 -0 -8 -5 -5 -5 -4 -4 -3 -3 -5 -7 -5 -7 -8 -8 -9 -3 -6 0 -3 -1 1 0 3 7 9 11 10 9 8
-6 -6 -4 -2 -1 -2 -3 -3 -3 -4 -6 -8 -7 -4 -3 -1 -6 -4 -6 -4 -3 -5 -3 -3 -3 -3 -3 -9 -11 -10 -10 -10 -9 -2 -2 -5 -2 -4 4 6 8 8 8 8 7
-6 -4 -3 -1 -1 -2 -3 -3 -4 -5 -7 -6 -5 -3 1 -10 -8 -6 -5 -5 -7 -6 -4 -4 -4 -3 -3 -9 -9 -10 -9 -5 -7 -3 -7 -6 -6 -4 6 5 6 7 8 8 7
-4 -2 -1 -0 -1 -3 -3 -4 -5 -6 -7 -4 -3 -1 -0 -7 -6 -5 -6 -7 -6 -6 -6 -5 -3 -4 -7 -9 -8 -8 -7 -7 -7 -8 -8 -8 -7 -2 7 5 6 7 7 7 7
-3 -2 -0 -0 -2 -3 -3 -4 -5 -6 -5 -3 -1 4 -4 -4 -4 -6 -8 -8 -4 -4 -4 -4 -4 -6 -8 -9 -7 -7 -9 -8 -8 -7 -8 -7 -2 -1 6 7 6 7 7 7 7
-2 -1 0 -0 -2 -3 -4 -4 0 1 -4 -1 -3 -0 -2 -5 -5 -7 -9 -5 -5 -4 -7 -4 -5 -7 -9 -9 -9 -7 -8 -9 -8 -6 -5 -6 -1 -0 5 7 7 7 7 7 8
-1 -0 1 -1 -3 -3 -4 1 -0 3 2 -4 -2 -2 -6 -6 -3 -7 -9 -8 -7 -7 -3 -4 -5 -5 -6 -7 -7 -7 -6 -5 -4 -6 -3 -1 1 1 4 6 7 7 7 8 9
-1 0 1 -1 -3 -4 -5 -4 3 6 5 0 -1 -3 -4 -5 -5 -8 -7 -5 -7 -5 -3 -5 -4 -3 -5 -4 -4 -3 -3 -3 -4 -4 -3 -1 1 3 3 5 6 7 7 8 8
-1 1 1 -2 -3 -4 -5 -4 3 7 3 -4 -4 -5 -6 -3 -5 -6 -5 -5 -4 -3 -4 -3 -3 -3 -3 -2 -3 -2 -3 -4 -3 -3 -3 -2 -4 1 3 4 5 6 7 7 7
-0 1 1 -2 -4 -3 -1 -1 3 7 -0 -6 -4 -5 -5 -5 -6 -5 -5 -5 -5 -4 -4 -1 -3 -2 -3 -2 -2 -1 -3 -3 -3 -2 -2 -2 -3 0 3 5 5 6 7 7 7
0 1 1 -2 -4 -3 -0 5 8 6 1 -4 -5 -6 -5 -5 -6 -5 -3 -4 -3 -2 -3 -2 -2 -2 -2 -1 -2 -1 -0 0 -0 -0 1 -2 0 -7 -0 1 5 6 6 7 6
1 2 1 -4 0 -0 4 7 5 3 -3 -3 -4 -5 -6 -4 -4 -4 -3 -3 -3 -0 0 -1 -1 -2 -2 -0 -0 -0 -1 -1 1 1 -1 2 2 -4 1 1 3 5 6 6 4
2 2 0 -3 3 6 5 5 4 -3 -3 -4 -5 -5 -5 -4 -2 -1 -1 -1 -1 -2 -1 -1 1 -2 -2 -1 -1 -1 -2 -1 -2 -0 0 3 2 2 1 1 2 4 5 3 3
2 2 1 -4 -2 8 5 6 0 -1 -2 -4 -4 -4 -2 -2 -3 -1 -0 -2 -1 -1 -3 -0 -0 -2 -2 -1 -1 1 1 1 3 4 4 -1 1 1 2 2 2 4 3 3 3
2 2 3 -3 -2 5 6 3 -1 -0 -3 -4 -4 -4 -2 -2 -3 -2 -1 -0 -0 -1 0 1 1 -2 -2 -2 -1 0 -1 2 2 4 -1 -5 -2 -4 3 3 2 3 2 3 4
5 4 4 -0 -0 7 6 2 -2 1 0 -4 -5 -2 -3 0 -2 -3 -1 0 -1 -0 -0 -0 -0 1 -2 -1 -1 1 1 1 -0 1 -3 -5 -8 -0 0 2 2 2 2 3 4
5 4 5 2 5 5 4 -0 -1 0 2 -1 -2 -3 -2 -1 0 -2 -1 -1 1 -1 0 0 1 3 -0 -2 -2 -1 -1 -0 -0 0 3 2 -4 -2 1 2 2 2 3 4 4
4 7 9 6 7 6 1 -1 0 -0 0 1 0 -1 1 1 3 2 2 2 1 0 1 -0 1 4 2 -0 -0 -0 -0 -1 -1 1 1 7 -6 -2 1 2 2 3 3 3 3
3 8 8 6 2 2 2 -0 -1 2 1 1 2 2 3 3 3 4 4 2 1 1 -1 -2 1 1 3 -1 -1 1 -0 -2 -3 0 -4 -2 -9 -4 -0 1 2 3 3 3 2
5 3 4 8 4 1 -0 -2 -1 3 2 2 2 1 2 5 4 4 3 1 1 2 2 1 2 0 -0 -1 -1 -2 -2 -1 -2 -3 -0 -6 -7 -11 -6 -2 0 2 3 2 2
4 4 4 4 1 0 1 -0 -2 2 2 2 2 2 2 3 1 4 3 2 2 2 3 1 3 2 2 1 -0 -0 -2 -3 -1 -2 -3 -4 -4 -7 -5 -4 1 2 2 2 1
5 2 2 4 3 0 0 -1 -1 2 4 3 2 3 4 4 4 3 2 1 -0 3 3 3 4 3 2 -1 -1 5 0 -2 -3 -3 -2 -2 -4 -3 -1 -1 1 2 2 2 1

GFSSW_850_dewp_051.txt.gz
Dewpoint
-9 -8 -8 -8 -8 -7 -8 -8 -6 -5 -4 -5 -5 -5 -8 -13 -15 -9 -3 -4 -5 -8 -4 -3 -4 -7 -10 -10 -11 -10 -7 -6 4 6 3 6 6 7 5 4 6 6 8 8 13
-8 -8 -8 -8 -8 -6 -6 -6 -5 -5 -4 -5 -5 -6 -9 -13 -14 -3 -5 -6 -10 -4 -10 -5 -6 -9 -11 -11 -11 -10 -7 -3 -1 6 10 6 3 3 3 4 5 8 12 13 13
-8 -8 -8 -8 -8 -6 -4 -5 -5 -5 -3 -4 -5 -7 -11 -11 1 -4 -4 -4 -13 -4 -4 -5 -8 -10 -10 -12 -10 -11 -6 -5 -4 4 3 1 3 3 2 1 2 5 12 12 12
-8 -8 -8 -7 -7 -5 -3 -4 -5 -4 -3 -5 -6 -9 -10 -8 0 -2 -5 -5 -7 -8 -3 -4 -8 -10 -10 -11 -11 -8 -8 -9 -1 4 -1 1 1 1 2 6 -0 9 10 12 11
-8 -8 -8 -7 -7 -4 -2 -4 -5 -4 -3 -5 -7 -8 -8 2 -2 -2 -4 -5 -5 -5 -3 -5 -6 -9 -10 -12 -9 -8 -6 -1 4 -3 -1 -0 -1 5 2 1 2 8 8 10 9
-7 -8 -7 -5 -5 -3 -2 -4 -5 -4 -4 -6 -8 -8 1 -0 -5 -3 -3 -4 -1 -2 -3 -5 -6 -8 -8 -9 -9 -7 -3 -1 -2 -1 -1 1 0 0 1 2 6 8 8 8 7
-7 -8 -6 -5 -3 -2 -2 -4 -4 -4 -5 -6 -7 -5 2 -2 -4 -1 -4 -2 -2 -2 -3 -4 -5 -5 -4 -5 -9 -9 -2 -3 -5 -1 -1 -2 -2 -1 2 3 5 6 5 5 4
-7 -8 -5 -4 -2 -1 -2 -4 -4 -5 -6 -7 -6 -1 1 -4 -3 -3 -3 -3 -2 -2 -3 -3 -3 -3 -2 -8 -8 -5 -6 -4 -7 -5 -2 -4 -3 -3 2 3 3 3 4 4 3
-8 -7 -4 -3 -1 -1 -3 -3 -5 -5 -7 -6 -1 4 -0 -4 -5 -5 -5 -5 -4 -2 -2 -4 -3 -3 -4 -7 -6 -8 -4 -5 -6 -6 -6 -4 -5 -3 1 2 3 3 4 4 3
-8 -6 -3 -2 -0 -2 -3 -4 -6 -6 -6 -4 3 4 -0 -5 -4 -4 -6 -7 -4 -2 -3 -3 -2 -4 -5 -6 -5 -7 -7 -7 -6 -5 -8 -9 -6 0 2 0 3 4 4 5 5
-7 -6 -2 -1 0 -2 -3 -5 1 4 3 -2 -2 -3 -3 -3 -4 -6 -7 -7 -5 -3 -2 -4 -3 -3 -6 -9 -9 -10 -11 -10 -11 -12 -10 -10 -5 -3 1 1 3 4 5 6 6
-6 -5 -1 0 0 -2 -3 1 0 5 4 -2 -4 -3 -2 -3 -4 -7 -7 -7 -6 -2 -4 -3 -2 -4 -9 -10 -9 -8 -7 -9 -9 -10 -7 -7 -4 -2 2 3 3 4 5 6 7
-5 -3 -1 1 0 -3 -4 0 4 5 5 -2 -4 -4 -4 -4 -6 -9 -7 -7 -7 -6 -4 -2 -2 -5 -8 -8 -7 -7 -5 -4 -6 -6 -8 -5 -2 0 1 2 3 4 4 6 7
-5 -2 -0 1 -1 2 2 -1 3 4 5 -2 -4 -5 -6 -4 -6 -7 -7 -7 -7 -6 -6 1 -1 -7 -7 -7 -6 -4 -4 -6 -6 -4 -3 -5 -3 0 1 3 4 5 5 6 7
-4 -1 1 1 7 2 5 3 4 8 6 -6 -9 -6 -7 -6 -7 -8 -6 -8 -6 -6 -5 -4 -5 -6 -6 -4 -4 -1 -4 -5 -6 -6 -2 -3 -6 1 2 3 3 4 6 6 7
-4 0 1 2 -1 3 5 8 8 7 5 -6 -7 -5 -5 -6 -8 -7 -8 -7 -5 -6 -5 -0 -4 -4 -3 -3 -4 -3 -3 -3 -4 -4 -0 -5 -4 -3 1 -1 2 3 4 6 6
-3 1 1 5 2 -1 4 9 6 5 -5 -6 -6 -6 -5 -6 -7 -7 -6 -6 -6 -4 -2 -3 -4 -3 -3 -2 -3 -3 -2 2 2 -0 0 -1 -1 -6 -1 -1 -0 3 4 6 7
-2 2 2 4 5 3 8 7 5 -2 -2 -7 -8 -6 -5 -7 -7 -7 -6 -7 -8 -6 -5 -3 1 -3 -4 -3 -2 -2 -3 -0 -0 -1 -3 -0 -5 -2 0 -1 1 3 5 6 5
-1 2 3 1 2 7 6 7 4 -2 -6 -5 -6 -5 -5 -6 -6 -5 -5 -6 -7 -6 -3 -2 -2 -3 -3 -3 -3 -1 -1 -2 -0 1 3 -5 -3 1 0 0 1 3 4 5 3
1 5 5 4 -1 8 7 5 0 -4 -4 -5 -4 -6 -4 -4 -4 -4 -5 -6 -4 -3 -3 -4 -1 -3 -2 -2 -2 -2 -2 -0 -1 3 0 -7 -6 -3 0 1 1 2 4 3 3
4 5 3 6 1 6 7 3 -1 -4 -1 -4 -4 -5 -5 -5 -4 -5 -5 -2 -3 -2 -1 -5 -3 0 -2 -2 -5 -0 -1 -2 -1 -0 1 -5 -6 -4 -4 -1 -0 1 2 2 3
5 5 8 5 2 4 6 1 -2 -4 0 -0 -3 -6 -4 -4 -3 -4 -6 -4 -2 -2 -2 -3 -2 -1 -1 -3 -3 -2 -3 -2 2 -0 -1 2 -3 -5 -4 -2 -2 -1 1 2 3
5 6 9 6 4 7 3 1 -2 -3 -2 -0 -3 -6 -5 -3 -1 -3 -4 2 -0 -0 -2 -0 -3 -0 0 -1 -2 -1 -3 -3 -2 -0 1 5 -2 -4 -3 -3 -2 -2 -0 1 3
4 8 8 8 1 4 4 2 -0 -2 -1 -1 -3 -4 -2 -3 -3 -1 -0 2 2 -0 -1 -1 -2 -1 2 -1 -2 1 -2 -2 -2 3 -0 -5 -6 -5 -4 -4 -4 -2 -0 2 4
4 3 5 7 4 5 3 1 0 -2 -0 0 -0 -1 -0 -0 -1 1 1 3 2 1 -1 1 2 -1 -2 -1 -2 -2 -2 -3 -1 -3 -0 -4 -7 -12 -10 -6 -5 -3 -1 2 3
5 1 2 1 1 5 4 3 -1 -4 -1 2 0 -3 -2 0 1 1 1 2 2 2 2 1 2 2 3 -0 -0 -0 -2 -3 -4 -4 -6 -7 -7 -10 -9 -8 -6 -3 -1 2 2
6 3 2 3 4 4 4 2 -2 -4 3 2 -1 -3 1 1 3 3 1 0 0 3 3 3 3 3 2 -0 -1 4 0 -3 -5 -5 -5 -2 -5 -5 -5 -5 -6 -3 -0 1 2

GFSSW_850_dewp_054.txt.gz
Dewpoint
-9 -9 -9 -8 -8 -8 -8 -8 -7 -6 -5 -5 -5 -6 -7 -8 -12 -11 -10 -5 -3 -6 -9 -3 -3 -5 -7 -9 -10 -12 -10 -6 -6 2 8 7 10 9 8 7 6 8 6 8 12
-7 -8 -8 -8 -8 -8 -8 -7 -6 -6 -5 -4 -5 -6 -8 -11 -15 -15 -6 -5 -7 -9 -7 -4 -6 -6 -9 -11 -11 -11 -8 -7 -4 4 7 7 7 9 8 8 9 11 8 12 13
-5 -7 -8 -8 -8 -8 -8 -7 -4 -5 -5 -4 -5 -7 -9 -12 -2 -1 -4 -4 -7 -10 -8 -6 -7 -9 -11 -12 -12 -11 -8 -8 5 5 6 7 8 8 2 5 0 10 13 13 14
-5 -6 -8 -8 -8 -8 -7 -6 -3 -5 -5 -4 -5 -7 -10 -11 3 -2 -5 -6 -5 -8 -5 -3 -6 -9 -11 -10 -11 -10 -10 -4 4 5 4 5 7 3 2 2 5 11 11 11 12
-6 -6 -7 -7 -7 -7 -6 -4 -3 -5 -5 -4 -5 -8 -11 4 1 -2 -4 -5 -6 -7 -4 -5 -7 -9 -10 -11 -11 -9 -8 2 3 1 1 -0 3 2 4 2 8 10 9 9 11
-7 -5 -7 -7 -7 -7 -5 -3 -3 -5 -5 -5 -6 -9 -6 2 -4 -3 -1 -2 -1 -4 -4 -5 -7 -8 -9 -9 -10 -7 -6 1 1 2 3 2 4 4 4 5 5 6 8 8 9
-6 -7 -7 -8 -7 -6 -3 -3 -4 -4 -5 -6 -7 -7 2 -2 -3 -3 -2 -2 -3 -2 -3 -4 -6 -6 -6 -5 -8 -5 -2 -2 -3 2 -2 1 4 3 3 5 5 4 6 4 5
-2 -8 -7 -8 -6 -4 -2 -3 -4 -4 -6 -7 -8 -5 3 -4 -4 -4 -4 -3 -3 -3 -2 -3 -3 -4 -2 -5 -9 -5 -3 -2 -7 -5 -2 -0 2 0 2 4 4 4 4 4 4
0 -6 -8 -7 -5 -3 -2 -4 -4 -6 -7 -8 -4 5 2 -2 -4 -5 -5 -5 -5 -3 -2 -4 -3 -3 -3 -3 -3 -4 0 -2 -4 -8 -3 -2 -1 -0 2 2 2 3 3 2 2
3 -5 -8 -7 -4 -2 -2 -4 -5 -7 -5 -7 -2 3 1 -3 -6 -7 -5 -6 -4 -2 -2 -2 -2 -2 -4 -4 -1 -3 -3 -4 -5 -7 -5 -3 -4 -2 1 2 2 2 3 3 1
4 -3 -8 -6 -3 -1 -2 -3 4 6 1 -1 -1 -3 -4 -5 -4 -5 -5 -7 -6 -3 -3 -3 -2 -1 -3 -4 -6 -6 -5 -4 -5 -8 -8 -8 -5 -3 -2 0 3 3 3 3 3
4 -1 -7 -4 -2 0 -2 3 1 5 5 3 -2 -3 -3 -3 -4 -6 -7 -7 -6 -3 -2 -2 1 -3 -4 -5 -5 -9 -6 -9 -11 -12 -10 -9 -6 -6 -3 -3 1 3 4 4 5
4 0 -7 -3 -1 -0 -3 -3 1 4 5 1 1 -7 -6 -4 -4 -7 -8 -7 -4 -1 -4 3 4 1 -2 -8 -9 -5 -1 -0 -6 -10 -10 -6 -7 -3 -3 -2 -0 2 4 5 6
4 1 -6 -1 -0 2 3 1 -1 3 6 -1 -2 -7 -5 -5 -5 -6 -9 -8 -7 -1 -1 2 -1 0 -2 -6 -6 1 -2 -2 -4 -2 -5 -2 2 3 -1 1 1 3 3 4 6
4 2 -5 0 5 5 5 0 4 7 10 -4 -4 -8 -5 -6 -7 -8 -8 -9 -5 -7 -6 0 -0 -1 -5 -6 -3 1 -3 -0 -7 -7 0 1 2 3 0 1 2 3 4 5 6
5 3 -3 1 1 2 6 8 5 9 6 -5 -9 -7 -6 -7 -7 -9 -9 -7 -7 -7 -6 -4 -2 -1 -2 -5 -5 -1 0 -2 -4 -2 4 2 3 2 1 1 2 3 4 5 7
5 3 -3 4 4 2 3 10 8 7 -5 -4 -7 -6 -6 -5 -6 -9 -7 -7 -5 -3 -3 -2 -4 -5 -4 -4 -4 -3 -1 3 10 9 4 -6 1 2 3 3 3 3 4 6 6
5 4 -3 0 6 8 8 9 7 -1 -1 -9 -8 -6 -4 -6 -6 -7 -8 -6 -7 -6 -7 -1 1 -4 -5 -5 4 3 -4 7 7 9 4 2 -2 1 -1 -1 1 2 4 5 6
6 4 -0 -0 3 7 8 10 5 -1 -5 -4 -7 -6 -5 -6 -7 -7 -7 -7 -9 -7 -3 2 0 1 -5 -7 0 -2 -1 -1 -1 -1 5 -1 -7 2 -1 -1 0 3 4 6 6
7 5 1 -0 2 8 9 8 3 -1 -5 -6 -4 -6 -4 -5 -6 -5 -6 -7 -8 -10 -1 3 7 2 -3 -4 -4 -3 -5 1 -1 4 4 -4 -5 2 1 -0 0 3 4 5 5
6 3 1 3 4 7 8 6 4 -2 -4 -3 -5 -6 -6 -6 -6 -5 -6 -8 -8 -4 -4 -0 6 1 -2 -2 -6 -1 -1 -3 -5 1 6 7 -1 0 -1 -1 0 1 3 5 4
4 2 0 5 6 2 6 3 1 1 -4 -2 -3 -5 -6 -6 -5 -5 -6 -7 -6 -5 -2 -4 -2 1 -0 -4 -5 -4 -2 -3 6 1 3 5 2 -5 -4 -1 -2 -2 2 3 3
3 4 6 4 5 3 2 3 1 -0 -2 -1 -0 -4 -5 -4 -4 -4 -5 1 -3 -3 -2 -2 0 3 -1 -2 -2 -2 -5 -5 -2 2 3 10 3 -4 -5 -4 -4 -3 0 1 2
2 6 8 8 2 0 3 3 3 -0 -3 -4 -2 -4 -4 -3 -4 -2 -3 1 1 -1 -1 1 -1 -1 3 -2 -1 0 -2 -4 -2 8 4 3 -2 -5 -3 -4 -5 -4 -4 0 1
3 3 5 8 7 3 3 2 2 1 -2 -3 -2 -3 -4 -1 -3 -2 -3 3 2 1 -0 0 0 -3 -5 -4 -3 -1 -2 -3 -3 -2 3 1 -4 -7 -8 -4 -5 -5 -3 -1 2
3 2 5 4 4 4 2 5 2 0 -2 -0 1 -2 -3 -1 -2 -2 -1 3 2 2 1 1 3 2 3 0 -1 0 -2 -3 -3 -3 -5 -4 -4 -8 -8 -8 -7 -7 -4 -3 1
4 3 4 4 5 3 4 5 3 1 -2 -3 -1 -0 0 -1 0 2 -1 0 -1 3 4 3 5 7 7 1 0 4 1 -2 -4 -5 -4 -2 -3 -6 -6 -5 -5 -5 -6 -2 -0

GFSSW_850_dewp_057.txt.gz
Dewpoint
-5 -6 -8 -9 -8 -8 -8 -7 -8 -8 -8 -6 -6 -6 -7 -8 -10 -15 -21 -13 -6 -3 -8 -10 -2 -2 -5 -6 -8 -9 -9 -9 -8 5 9 8 8 7 8 7 7 10 10 10 12
-7 -5 -6 -8 -8 -8 -8 -8 -8 -7 -6 -7 -6 -6 -7 -9 -15 -8 -3 -7 -9 -6 -7 -9 -4 -4 -5 -6 -8 -10 -8 -7 3 5 7 7 8 7 8 6 8 6 10 11 11
-6 -8 -5 -7 -8 -8 -8 -8 -8 -7 -6 -6 -5 -6 -8 -11 -2 -2 -6 -6 -6 -5 -10 -9 -6 -6 -6 -8 -10 -10 -8 -0 5 5 6 7 7 8 7 7 7 5 10 11 11
-3 -8 -6 -6 -8 -8 -8 -8 -7 -5 -6 -6 -5 -7 -9 -12 3 -2 -3 -6 -5 -8 -6 -6 -4 -4 -6 -9 -11 -9 -1 5 6 5 6 7 3 6 7 6 6 7 8 11 11
-0 -6 -7 -6 -7 -8 -8 -8 -6 -5 -5 -5 -6 -7 -10 -3 -5 -3 -3 -5 -5 -7 -6 -5 -3 -6 -7 -9 -9 -10 3 3 3 3 4 3 3 2 3 8 10 10 11 11 9
1 -3 -9 -6 -7 -8 -8 -7 -4 -5 -5 -5 -6 -8 -9 5 -4 -2 -5 -4 -1 -4 -6 -4 -4 -5 -7 -7 -5 -5 1 2 1 1 3 2 2 3 6 3 8 11 11 10 10
1 0 -8 -8 -8 -8 -8 -6 -4 -5 -5 -6 -7 -8 -7 -18 -4 -3 -1 -4 -2 -2 -2 -3 -4 -5 -3 -3 -6 -3 -1 1 2 1 1 3 5 4 5 7 9 9 9 9 9
3 2 -4 -9 -8 -8 -7 -5 -4 -5 -5 -6 -8 -5 -7 -6 -5 -4 -3 -2 -2 -2 -2 -2 -3 -4 -3 -3 -5 -3 -3 -1 0 0 1 0 3 3 4 5 6 6 8 8 9
6 2 -1 -8 -9 -8 -6 -4 -5 -6 -6 -7 -7 5 3 -0 -3 -6 -5 -4 -4 -3 -2 -3 -4 -3 -2 -1 -2 -3 0 -1 -1 1 1 1 1 2 4 4 4 4 5 7 7
8 3 1 -6 -9 -8 -5 -4 -6 -5 -6 -5 -5 2 -1 -6 -5 -8 -6 -5 -4 -2 -2 -2 -2 -1 -2 -3 0 -1 -0 -2 -2 2 1 -0 -0 2 3 3 3 3 2 2 2
9 5 2 -4 -9 -6 -4 -4 4 6 2 -2 -3 -9 -5 -3 -4 -5 -5 -6 -7 -3 -0 -2 -1 0 -2 -3 -3 -3 -3 -2 -4 -6 -2 -2 1 2 2 3 4 4 2 1 2
8 7 3 -3 -8 -5 -2 -2 3 3 6 4 4 3 -2 -3 -3 -4 -5 -5 -4 1 -0 -1 1 -1 -2 -3 -3 -2 -2 -1 -4 -6 -6 -5 -4 -2 4 3 -2 2 4 2 5
7 8 3 -2 -7 -5 -1 -4 -5 2 6 3 0 3 -2 -5 -4 -4 -5 -6 -2 -0 2 2 1 0 1 2 2 -1 0 -2 -2 -3 -10 -8 -3 -1 -2 4 2 0 4 3 5
7 8 4 -2 -5 3 2 0 -5 2 8 3 -0 1 -1 -8 -3 -5 -5 -8 -2 0 0 2 0 -0 1 2 -0 1 -1 -0 -1 0 -1 -2 5 1 0 -0 4 5 5 5 7
7 9 4 -3 1 6 7 4 2 4 10 2 0 -4 -8 -5 -5 -6 -6 -6 -4 -1 2 2 1 2 1 1 -1 1 -1 -0 0 0 1 1 4 2 -0 1 1 3 4 6 7
6 8 5 -2 -4 3 5 7 6 10 10 -0 -3 -6 -4 -4 -5 -6 -8 -8 -8 -5 -3 -0 -2 -1 1 -2 -2 -1 -1 1 4 3 4 1 3 3 1 1 3 2 3 5 7
6 8 5 -0 -6 6 4 8 9 11 -0 -2 -5 -4 -4 -4 -4 -5 -6 -5 -4 -2 -1 -2 -1 -3 -1 1 -2 0 1 6 7 7 7 2 3 2 1 4 3 4 4 7 8
6 8 5 1 2 8 2 9 10 3 3 -4 -5 -4 -3 -4 -4 -4 -6 -4 -5 -4 -3 2 2 0 -2 -1 1 1 3 6 7 9 6 4 5 4 0 1 1 3 4 6 7
7 7 6 2 3 6 9 9 6 4 -1 -1 -6 -2 -2 -4 -3 -3 -4 -5 -6 -6 -2 2 3 1 0 -1 -2 4 7 3 4 4 3 3 2 2 0 2 4 3 5 6 7
7 7 6 3 -2 6 8 6 6 1 0 1 -0 -4 -2 -3 -3 -2 -3 -5 -5 -6 -3 4 5 4 3 0 -2 0 2 3 4 1 3 1 0 5 2 2 4 4 6 6 6
6 6 5 4 0 6 7 6 5 3 1 2 -1 -3 -3 -2 -3 -3 -3 -5 -6 -1 1 3 4 4 3 3 2 -1 -1 -1 -1 4 4 6 2 2 2 2 3 4 5 6 6
6 6 4 1 6 5 6 4 3 3 2 3 -1 -1 -1 -3 -2 -2 -2 -3 -6 -2 -1 2 5 7 5 2 -2 -3 -1 3 4 2 4 4 3 -4 -1 -0 -0 3 4 5 6
6 5 3 -0 3 5 3 3 3 3 3 2 1 -0 -1 -1 -0 -1 -2 2 -2 -2 -1 1 2 3 2 -0 -1 -1 -2 -3 -0 4 3 4 3 -4 -3 -1 -1 -1 3 5 5
5 5 7 6 -2 2 3 2 3 1 3 3 1 0 1 -0 -2 1 4 2 1 1 -1 1 2 2 3 0 -1 1 -1 -2 -1 4 3 3 2 -1 -3 -3 -3 -4 1 4 4
5 3 6 8 6 3 1 1 3 4 3 2 1 1 1 0 -1 -0 4 4 2 1 0 1 2 -1 -2 -1 -1 -1 -0 -0 0 1 3 1 1 -1 -5 -3 -5 -4 -4 1 3
4 3 6 6 5 6 2 1 2 2 3 3 2 1 0 0 -0 -0 3 4 3 2 2 1 4 1 3 2 1 0 -0 -1 -1 -2 -2 -2 -2 -5 -5 -7 -6 -5 -3 -1 3
4 2 3 6 6 6 5 2 2 2 2 1 -0 2 2 1 -0 1 1 1 2 4 3 4 4 5 5 0 0 1 -0 -1 -1 -2 -3 -1 -2 -4 -4 -4 -5 -5 -5 -2 3

GFSSW_850_dewp_060.txt.gz
Dewpoint
-8 -8 -7 -6 -8 -8 -9 -9 -8 -8 -9 -8 -7 -7 -7 -9 -11 -17 -10 -9 -9 -6 -8 -10 -6 -2 -2 -5 -6 -7 -7 -6 -8 1 8 8 9 9 8 8 4 8 10 10 13
-4 -8 -9 -6 -6 -8 -9 -8 -8 -9 -8 -7 -7 -7 -7 -10 -12 -2 -5 -5 -9 -8 -10 -8 -8 -5 -4 -4 -6 -10 -8 -8 -1 7 7 7 8 8 8 7 8 11 11 10 11
-2 -4 -8 -8 -7 -7 -8 -8 -8 -9 -7 -7 -7 -7 -8 -10 -5 -2 -5 -6 -5 -10 -10 -9 -9 -6 -6 -6 -6 -9 -8 -0 5 5 5 6 8 8 7 7 7 8 11 11 10
-0 -1 -5 -9 -7 -7 -8 -8 -8 -7 -5 -7 -6 -7 -8 -12 1 -4 -3 -5 -6 -8 -8 -6 -5 -4 -4 -6 -9 -9 -5 1 6 6 6 6 7 8 7 7 7 6 9 11 11
4 -0 -1 -9 -8 -7 -8 -8 -8 -6 -5 -6 -6 -7 -9 -9 -19 -6 -2 -4 -4 -6 -10 -7 -4 -4 -5 -7 -7 -6 4 4 4 3 4 4 3 4 7 10 7 8 11 11 10
7 4 0 -4 -9 -7 -8 -9 -8 -5 -5 -6 -6 -7 -9 1 -5 -3 -1 -2 -2 -2 -5 -7 -5 -4 -4 -3 -3 -0 2 3 3 4 3 3 3 4 9 5 7 8 10 10 9
9 7 2 -1 -8 -9 -9 -9 -8 -4 -5 -5 -6 -7 -9 -16 -17 -4 -2 -1 -2 -3 -2 -2 -3 -2 -3 -1 -2 1 3 1 2 2 1 3 2 4 6 7 8 10 10 9 7
8 8 5 1 -5 -10 -9 -9 -7 -4 -5 -6 -7 -7 -9 -8 -7 -5 -2 -1 -1 -1 -1 -2 -3 -3 -4 -3 -4 -3 -1 1 1 -0 0 1 4 2 4 9 10 10 10 9 8
7 8 7 2 -2 -9 -10 -9 -6 -5 -6 -6 -7 1 -2 -2 -8 -6 -2 -4 -4 -4 -2 -3 -3 -3 -3 -1 -2 -3 -1 1 3 0 -1 0 1 4 6 8 9 10 10 8 6
5 8 8 4 1 -8 -10 -8 -5 -3 1 -4 -4 -2 -6 -6 -3 -8 -6 -5 -5 -2 -2 -3 -2 -1 -3 -2 2 -2 -1 -1 1 2 2 1 1 3 6 6 7 9 10 7 6
6 4 8 6 2 -7 -10 -6 -0 5 4 3 -5 -15 -8 -4 -3 -4 -6 -6 -5 -2 -1 -2 -1 -1 -2 -2 -2 -1 -1 -0 -2 -2 2 1 -1 1 3 4 4 8 10 8 5
5 5 8 8 3 -6 -8 -5 1 1 3 -0 -1 3 -0 2 0 -4 -4 -5 -4 -0 0 1 1 -1 -1 -0 1 1 2 1 -3 -4 1 -2 -1 2 4 4 3 4 4 6 7
1 4 7 8 3 -6 -6 -2 2 -2 4 -0 -1 -1 -2 -1 0 -4 -4 -4 -1 0 -0 2 1 -1 0 1 2 2 2 -1 -1 -3 -3 -4 -0 0 2 3 3 3 2 2 3
-6 5 7 8 3 -6 3 7 1 1 6 4 4 0 -1 -5 -6 -5 -5 -4 -2 -1 1 1 -0 -0 1 1 1 3 -0 -1 -2 -2 -4 -3 1 1 -0 5 4 2 4 2 2
-9 6 7 7 -1 2 6 8 2 5 1 0 1 -1 -2 -7 -5 -5 -6 -5 -2 0 1 1 1 1 0 0 -0 2 -1 -1 -1 1 1 1 0 -1 0 2 3 4 3 4 5
-6 6 8 7 4 -4 5 7 4 8 5 4 1 -1 -5 -6 -4 -6 -6 -6 -7 -0 -0 -2 -2 -1 -1 -0 -1 -2 -1 3 4 3 4 2 1 0 0 -0 1 3 4 5 6
1 6 8 7 5 -6 3 6 8 9 2 1 -1 -5 -3 -3 -3 -4 -6 -6 -5 -2 -1 -2 -1 -3 -1 -1 -1 -0 2 5 5 6 5 2 3 1 -0 -1 -1 2 4 5 6
3 6 7 7 5 2 4 8 9 4 4 0 -4 -4 -2 -3 -3 -4 -5 -5 -5 -4 -1 1 1 -1 -3 -1 -1 3 1 4 4 6 3 3 4 2 1 -0 1 2 3 5 7
4 5 7 5 5 4 7 8 6 6 0 -1 -4 -2 -2 -3 -3 -3 -3 -4 -5 -5 -2 2 3 3 0 0 -2 1 4 4 5 4 4 2 1 2 0 1 2 3 6 8 8
1 5 5 7 5 1 8 5 5 3 2 2 0 -2 -0 -2 -2 -2 -3 -4 -6 -5 -5 1 4 3 2 0 -1 -1 1 5 6 1 1 1 1 4 2 4 4 4 6 8 9
2 4 5 7 6 3 6 5 3 1 2 4 3 -1 -2 -1 -2 -2 -3 -4 -5 -4 -2 2 1 1 2 2 0 0 0 1 2 3 3 4 2 -1 2 3 4 4 4 7 7
3 5 3 6 4 3 5 3 2 2 2 4 4 3 -1 -2 -2 -1 -2 -4 -3 -1 0 1 3 4 3 1 1 -1 0 1 4 0 3 3 1 -3 0 1 3 3 5 6 6
3 4 5 6 5 3 2 4 3 1 3 3 4 2 -1 -2 -2 -1 -2 1 -2 -1 1 2 3 4 4 1 -1 1 -2 -1 2 2 2 3 2 -3 -3 -0 1 3 4 5 6
4 5 6 6 4 1 2 3 5 2 2 3 4 3 2 0 -1 -1 2 2 2 0 -0 -0 2 1 5 2 -1 0 -0 -2 -1 3 2 3 1 -1 -3 -2 -1 -0 3 4 5
5 3 3 6 5 1 1 2 3 3 1 2 3 3 4 2 -1 0 4 3 2 -0 0 0 1 0 -0 -1 -0 -0 -0 -1 0 0 2 0 2 -1 -3 -3 -4 -2 -2 3 6
5 4 4 5 3 3 1 2 2 1 0 -0 2 3 3 1 -0 0 4 3 2 2 0 1 1 0 1 1 -0 0 -1 -1 -1 -2 -1 -1 -1 -3 -5 -4 -4 -4 -3 2 5
1 3 4 2 4 5 2 1 0 -1 -0 -2 2 3 3 2 -1 -3 -0 1 2 2 3 3 4 3 4 0 0 3 -0 -1 -1 -2 -2 -1 -3 -4 -3 -4 -4 -5 -5 -0 3

GFSSW_850_dewp_063.txt.gz
Dewpoint
-4 -5 -9 -9 -8 -7 -8 -9 -9 -8 -9 -9 -8 -8 -9 -9 -13 -7 -4 -4 -10 -12 -8 -7 -9 -3 -3 -4 -6 -7 -7 -6 -7 -3 2 8 9 9 9 8 8 10 10 11 13
-2 -3 -4 -8 -9 -7 -7 -8 -8 -8 -9 -8 -7 -8 -9 -10 -9 -4 -6 -5 -7 -7 -7 -7 -8 -5 -4 -3 -6 -9 -8 -8 -9 3 6 7 8 8 8 7 9 12 12 13 13
4 -1 -2 -4 -9 -8 -7 -8 -8 -9 -8 -7 -7 -8 -9 -10 -7 -3 -4 -5 -5 -8 -9 -7 -8 -8 -6 -6 -5 -9 -7 -9 4 6 6 6 7 7 8 7 7 12 13 13 13
7 5 0 -2 -5 -9 -7 -7 -8 -8 -8 -7 -7 -7 -9 -10 -2 -3 -3 -4 -6 -8 -7 -6 -4 -3 -3 -4 -7 -9 -10 -3 3 5 5 6 7 8 6 7 7 9 11 12 12
8 7 5 0 -2 -7 -8 -7 -8 -8 -7 -6 -6 -7 -9 -8 -15 -10 -3 -3 -4 -6 -8 -6 -5 -4 -4 -5 -5 -9 3 4 5 5 5 5 5 5 7 9 7 11 11 11 11
8 8 7 6 0 -3 -9 -8 -8 -8 -5 -5 -5 -6 -8 -3 -10 -4 -3 -2 -2 -3 -6 -8 -4 -4 -4 -4 -2 1 3 2 4 4 4 3 4 4 9 10 11 10 10 10 10
3 7 8 7 4 -0 -7 -10 -9 -7 -4 -5 -5 -7 -8 -14 -12 -3 -3 -3 -2 -1 -2 -2 -2 -3 -3 -2 -2 2 2 3 3 3 1 2 3 5 7 10 9 8 4 10 9
3 6 7 8 7 2 -3 -10 -10 -8 -3 -4 -5 -7 -10 -17 -14 -5 -4 -4 -1 -1 -2 -2 -2 -3 -3 -3 -4 -2 0 4 1 1 1 1 4 4 6 10 10 9 5 10 9
-2 1 6 7 7 4 -0 -9 -10 -9 -4 -4 -6 -6 -8 -6 -5 -7 -4 -4 -3 -3 -4 -3 -3 -3 -3 -2 -3 -3 -1 2 3 0 -0 0 3 5 6 10 11 11 10 9 10
-15 -5 6 5 8 6 1 -9 -10 -6 -1 2 -2 -2 -14 -5 -3 -4 -6 -3 -5 -2 -2 -3 -2 -1 -3 -2 1 -0 -1 -1 1 -1 1 1 1 6 6 9 10 11 10 9 8
-23 -8 6 4 8 7 2 -10 -4 4 4 1 -5 -10 -13 -7 -4 -4 -4 -6 -5 -3 -1 -2 -1 -1 -2 -2 -1 0 1 0 -1 -3 2 2 1 2 7 7 9 10 11 10 6
-26 -10 4 3 8 8 3 -9 -2 3 1 -2 -3 0 -0 1 1 -3 -4 -5 -2 -1 -0 -1 0 -2 -1 -0 1 1 2 2 0 -2 -0 1 1 -1 5 6 8 9 10 9 7
-27 -14 4 4 7 7 3 -4 5 4 2 0 -1 -0 -4 -3 1 -2 -4 -4 -3 -1 0 0 -0 -1 0 1 1 1 2 2 1 -3 -2 -2 0 1 5 5 6 8 8 8 5
-22 -18 5 4 6 6 1 6 4 0 3 1 5 1 -2 -2 -2 -4 -4 -4 -2 -1 -0 0 -0 0 1 1 0 2 -0 1 0 -3 -0 -4 1 1 4 5 4 6 7 7 5
-4 -14 5 5 6 0 5 5 3 5 -1 -5 3 0 -2 -5 -6 -5 -5 -4 -2 -0 -0 -1 1 1 1 -0 -1 1 -0 -0 -1 0 0 0 -1 -1 -0 5 5 3 5 5 6
3 -7 5 6 7 4 5 3 4 7 4 0 1 1 -2 -6 -6 -5 -4 -5 -5 -1 -0 -2 -2 -1 -1 -1 -1 -1 0 1 2 2 3 1 1 1 1 1 4 3 3 3 4
3 -3 4 6 7 6 3 3 9 8 -1 2 2 -2 -1 -3 -5 -4 -5 -5 -3 -1 -1 -2 -1 -3 -1 -0 -2 -1 1 3 4 5 3 2 3 2 -1 -2 -1 2 3 3 3
3 2 3 6 7 5 0 8 8 4 4 2 -3 -3 -4 -3 -3 -3 -5 -4 -6 -4 -2 -0 1 -2 -3 -1 -1 2 0 3 3 4 2 2 4 2 -1 -0 -0 -2 2 3 5
2 3 4 5 7 6 6 8 5 4 3 -3 -3 -3 -2 -2 -3 -4 -4 -4 -6 -5 -3 1 1 2 1 -0 -2 2 3 2 4 3 5 2 -0 -2 0 2 3 6 3 5 6
2 1 2 4 7 7 6 6 5 3 3 3 -1 -2 -1 -1 -2 -2 -2 -4 -5 -5 -5 -1 1 2 2 1 -1 -1 1 4 5 3 2 -0 0 0 -0 1 4 5 7 6 6
2 2 1 3 6 6 5 4 3 2 1 5 5 3 -1 -2 -2 -1 -2 -4 -5 -4 -4 1 -1 -1 2 2 1 2 1 1 2 2 3 4 2 -1 1 1 3 3 5 6 7
2 2 2 2 6 5 4 3 2 1 0 3 4 5 3 -2 -1 -1 -1 -3 -5 -1 -2 0 1 1 1 -0 -0 -1 -0 1 3 1 3 3 2 -4 -1 0 2 2 3 6 7
1 1 3 3 5 5 2 2 2 1 1 3 4 4 2 -1 -2 -1 -1 -3 -1 -1 1 2 2 3 1 -0 1 2 0 1 2 2 3 3 2 -4 -4 -2 -1 2 3 4 7
1 3 5 5 3 3 3 3 4 2 2 2 3 3 3 2 -1 -1 0 1 1 -0 -1 -1 2 1 3 1 -1 1 -0 -1 1 4 1 2 -0 -2 -2 -2 -2 -1 1 3 5
1 1 3 4 4 4 2 2 4 4 2 1 2 3 4 4 0 0 3 2 2 0 1 -0 2 0 -0 -1 -1 -1 -0 -0 1 0 2 0 1 -1 -2 -3 -4 -5 -1 2 5
1 2 3 3 3 4 2 2 3 3 2 3 2 3 1 4 2 1 3 2 2 1 0 1 1 -1 1 0 -0 1 -0 -1 -0 -1 1 -0 -0 -3 -4 -5 -4 -4 -2 -1 2
1 1 2 3 3 3 3 1 1 1 2 0 0 2 1 3 2 0 -1 1 0 2 2 2 3 2 2 0 1 3 1 -0 -1 -2 -2 -0 -2 -4 -3 -3 -1 -3 -3 -1 2

GFSSW_850_dewp_069.txt.gz
Dewpoint
6 5 4 1 -3 -3 -6 -9 -8 -8 -9 -9 -9 -10 -9 -11 -12 -6 -5 -5 -10 -13 -14 -8 -7 -3 -3 -10 -7 -7 -5 -4 -6 -7 -6 8 8 9 8 9 9 10 11 12 13
9 8 7 6 4 0 -2 -5 -9 -8 -8 -9 -9 -10 -9 -11 -13 -5 -4 -5 -5 -7 -6 -6 -8 -4 -3 -3 -6 -7 -5 -6 -8 -9 2 7 8 8 8 8 11 12 11 13 13
5 9 8 8 7 6 2 -1 -6 -9 -8 -9 -9 -10 -8 -10 -12 -3 -3 -3 -5 -6 -7 -8 -8 -6 -6 -5 -5 -7 -5 -7 -9 -6 6 6 7 7 7 7 9 11 12 13 13
4 2 5 8 8 7 6 3 -1 -7 -9 -9 -9 -9 -8 -10 -9 -1 -2 -4 -5 -7 -7 -7 -7 -4 -3 -3 -5 -5 -7 -8 -4 4 5 5 7 7 7 8 9 11 12 12 12
4 5 3 5 4 7 7 6 3 -2 -9 -9 -9 -8 -7 -8 -12 -12 -7 -3 -4 -6 -6 -4 -4 -4 -3 -4 -5 -7 -3 4 0 5 5 5 6 7 10 10 9 12 11 11 11
-7 1 3 3 5 1 6 7 6 2 -4 -10 -9 -8 -4 -4 -13 -16 -4 -2 -2 -3 -6 -6 -5 -4 -4 -3 -2 -0 3 5 6 5 5 3 5 5 10 11 11 10 11 11 11
-18 -7 -2 2 2 -1 3 5 5 5 -0 -9 -10 -8 -4 -10 -12 -11 -2 -2 -2 -2 -1 -3 -3 -2 -3 -2 1 2 3 2 4 4 3 3 4 7 10 11 11 11 11 11 11
-27 -22 -7 -5 -2 -3 -0 2 2 5 3 -7 -10 -6 -6 -11 -13 -9 -3 -2 -3 -3 -2 -2 -1 -2 -3 -3 -3 1 0 3 1 2 1 2 4 7 9 10 10 10 10 8 9
-27 -28 -24 -7 -8 -4 -4 -1 1 3 3 -9 -6 -4 -6 -10 -11 -14 -7 -5 -4 -3 -3 -3 -2 -3 -2 -2 -1 -2 0 1 -0 1 0 1 4 6 10 9 7 8 6 10 9
-14 -26 -27 -21 -5 -6 -3 -3 2 1 -4 -2 1 -0 -7 -7 -3 -3 -5 -7 -4 -3 -2 -2 -2 -1 -2 -2 1 0 0 -0 0 -1 0 0 2 6 9 10 8 9 9 10 9
-8 -15 -24 -25 -14 -4 -8 -2 -3 -2 3 0 -1 -2 -6 -7 -5 -3 -4 -5 -4 -3 -1 -2 0 1 -1 -2 -3 -1 -0 1 -1 -2 -1 0 2 6 8 9 10 9 8 7 9
1 -3 -7 -22 -13 -4 3 5 5 2 4 -1 -5 -2 -2 0 1 -1 -2 -4 -4 -2 -0 -1 1 -2 -3 -2 -0 0 1 0 -1 -2 -0 -0 0 2 6 8 9 9 9 8 7
2 3 -1 -9 -16 -0 -1 2 5 3 5 4 -0 -3 -6 -5 -2 -3 -2 -5 -3 -1 0 1 -1 -1 0 1 1 1 1 1 0 -1 -1 -0 -0 1 3 6 8 9 9 9 8
1 2 2 -3 -9 -1 -1 4 3 3 4 -1 0 -0 -3 -5 -1 -6 -2 -5 -2 -1 0 -0 -2 -0 1 1 1 2 -0 -0 1 0 -0 -3 0 -2 1 5 6 8 9 9 9
1 1 2 1 5 4 3 4 4 5 -3 -6 3 2 0 -2 -5 -2 -3 -3 -0 -1 -1 -1 1 1 1 1 -0 1 -0 1 1 0 -0 0 -1 -2 1 3 4 5 7 8 7
1 1 2 2 3 1 4 4 5 7 5 -2 3 3 3 1 -5 -2 -3 -4 -3 -0 0 -2 -2 -0 0 -1 -1 -0 1 0 1 2 4 1 0 -0 -1 1 2 2 5 7 6
-0 1 2 2 -1 1 6 6 8 7 0 -2 4 2 2 0 -4 -3 -2 -1 -0 1 2 -1 -1 -2 -2 -0 -1 -0 1 3 4 4 4 2 2 1 -0 -2 -2 -0 3 3 4
-1 -0 1 2 3 3 3 6 9 4 3 0 -1 2 0 -3 -4 -3 -2 -1 -4 -3 -0 0 -0 -1 -2 -1 -0 1 1 5 2 3 1 1 3 -1 -1 -2 -1 0 1 0 3
-0 -1 0 1 1 4 6 7 4 4 2 0 -3 3 2 -3 -3 -3 -1 -1 -3 -3 -1 1 -1 -1 -0 -0 -1 2 3 0 4 3 5 2 -0 -4 -3 -1 1 2 4 1 1
-1 -0 -1 1 1 4 6 4 4 2 2 3 4 -0 3 -1 -2 -2 -1 -3 -3 -4 -4 -1 -0 1 1 0 1 1 1 4 4 4 4 0 -0 -1 -2 -2 0 2 4 3 1
-1 0 -1 0 2 4 5 4 2 2 2 3 6 5 -0 -0 -1 -1 -1 -4 -4 -3 -4 -1 -0 -1 1 2 2 3 3 2 2 2 4 4 1 -1 -2 -2 0 1 1 1 2
0 0 -1 -1 3 3 3 2 0 1 2 3 2 4 5 -1 0 -0 -1 -2 -5 -4 -2 -0 1 2 1 -1 -1 -0 1 2 6 3 3 3 2 -3 -2 -2 -2 0 0 -0 -1
0 0 -0 -0 2 2 1 2 1 1 2 2 3 3 4 3 -1 0 -1 -3 -4 -2 -0 1 1 1 -1 -1 1 2 1 1 2 3 4 7 3 -3 -3 -3 -3 -2 -1 -0 1
0 1 2 2 0 0 2 2 3 1 2 1 2 2 2 3 2 -1 -0 -1 -3 -3 -3 -2 1 1 0 -1 0 3 2 1 2 5 4 3 2 -1 -2 -3 -3 -3 -4 -4 -2
0 1 1 2 1 0 0 1 1 2 1 2 3 3 4 3 3 1 1 3 1 1 0 1 2 1 -1 -3 -1 1 1 2 2 2 4 2 0 -1 -2 -2 -3 -4 -4 -5 -5
0 1 -1 1 -0 0 1 2 2 1 1 2 3 2 2 4 3 2 2 3 2 2 2 1 2 1 1 1 -0 1 -1 0 1 -0 -0 -0 0 -2 -3 -3 -4 -4 -3 -4 -4
-0 -1 -0 -0 1 0 -0 0 2 1 1 -0 1 2 3 1 1 1 1 0 1 1 2 2 3 3 3 1 1 4 2 1 0 0 0 2 -0 -2 -3 -3 -1 0 0 0 0

GFSSW_850_dewp_075.txt.gz
Dewpoint
6 5 4 6 7 7 6 6 5 4 1 -2 -6 -9 -9 -10 -12 -4 -1 -2 -6 -10 -6 -2 -3 -4 -7 -9 -11 -9 -8 -8 -10 -9 1 -4 1 6 7 5 5 8 9 13 13
3 2 0 1 3 3 4 6 6 5 5 2 -1 -6 -9 -10 -11 -2 -3 -7 -8 -14 -7 -4 -5 -5 -6 -9 -8 -8 -6 -8 -11 -10 -9 -7 -1 3 3 4 4 8 10 13 13
-11 -8 -4 -8 -2 2 -0 2 4 4 5 5 2 -2 -8 -10 0 -3 -4 -5 -7 -9 -2 -5 -7 -5 -6 -6 -7 -8 -7 -8 -10 -7 -5 -5 -1 2 2 1 4 4 8 12 13
-25 -24 -20 -17 -8 1 1 0 0 -1 2 4 3 2 -4 -8 -4 -1 -5 -4 -5 -6 -2 -6 -7 -7 -6 -6 -7 -7 -9 -8 -7 -5 -1 -1 -0 -0 1 3 6 6 8 12 13
-26 -27 -27 -24 -17 -7 -4 -2 0 -2 -5 2 3 3 -1 -3 -4 -6 -4 -4 -4 -6 -3 -6 -7 -6 -5 -6 -6 -6 -9 -7 -2 -2 1 0 -0 1 1 6 9 8 10 13 12
-24 -25 -28 -28 -27 -20 -11 -9 -7 -6 -6 1 1 3 4 -2 -6 -6 -8 -4 -1 -2 -4 -5 -4 -4 -4 -5 -5 -4 -4 -3 -1 -1 1 -0 -1 0 6 8 9 10 11 11 12
-18 -24 -25 -28 -28 -28 -23 -15 -16 -13 -9 -5 -3 3 3 -1 -6 -6 -7 -1 -1 -3 -4 -5 -4 -4 -4 -4 -4 -2 -1 -2 -2 -2 -1 -1 3 6 4 5 8 9 10 10 11
-6 -14 -19 -26 -27 -30 -31 -32 -24 -17 -17 -8 -5 3 2 -5 -5 -6 -6 -1 -1 -2 -2 -2 -2 -3 -3 -4 -4 -1 -2 0 6 1 -2 -2 7 6 5 4 5 8 9 10 11
1 -1 -12 -19 -25 -29 -32 -33 -29 -26 -20 -11 -1 5 -2 -5 -5 -7 -8 -4 -1 -1 -2 -1 -1 -2 -3 -4 -3 -2 0 1 -1 -5 -3 -2 -1 2 4 3 4 5 6 8 11
2 2 0 -8 -21 -25 -31 -33 -28 -11 -5 -3 3 2 -3 -7 -6 -7 -8 -6 -3 -2 -1 -1 -2 -2 -2 -3 -1 -1 1 -4 -5 -1 -4 -4 -4 -2 3 2 2 4 6 4 5
1 2 2 1 -10 -22 -28 -11 1 4 5 -2 -1 -4 -5 -6 -4 -4 -7 -6 -3 -2 -1 -2 -1 -1 -3 -4 -5 -4 -4 -4 -5 -4 -4 -4 -4 -4 2 3 4 3 6 6 5
0 1 2 2 -0 -12 -19 -0 -1 4 -0 -5 -4 -3 -1 -1 -1 -4 -4 -4 -4 -2 -3 -2 -1 -4 -4 -6 -5 -4 -3 -3 -4 -5 -3 -3 -3 -4 -0 2 4 4 3 5 5
-3 0 1 1 1 -8 -5 0 2 4 2 -4 -5 -4 -6 -4 -1 -5 -5 -5 -4 -3 -3 -2 -3 -5 -3 -4 -3 -2 -2 -1 -1 -3 -3 -3 -3 -4 -3 1 3 4 3 5 5
-5 -2 0 1 -4 1 1 2 4 6 1 -9 -1 -0 -2 -5 -4 -6 -4 -6 -6 -4 -4 -3 -6 -3 -3 -3 -3 -1 -3 -2 -2 -1 3 -3 0 0 -4 -1 2 3 4 3 5
-2 -5 -2 0 3 3 5 6 7 6 -6 -8 -3 -2 -3 -4 -11 -7 -7 -6 -6 -5 -5 -3 -5 -3 -2 -3 -4 -1 -2 -2 -1 -1 -2 -3 -5 -4 -7 -5 -2 1 3 4 4
-1 -4 -5 0 0 1 5 7 8 2 -5 -8 -2 -1 0 -2 -5 -8 -8 -5 -8 -6 -6 -5 -6 -5 -4 -4 -3 -3 -1 -1 -1 0 3 -2 -3 -3 -6 -8 -5 -5 0 3 4
-0 -2 -6 -1 1 2 3 5 2 -4 -12 -9 -3 -0 0 -1 -3 -6 -6 -3 -3 -2 -1 -4 -4 -4 -4 -1 -2 -2 0 4 4 3 3 -0 -2 -5 -3 -7 -6 -6 -4 -1 2
-1 -1 -3 -2 -0 4 4 5 -2 -10 -9 -5 -3 1 1 -2 -3 -4 -5 -3 -5 -5 -3 -2 -1 -3 -4 -2 -1 -1 -0 3 6 4 2 0 -2 -5 -7 -7 -7 -6 -5 -3 -1
-1 0 -0 -0 -2 2 3 6 -2 -9 -13 -10 -4 0 2 1 -3 -4 -4 -4 -5 -5 -2 -2 -3 -6 -5 -4 -3 -1 0 -2 2 1 2 -1 -4 -6 -7 -8 -8 -6 -3 -2 0
-1 0 0 -0 0 2 3 3 -4 -10 -14 -9 -5 -5 -0 2 -1 -3 -4 -6 -5 -6 -6 -5 -2 -6 -4 -5 -4 -1 -1 2 0 3 6 -1 -2 -4 -6 -7 -5 -6 -6 -1 1
1 1 0 0 1 2 3 2 -1 -8 -13 -9 -4 -4 -4 2 -1 -2 -3 -6 -6 -6 -6 -5 -3 -3 -3 -1 -2 -1 0 -0 -1 2 4 3 -2 -3 -6 -7 -6 -6 -6 -5 -1
1 1 -1 1 1 1 2 -1 -3 -5 -7 -8 -6 -3 -4 -3 1 -1 -2 -5 -6 -6 -3 -4 -3 -1 -2 -4 -5 -4 -2 -2 2 1 0 1 1 -5 -6 -6 -6 -6 -6 -5 -3
0 0 1 -0 2 1 -1 -2 -3 -4 -6 -5 -2 -1 1 0 2 -0 -2 -5 -6 -5 -3 -4 -2 0 -1 -3 -2 -1 -2 -2 -1 -1 1 8 3 -7 -6 -5 -5 -5 -6 -6 -3
-0 1 1 1 -2 -2 -3 -3 -2 -4 -4 -8 -3 -4 -1 2 2 1 0 -1 -1 -5 -5 -2 -3 -1 1 -2 -3 -1 -4 -4 -2 5 2 0 -3 -6 -7 -5 -5 -5 -6 -6 -6
-0 0 -2 1 1 -1 -4 -5 -3 -3 -5 -5 -5 -3 -1 -0 1 -0 1 0 -1 -2 -2 -2 -1 -3 -4 -5 -6 -6 -5 -5 -3 -2 1 -2 -4 -7 -8 -7 -7 -6 -5 -4 -5
-0 -2 -4 -5 -2 -1 -2 -3 -5 -5 -6 -4 -2 -4 -3 -3 0 -3 -1 2 0 0 -1 -2 1 -2 -2 -4 -5 -5 -7 -6 -6 -6 -5 -6 -5 -7 -7 -8 -7 -6 -5 -4 -3
-0 -3 -4 -4 -2 -0 -0 -2 -4 -7 -6 -7 -5 -3 -2 -3 1 1 1 1 1 2 2 0 2 0 2 -3 -3 2 -3 -5 -5 -6 -5 -2 -4 -6 -6 -7 -6 -7 -6 -2 -1

GFSSW_850_dewp_078.txt.gz
Dewpoint
2 3 3 2 1 -0 1 4 4 5 5 4 4 2 -1 -5 -8 -10 -1 -0 0 -8 -10 -2 -1 -3 -4 -6 -8 -11 -8 -6 -5 -8 -7 -3 -3 -3 3 3 5 8 10 11 13
-17 -15 -12 -7 -6 -6 -6 -2 -2 -1 3 2 2 0 -0 -2 -7 -8 -3 -4 -6 -10 -13 -3 -5 -5 -5 -7 -10 -9 -7 -5 -7 -11 -9 -8 -8 -5 0 4 6 5 10 13 13
-27 -27 -28 -24 -22 -20 -16 -5 -4 -4 -4 -3 -3 -2 -3 -1 -3 -0 -4 -5 -9 -10 -8 -3 -5 -7 -7 -6 -7 -9 -7 -9 -8 -8 -8 -6 0 -1 -1 6 5 6 6 13 13
-27 -27 -28 -30 -30 -30 -25 -19 -12 -10 -8 -6 -8 -8 -5 -1 -1 -2 -6 -7 -7 -8 -5 -3 -6 -7 -7 -6 -7 -7 -9 -10 -9 -8 -6 -5 1 -1 -1 6 7 7 11 12 12
-19 -25 -27 -28 -30 -31 -31 -27 -23 -19 -13 -13 -12 -6 -4 1 -2 -3 -4 -7 -6 -7 -2 -4 -7 -8 -7 -7 -7 -7 -7 -9 -9 -5 -6 -2 -3 -1 8 8 8 9 11 13 12
-6 -13 -21 -26 -27 -29 -32 -31 -29 -26 -23 -17 -16 -8 1 3 -5 -6 -4 -5 -5 -3 -3 -4 -7 -6 -5 -5 -6 -7 -6 -5 -6 -4 -2 -2 1 3 5 5 8 10 11 11 12
1 -5 -11 -18 -27 -27 -30 -32 -33 -32 -31 -25 -17 -7 2 -2 -9 -6 -4 -2 -1 -1 -3 -5 -5 -5 -6 -4 -5 -5 -4 -4 1 2 2 1 1 5 3 3 6 9 10 11 11
2 2 -1 -14 -21 -26 -29 -32 -33 -33 -33 -30 -18 -6 1 -11 -4 -4 -4 -4 -2 -3 -4 -4 -4 -4 -4 -4 -4 -3 -4 2 4 2 -0 -1 3 5 0 5 6 7 9 11 11
1 1 2 -1 -9 -22 -28 -31 -33 -34 -33 -25 -14 2 -0 -5 -5 -5 -6 -6 -2 -2 -2 -3 -3 -2 -3 -2 -2 -4 0 2 -0 1 1 -3 3 5 2 5 5 4 8 11 10
-2 -0 1 2 -1 -8 -24 -31 -33 -16 -2 1 3 -0 -2 -8 -7 -5 -6 -8 -4 -2 -2 -3 -3 -2 -2 -1 1 0 3 0 -0 -1 -2 -2 -5 6 6 1 5 4 8 9 8
-4 -1 1 2 1 -3 -17 -26 -5 4 6 3 -0 -3 -4 -5 -7 -5 -8 -8 -6 -3 -1 -3 -1 -1 -2 -3 -3 -4 -3 -4 -4 -4 -3 -2 -7 -4 0 1 3 4 3 6 8
-4 -5 -1 1 1 -2 -6 -3 -4 3 1 -6 -7 -7 -6 -4 -2 -4 -5 -9 -6 -2 -3 -2 0 -3 -4 -4 -4 -5 -4 -3 -4 -6 -3 -4 -5 -4 -0 1 3 5 4 5 8
-4 -5 -5 -1 -0 -3 -1 -7 -0 0 2 -4 -7 -9 -10 -8 -6 -3 -6 -9 -6 -3 -3 -0 -3 -3 -4 -3 -3 -4 -3 -2 -1 -4 -3 -2 -3 -4 -2 -1 4 3 6 5 6
-7 -3 -4 -5 -2 2 3 1 1 4 2 -11 -10 -5 -9 -8 -8 -8 -4 -6 -7 -5 -5 -4 -5 -4 -3 -2 -4 -1 -4 -3 -3 -2 0 2 3 -2 -2 0 1 4 3 5 5
-4 -4 -3 -6 -1 1 4 6 4 6 -3 -15 -10 -3 -3 -6 -8 -8 -7 -5 -3 -4 -4 -3 -4 -4 -3 -3 -4 -2 -3 -1 -2 -1 -1 1 2 -4 -3 -1 -0 2 4 4 5
-1 -5 -1 -3 -3 -6 1 5 5 5 -3 -10 -4 -3 -3 -3 -6 -8 -8 -6 -5 -4 -5 -5 -7 -6 -5 -5 -4 -4 -2 -1 -1 0 3 -0 -0 1 1 -2 -4 -0 2 3 4
-1 -2 -1 -0 -1 -0 2 3 4 -1 -15 -14 -4 -3 -3 -2 -4 -5 -6 -5 -1 -1 -2 -5 -6 -7 -7 -4 -4 -3 -0 4 7 7 5 0 1 0 -0 -3 -6 -5 -1 3 4
-4 -1 -1 1 -1 -1 1 5 4 -9 -11 -11 -8 -4 -1 -2 -2 -3 -4 -5 -4 -3 -3 -2 -1 -5 -6 -3 -1 -1 -0 5 8 11 8 5 2 -5 -5 -6 -6 -7 -7 -1 2
-3 -2 0 -0 -0 0 2 4 2 -6 -14 -11 -8 -4 1 -1 -3 -3 -3 -4 -5 -4 -2 -2 -2 -7 -6 -4 -3 -0 1 -1 3 2 8 5 3 -1 -6 -8 -8 -8 -7 -5 -4
0 0 1 0 0 1 2 2 -1 -3 -10 -11 -9 -4 0 1 1 -2 -3 -4 -5 -4 -5 -3 0 -5 -6 -5 -4 -2 -2 3 1 6 6 -0 -1 5 0 -4 -6 -6 -5 -3 1
0 1 1 0 -0 2 3 1 -3 -4 -5 -6 -7 -8 -7 -6 1 -1 -3 -4 -4 -4 -4 -3 -0 -2 -5 -3 -3 -2 -1 2 1 1 6 7 2 3 -0 -3 -5 -6 -5 -5 -4
0 1 1 0 1 1 2 -0 -4 -6 -7 -4 -4 -3 -7 -5 1 2 -1 -2 -4 -4 -3 -3 -1 1 -2 -4 -5 -4 -1 0 4 2 4 7 5 -3 -4 -4 -5 -6 -6 -6 -4
0 0 1 0 2 1 -2 -2 -3 -5 -7 -5 -3 -5 -5 -1 0 1 -0 -3 -4 -2 -2 -2 -0 3 0 -2 -3 -2 -3 -2 -1 0 3 7 3 -2 -5 -6 -5 -5 -6 -6 -6
-0 1 1 2 -1 -2 -2 -3 -2 -5 -5 -7 -4 -4 -1 4 5 1 1 -2 1 0 -1 1 -0 1 3 1 -2 -1 -3 -4 0 5 4 4 1 -3 -5 -4 -5 -5 -3 -2 -7
-0 1 -0 2 2 -0 -3 -5 -4 -4 -6 -5 -3 -2 -1 4 6 1 2 2 1 1 -0 1 3 0 -2 -4 -4 -3 -2 -3 -2 -3 0 0 -2 -3 -5 -7 -6 -5 -3 -4 -5
-1 -0 -2 -2 -1 1 -0 -1 -4 -7 -7 -5 -3 -3 -3 4 -1 -2 -1 5 4 3 4 0 2 1 2 -3 -3 -3 -4 -4 -4 -5 -6 -4 -3 -7 -8 -9 -5 -6 -7 -7 -5
-0 -1 -2 -1 1 1 0 -2 -4 -6 -8 -8 -7 -4 -1 1 1 1 -1 2 4 4 3 5 3 3 5 -0 -2 1 -2 -4 -6 -6 -5 -3 -4 -6 -5 -6 -6 -7 -5 -6 -6

GFSSW_850_dewp_081.txt.gz
Dewpoint
-26 -25 -25 -23 -18 -16 -14 -12 -14 -9 -4 -7 -7 -4 -4 -6 -9 -9 -10 -10 -1 -0 -7 -6 -3 -5 -4 -3 -6 -6 -8 -7 -7 -4 -7 -3 -0 -2 6 8 8 9 5 6 12
-28 -28 -30 -31 -30 -30 -30 -29 -27 -21 -12 -11 -10 -12 -15 -13 -13 -9 -3 -5 -4 -3 -9 -9 -2 -4 -3 -4 -5 -8 -7 -6 -7 -7 -6 -6 0 -2 5 7 6 7 4 9 12
-27 -27 -29 -31 -30 -31 -32 -32 -30 -29 -22 -18 -16 -17 -20 -18 -11 -1 -4 -5 -5 -10 -11 -5 -3 -4 -5 -7 -6 -6 -7 -8 -9 -9 -6 -6 -1 6 6 8 8 8 8 11 11
-15 -25 -26 -27 -29 -30 -31 -33 -33 -32 -26 -21 -20 -21 -22 -21 -2 -2 -3 -6 -8 -10 -10 -6 -3 -5 -6 -6 -7 -5 -7 -8 -7 -9 -5 -5 -1 6 8 9 9 11 11 12 11
-6 -15 -21 -25 -26 -29 -31 -31 -33 -33 -31 -27 -22 -18 -18 -8 -5 -17 -3 -4 -6 -7 -9 -7 -2 -5 -6 -7 -6 -4 -6 -6 -4 -2 -1 -1 3 4 4 4 9 10 10 12 12
-3 -4 -8 -15 -21 -26 -29 -31 -32 -34 -33 -32 -24 -18 -6 3 -17 -2 -2 -5 -6 -6 -6 -6 -3 -5 -6 -5 -5 -6 -5 -6 -3 -1 -2 1 2 2 2 5 9 10 11 11 11
-0 -0 -1 -5 -13 -19 -26 -30 -32 -33 -34 -32 -28 -13 -5 -24 -25 -7 -2 -3 -3 -3 -2 -4 -5 -5 -5 -3 -5 -4 -2 -3 -2 -1 -0 -0 3 4 2 3 8 10 10 10 11
-4 -0 1 0 -2 -13 -19 -27 -32 -32 -33 -33 -27 -9 -6 -32 -18 -20 -6 -5 -4 -1 -1 -2 -4 -2 -4 -4 -3 -2 -3 -1 2 0 1 0 3 4 3 6 8 9 11 11 10
-6 -5 -3 0 0 -6 -12 -24 -31 -31 -33 -31 -13 -4 1 -4 -5 -8 -7 -5 -5 -3 -2 -2 -3 -3 -2 -0 0 -1 0 0 3 1 2 3 5 4 3 3 6 9 11 10 9
-5 -5 -5 -3 -1 -2 -8 -24 -30 -30 -25 0 4 4 -1 -7 -6 -7 -5 -6 -5 -5 -2 -2 -3 -1 -1 0 3 1 2 3 4 1 2 2 3 5 3 4 8 10 9 10 9
-10 -6 -5 -5 -5 -3 -5 -17 -5 0 5 4 2 -5 -9 -5 -3 -5 -5 -6 -6 -8 -0 -1 -0 1 -0 -1 -1 -1 -1 2 2 -0 1 -0 1 6 5 6 8 9 10 9 9
-10 -9 -5 -6 -7 -7 -4 -8 -4 2 1 1 1 3 3 -2 -1 -3 -4 -6 -6 -5 -3 0 1 -1 -2 -2 -2 -2 -2 -2 -3 -3 -2 -2 -3 -0 4 5 5 5 6 8 9
-13 -10 -8 -6 -7 -2 2 3 3 3 2 0 -2 -5 -10 -14 -11 -11 -6 -4 -6 -5 -4 1 0 -2 -1 -1 -1 -2 -2 -2 -2 -2 -3 -1 0 -2 -0 4 4 4 6 7 6
-14 -8 -6 -5 -6 -0 3 4 4 4 6 -2 -6 -6 -6 -7 -8 -13 -16 -4 -6 -6 -5 -2 -2 -1 -1 -0 -2 -1 -3 -3 0 -1 1 -0 3 -0 1 4 5 3 6 8 8
-17 -3 -2 -4 -6 -8 -3 4 5 4 4 -10 -12 -7 -7 -8 -8 -8 -10 -7 -3 -6 -5 -3 -3 -1 -1 -2 -3 -1 -2 -0 0 1 1 1 4 1 -1 3 5 5 4 7 8
-12 -10 -1 -4 -6 -5 1 0 4 6 5 -8 -3 -2 -3 -9 -7 -7 -8 -8 -5 -5 -6 -4 -5 -5 -4 -4 -3 -3 -2 -0 0 1 4 2 3 3 0 2 1 4 6 5 7
-2 -9 -1 -2 -8 -1 -0 0 5 6 -11 -14 -6 -2 -1 -1 -6 -4 -5 -6 -4 -0 0 -2 -3 -5 -6 -3 -3 -2 -1 5 7 8 7 6 6 2 -0 -2 -1 5 4 6 6
-1 -2 -3 -2 -7 -2 -0 3 6 -1 -3 -11 -12 -6 -1 -2 -1 -2 -3 -3 -6 -3 -1 0 1 -4 -6 -4 -2 -2 -0 6 8 9 10 8 8 2 -1 -3 -5 -3 3 4 6
-1 -1 -3 -2 -4 -1 1 2 0 -1 -5 -7 -9 -10 -9 -1 -1 -2 -2 -2 -5 -5 0 -1 -1 -5 -6 -4 -2 0 2 0 7 8 9 8 4 0 -2 -4 -6 -7 -7 3 5
-1 0 0 -4 -2 0 2 -1 -2 -4 -5 -5 -2 -4 -3 -1 1 0 -0 -3 -3 -6 -4 -1 1 -3 -5 -5 -3 -2 -1 4 4 9 10 5 5 4 -0 -1 -4 -5 -1 -0 2
0 1 1 -2 -1 1 0 -1 -2 -5 -6 -4 -3 -2 -2 -0 1 6 4 -2 -4 -4 -5 -3 -0 -0 -2 -2 -1 -0 0 2 2 4 6 6 4 2 0 -2 -3 -4 -5 -4 -3
0 0 1 -2 1 1 0 -2 -4 -4 -5 -5 -5 -4 -2 -2 -1 -0 4 1 -4 -3 -3 -2 1 2 -0 -3 -4 -3 -1 1 7 5 6 6 5 -0 -2 -3 -3 -4 -5 -5 -5
-0 -0 1 0 1 1 -1 -2 -2 -2 -3 -4 -3 -4 -4 -3 1 1 4 0 -4 -2 -0 -2 2 4 2 -1 -2 -2 -2 -1 1 3 5 7 6 -1 -1 -3 -5 -5 -6 -6 -5
-0 0 1 1 1 -0 1 -1 -1 -3 -2 -3 -3 -5 -4 -3 -2 2 5 4 -1 0 -1 -1 1 1 3 1 0 0 -2 -2 0 4 4 5 3 0 -1 -3 -5 -5 -3 -4 -3
-0 -0 1 1 2 -0 -1 -2 -0 -1 -4 -4 -3 -3 -2 -2 0 2 5 5 2 1 2 1 4 1 1 -2 -1 -0 -1 -2 -1 1 3 3 2 0 -3 -4 -5 -4 -5 -3 -3
-1 -0 -0 -1 0 2 0 0 0 -2 -4 -4 -3 -4 -3 -1 -1 2 5 5 6 2 4 3 3 3 2 1 -1 -1 -1 -2 -2 -2 -3 -2 -1 -4 -5 -6 -5 -6 -3 -3 -3
0 -1 -1 -0 0 1 1 -1 -0 -2 -3 -6 -6 -5 -4 -4 -3 1 5 6 5 5 3 4 5 5 5 2 2 3 -0 -2 -1 -2 -2 -1 -3 -5 -5 -6 -6 -6 -6 -5 -6

GFSSW_850_dewp_084.txt.gz
Dewpoint
-29 -29 -28 -31 -30 -31 -32 -33 -33 -31 -31 -29 -23 -22 -23 -23 -18 -16 -14 -8 -10 -0 -2 -11 -8 -5 -4 -3 -4 -4 -5 -4 -5 -8 -6 -6 -2 5 5 6 7 8 4 3 4
-25 -27 -28 -27 -30 -30 -31 -32 -33 -33 -32 -31 -29 -27 -29 -27 -25 -18 -3 -5 -6 -4 -3 -10 -7 -2 -2 -3 -4 -6 -6 -5 -8 -9 -6 -6 1 3 6 7 6 7 7 6 10
-19 -22 -25 -27 -26 -30 -31 -31 -33 -33 -33 -31 -28 -30 -31 -28 -22 -6 -5 -6 -4 -4 -7 -12 -5 -4 -3 -5 -6 -6 -5 -6 -7 -9 -7 -5 5 6 6 9 9 9 8 8 12
-14 -21 -20 -22 -23 -26 -29 -31 -31 -32 -33 -32 -31 -32 -32 -28 -15 -1 -4 -6 -5 -7 -10 -12 -5 -3 -6 -6 -7 -6 -7 -6 -7 -3 -2 -4 5 6 8 9 10 10 11 13 13
-11 -10 -18 -22 -22 -23 -25 -28 -31 -31 -32 -32 -31 -31 -30 -11 -14 -24 -14 -7 -4 -6 -7 -11 -7 -3 -3 -6 -7 -5 -5 -5 -4 -2 -1 0 3 3 8 11 10 10 10 12 12
-6 -7 -9 -15 -22 -23 -25 -25 -29 -31 -31 -31 -30 -29 -21 2 -21 -6 -4 -3 -4 -5 -6 -6 -9 -4 -3 -5 -4 -5 -3 -4 -4 -3 -2 0 2 3 3 9 11 10 9 9 10
-6 -7 -8 -10 -14 -19 -26 -27 -27 -29 -30 -29 -28 -23 -19 -30 -29 -29 -6 -2 -3 -3 -4 -7 -7 -3 -4 -3 -4 -3 -2 -4 -4 -3 -0 0 2 2 2 7 10 10 9 10 10
-5 -5 -7 -7 -10 -15 -18 -26 -30 -28 -28 -28 -27 -12 -11 -31 -29 -26 -25 -15 -3 -3 -2 -6 -3 -1 -2 -3 -3 -2 -3 -2 -3 -0 -0 -1 2 2 2 4 10 11 10 10 9
-8 -9 -7 -8 -9 -11 -15 -20 -30 -29 -28 -25 -20 -3 -6 -12 -7 -7 -6 -12 -5 -4 -4 -2 -1 -1 -2 -1 1 -0 1 0 -1 -0 1 1 1 2 2 6 9 10 10 10 9
-9 -10 -11 -10 -10 -9 -12 -19 -30 -30 -24 -16 4 4 -7 -12 -6 -3 -6 -7 -6 -5 -5 -4 -2 -2 -1 0 3 2 1 1 3 -0 2 2 2 1 3 5 8 10 10 9 9
-14 -13 -12 -16 -15 -8 -9 -17 -2 2 2 4 4 -0 -8 -7 -6 -4 -3 -5 -6 -6 -1 -1 0 1 -1 -1 -1 -0 1 1 -1 -1 1 2 2 3 4 8 9 10 9 9 9
-19 -15 -12 -16 -18 -9 1 2 2 3 3 0 -3 -1 1 -7 4 -6 -3 -4 -5 -4 -3 -0 2 -1 -2 -1 -1 -0 1 0 -2 -4 -0 -1 -1 1 6 7 9 9 9 9 9
-18 -18 -7 -15 -18 -6 0 2 3 3 4 1 -3 -4 -7 -4 1 -2 -5 -5 -5 -4 -4 -2 0 -1 -1 -0 0 0 0 -0 -2 -3 -3 -1 -1 1 4 6 7 7 6 8 8
-18 -18 -11 -8 -12 -6 -3 2 3 3 5 1 -0 -5 -4 -6 -6 -14 -18 -12 -3 -4 -5 -5 -5 -1 0 0 -0 2 -2 -2 -1 -0 1 -1 3 0 4 6 6 5 6 7 7
-17 -17 -15 -3 -11 -11 -4 -6 0 5 -8 -12 -7 -11 -7 -7 -9 -9 -15 -14 -4 -5 -5 -4 -3 -1 1 -0 -1 1 -1 -1 0 1 1 1 3 1 4 7 5 5 6 6 5
-14 -10 -7 -4 -6 -9 -1 -5 3 4 2 -4 -7 -5 -5 -6 -8 -7 -10 -9 -10 -3 -4 -6 -7 -4 -2 -2 -2 -2 -2 0 2 2 4 6 5 3 2 3 6 4 6 7 6
-7 -3 -1 -5 -7 -6 -1 -2 4 4 -5 -11 -8 -3 -2 -5 -7 -7 -6 -7 -4 -0 0 -3 -5 -6 -5 -3 -4 -3 -1 3 5 6 6 7 7 4 1 -1 4 5 4 7 7
-2 -2 -2 -5 -5 -3 -0 1 4 -0 -3 -7 -6 -6 -6 -10 -3 -6 -6 -3 -7 -5 -0 0 1 -3 -4 -3 -2 -1 -0 5 6 8 8 7 6 4 -0 -2 -2 4 5 5 8
-1 -2 -1 -3 -5 -1 -0 1 -4 -5 -4 -4 -5 -5 -7 -4 -1 2 -1 -4 -4 -7 0 1 0 -4 -5 -5 -4 -1 1 0 6 8 8 7 5 1 -1 -3 -5 1 4 6 5
-0 -0 -1 -4 -5 -0 -1 -3 -4 -9 -9 -6 -3 -3 -2 -2 -1 3 4 -0 -2 -4 -6 -1 1 -3 -4 -5 -4 -1 -0 3 5 9 9 7 6 5 -0 -3 -3 -4 4 5 5
-1 0 0 -3 -3 0 -1 -3 -5 -8 -10 -5 -6 -4 -5 -4 -2 -0 4 2 -0 -1 -4 -4 0 0 -2 -1 -2 -0 2 2 3 6 8 7 4 0 -1 -2 -3 -3 -1 3 5
-0 0 0 -2 0 -0 0 -3 -5 -5 -5 -5 -4 -5 -4 -6 -3 -3 -1 0 -2 1 1 -4 -1 1 0 -3 -4 -3 -1 2 6 6 6 5 4 -1 -2 -2 -3 -5 -4 0 1
0 -0 0 1 0 0 -1 -1 -2 -3 -3 -2 -3 -3 -4 -2 -1 -3 -0 -2 2 4 0 -2 -0 4 1 -1 -2 -1 -1 -0 3 5 6 7 5 0 -1 -1 -2 -3 -5 -5 -2
-1 -0 0 1 0 -2 -1 0 0 -3 -2 -3 -3 -3 -1 -1 -3 -0 -1 -0 2 2 4 0 2 -1 2 0 -0 1 0 -1 1 4 4 5 2 0 -1 -1 -2 -3 -5 -5 -5
-1 -1 0 0 1 -0 -1 -2 -0 -1 -3 -3 -1 -1 -2 0 -1 -1 -2 4 2 3 4 3 3 2 0 -0 -0 -0 0 -0 0 1 2 1 2 1 0 -1 -2 -5 -5 -3 -4
-1 0 0 -1 -2 2 -1 -0 -1 -2 -2 -2 -1 -3 -3 -1 -2 -3 -0 5 4 4 5 4 3 1 3 1 0 3 1 -1 -0 -1 -0 1 1 -1 -3 -2 -5 -5 -4 -4 -4
-0 -0 -1 -2 -1 -0 0 0 -1 -2 -2 -3 -3 -3 -2 -3 -5 -5 -3 3 5 5 5 6 5 3 4 2 2 4 3 1 1 -0 -1 0 -1 -4 -4 -5 -6 -5 -5 -5 -4

GFSSW_850_dewp_087.txt.gz
Dewpoint
-23 -25 -26 -28 -30 -31 -31 -32 -32 -33 -33 -33 -33 -33 -32 -32 -26 -22 -17 -6 -7 -9 -4 -6 -8 -5 -8 -5 -3 -5 -4 -3 -4 -6 -8 -9 -1 5 6 5 6 7 6 4 4
-13 -23 -24 -25 -25 -27 -29 -30 -32 -32 -32 -33 -34 -34 -33 -33 -30 -23 -12 -4 -7 -2 -1 -5 -9 -2 -3 -3 -3 -5 -5 -4 -7 -8 -7 -7 -1 4 7 7 7 6 7 6 7
-13 -13 -23 -24 -26 -26 -27 -27 -29 -31 -32 -32 -33 -34 -34 -33 -27 -11 -5 -5 -4 -4 -4 -7 -11 -3 -3 -3 -4 -6 -3 -6 -7 -7 -7 -8 4 5 6 8 9 8 9 8 9
-12 -12 -17 -25 -27 -28 -27 -26 -26 -28 -30 -31 -31 -33 -34 -33 -21 -2 -3 -6 -4 -5 -6 -9 -11 -3 -5 -5 -7 -6 -7 -7 -7 -5 -2 -3 3 6 7 7 9 10 8 9 12
-8 -9 -11 -16 -21 -26 -28 -30 -28 -26 -27 -28 -29 -31 -33 -20 -24 -26 -19 -6 -9 -4 -6 -9 -9 -3 -3 -5 -6 -6 -6 -5 -4 -4 -1 1 3 3 8 10 10 9 9 12 11
-5 -7 -7 -9 -14 -17 -19 -24 -28 -29 -26 -24 -25 -29 -22 -3 -21 -23 -6 -8 -14 -4 -5 -6 -9 -7 -3 -3 -4 -4 -4 -3 -4 -4 -3 0 2 4 5 10 10 9 9 10 11
-10 -9 -9 -10 -12 -15 -15 -17 -22 -25 -28 -24 -22 -24 -19 -30 -27 -29 -30 -22 -2 -2 -4 -4 -5 -5 -3 -3 -3 -3 -2 -3 -4 -4 -2 -0 1 3 2 7 11 10 10 10 11
-7 -12 -14 -15 -15 -14 -15 -17 -20 -22 -25 -28 -21 -18 -16 -29 -30 -25 -29 -30 -12 -2 -3 -3 -2 -3 -2 -2 -2 -2 -2 -0 -3 -2 -1 -1 1 1 3 10 11 10 10 10 11
-10 -14 -16 -18 -18 -17 -17 -19 -22 -23 -25 -27 -20 -16 -17 -21 -16 -8 -3 -5 -10 -20 -3 -4 -1 0 -1 -1 0 -0 1 0 -0 -2 -1 0 1 1 4 8 11 10 10 10 10
-20 -20 -17 -19 -18 -19 -19 -17 -11 -6 -13 -15 -1 -4 -26 -26 -12 -5 -3 -3 -4 -9 -4 -3 -2 -1 -1 -0 3 2 2 1 1 -0 1 2 2 2 4 7 9 10 10 9 9
-19 -19 -20 -19 -19 -19 -11 -12 -6 -3 -1 2 3 1 -12 -4 -6 -5 -3 -1 -4 -4 -2 -2 -0 1 0 -1 -1 -1 1 1 -1 -2 0 0 2 0 3 5 9 10 9 9 8
-17 -18 -19 -20 -20 -20 -3 2 2 2 2 -1 -4 -2 -1 -2 1 -11 -5 -2 -4 -3 -3 -1 2 -1 -2 -2 -1 -0 1 1 -1 -2 -1 -0 1 -2 4 6 8 9 9 7 8
-16 -16 -18 -20 -20 -16 -10 1 1 0 3 2 -4 -3 -6 -7 -2 -7 -8 -4 -4 -3 -3 -2 -2 -2 -0 -0 0 0 1 1 1 -1 -2 -1 -0 -1 3 6 8 9 8 5 4
-15 -16 -17 -19 -16 -13 -8 0 -2 1 4 1 2 -4 -5 -5 -3 -9 -5 -4 -4 -3 -4 -4 -5 -4 0 0 0 2 -0 0 1 1 2 -1 3 -0 1 6 8 8 8 6 4
-14 -14 -15 -17 -15 -14 -15 -11 -3 4 -5 -12 -5 -6 -4 -7 -10 -8 -7 -4 -6 -3 -5 -3 -4 -4 -3 0 -0 1 -0 1 1 1 1 1 3 1 5 7 7 6 7 6 5
-14 -13 -7 -11 -15 -12 -12 -12 1 4 -1 -6 -7 -3 -4 -5 -6 -8 -9 -10 -12 -8 -3 -4 -6 -5 -5 -4 -2 -1 -0 -0 2 2 4 4 4 4 2 4 5 5 5 6 4
-5 -8 -3 -5 -9 -9 -6 -6 4 4 -3 -7 -4 -5 -6 -5 -5 -7 -8 -8 -6 -6 -7 -4 -3 -5 -5 -2 -3 -1 1 4 4 4 5 5 8 5 1 -0 2 4 5 5 4
-3 -3 -3 -2 -3 -6 -3 -2 3 -2 -1 -5 -5 -6 -7 -3 -2 -0 -5 -6 -8 -5 -2 -8 -4 -3 -6 -4 -2 -1 -0 5 5 7 5 6 7 4 1 -0 -1 0 2 4 6
-4 -3 -2 -4 -2 -3 -2 -1 -4 -4 -4 -6 -7 -3 -3 -3 -2 0 2 1 -5 -7 -1 1 -0 -4 -5 -5 -5 -2 1 -1 3 7 8 6 5 2 0 -0 -3 3 4 4 5
-1 -1 -1 -4 -2 -1 -1 -4 -5 -8 -9 -8 -6 -4 -2 -4 -4 -0 2 2 1 -1 -3 -3 0 -2 -4 -5 -4 -3 -1 3 5 8 9 6 6 5 2 -2 -3 1 5 4 4
-1 -1 -2 -3 -2 -1 -1 -4 -6 -9 -9 -7 -5 -7 -7 -6 -3 -1 2 1 0 0 1 3 -1 -1 -2 -2 -2 -0 -1 2 2 5 5 7 5 1 2 0 -3 -4 2 3 4
-1 -0 -2 -2 -0 -2 -1 -5 -6 -5 -6 -3 -4 -5 -4 -4 -4 -4 -2 -1 -3 1 3 3 0 -0 -2 -3 -4 -3 -2 0 4 6 5 5 4 -2 -0 -2 -3 -3 -4 -1 4
-1 -1 -1 -1 -1 -1 -3 -3 -4 -5 -5 -3 -2 -2 -4 -2 -1 -2 -3 -6 -5 3 4 4 6 3 1 -2 -3 -2 -1 -0 3 4 6 6 5 -1 -1 -1 -2 -3 -4 -4 -2
-1 -0 -1 0 0 -1 -2 -2 -1 -1 -3 -4 -3 -3 -2 -2 -3 -0 -1 -2 -2 2 2 3 7 6 2 0 -2 1 -1 -0 3 5 4 5 3 1 -0 -0 -2 -3 -3 -4 -5
-0 -1 -0 -0 0 0 -3 -2 -1 -1 -1 -1 -0 -1 -1 -0 -1 -1 -2 -3 -2 4 2 4 7 5 2 -3 -3 1 0 0 1 2 4 2 3 1 -1 -1 -2 -3 -3 -3 -4
-1 -0 -0 -1 -1 1 1 0 -2 -2 -2 -1 -1 -3 -1 0 -2 -2 -4 -4 2 4 4 4 7 6 3 1 -2 -2 -2 1 2 1 0 0 1 -1 -2 -2 -2 -3 -3 -4 -5
-1 -0 -0 0 -1 -0 0 -0 -1 -3 -3 -2 -3 -2 -1 -2 -3 -4 -4 -4 -1 2 5 4 6 6 5 2 2 4 2 0 -1 0 -1 1 1 -1 -1 -2 -2 -3 -4 -4 -5

GFSSW_850_dewp_090.txt.gz
Dewpoint
-23 -23 -24 -24 -24 -24 -25 -26 -27 -29 -32 -32 -33 -34 -35 -34 -33 -30 -24 -20 -8 -8 -6 -6 -7 -8 -9 -7 -4 -5 -4 -3 -4 -5 -7 -8 -4 2 5 6 6 6 6 5 4
-24 -24 -27 -27 -28 -27 -27 -26 -25 -25 -27 -30 -32 -33 -34 -34 -33 -26 -7 -13 -5 -7 -6 -1 -8 -3 -2 -2 -3 -5 -3 -4 -6 -7 -7 -6 -6 1 6 7 6 6 6 6 6
-16 -19 -21 -24 -26 -27 -29 -29 -29 -28 -26 -27 -28 -32 -33 -34 -29 -16 -4 -3 -4 -1 -1 -3 -7 -2 -3 -3 -4 -5 -3 -5 -6 -7 -6 -7 -2 2 6 6 6 7 6 9 8
-9 -9 -12 -13 -16 -17 -18 -22 -27 -30 -29 -28 -26 -29 -31 -33 -23 -4 -3 -3 -2 -2 -3 -5 -8 -4 -3 -4 -6 -6 -6 -7 -7 -5 -3 -3 -1 6 6 4 6 8 9 9 9
-8 -9 -10 -11 -12 -15 -17 -17 -18 -22 -24 -28 -28 -26 -28 -25 -29 -25 -25 -11 -5 -4 -4 -6 -9 -5 -3 -4 -6 -6 -6 -6 -4 -4 -4 -2 3 5 6 6 9 9 9 10 10
-9 -13 -14 -15 -15 -16 -17 -17 -18 -17 -19 -21 -27 -27 -19 -15 -19 -22 -25 -8 -5 -12 -9 -6 -9 -9 -4 -4 -4 -5 -5 -4 -4 -4 -4 0 1 3 2 6 9 9 9 11 10
-4 -11 -15 -16 -17 -19 -20 -20 -20 -19 -19 -21 -21 -21 -12 -30 -28 -25 -23 -26 -28 -3 -4 -5 -6 -3 -3 -3 -3 -3 -2 -3 -4 -5 -4 -2 1 4 1 8 9 10 10 11 10
-11 -16 -18 -17 -18 -19 -20 -21 -21 -22 -22 -23 -21 -16 -9 -32 -31 -31 -29 -28 -28 -12 -2 -3 -3 -2 -4 -4 -2 -1 -2 -1 -4 -3 -3 -1 1 -1 -0 7 11 11 10 10 10
-17 -19 -20 -20 -20 -20 -20 -22 -18 -7 -9 -20 -17 -16 -15 -25 -26 -10 -2 -3 -3 -12 -17 -2 -3 -2 -1 -0 1 -0 1 -0 -1 -3 -1 -0 1 -1 1 8 11 11 10 9 9
-18 -19 -19 -20 -20 -20 -21 -21 -15 -0 -1 -10 -2 -7 -25 -21 -12 -3 -2 -1 -2 -5 -11 -5 -1 1 0 1 3 2 1 1 1 -1 -1 1 2 -1 1 5 10 11 10 9 9
-17 -17 -18 -19 -20 -20 -21 -18 -8 -2 -5 -0 2 2 -9 -7 -6 -3 -0 -3 -3 -4 -3 -2 -0 1 -0 0 -1 -1 1 1 -0 -2 -1 -1 -1 -2 -1 4 6 10 10 9 8
-15 -15 -16 -17 -18 -20 -15 0 0 0 1 -1 -4 -5 -6 -7 -0 -9 -5 -1 -4 -3 -3 -0 1 -2 -2 -1 -0 -0 1 1 -1 -3 -1 -1 -1 -2 0 3 4 7 10 9 8
-12 -14 -16 -16 -17 -19 -13 -2 -1 -1 2 1 0 0 -3 -6 -2 -5 -10 -5 -3 -3 -2 -2 -2 -2 -1 -0 0 0 1 1 0 -2 -1 -1 0 -1 -0 4 6 6 8 8 7
-9 -13 -15 -16 -17 -13 -12 -4 -8 -1 3 -0 2 -2 -3 -3 -3 -12 -6 -9 -4 -2 -3 -3 -4 -4 -0 1 0 2 -1 -1 -0 1 3 -1 4 -0 -2 3 7 7 8 8 7
-5 -10 -14 -15 -16 -17 -11 -14 -9 3 -4 -11 -5 -4 -4 -4 -8 -7 -6 -5 -4 -2 -4 -2 -4 -3 -3 0 -0 1 -1 1 1 2 1 1 3 1 3 3 3 5 6 8 7
-4 -8 -11 -11 -13 -14 -12 -14 -1 3 2 -5 -5 -4 -6 -4 -6 -6 -5 -5 -6 -4 -6 -4 -6 -5 -4 -5 -1 -1 0 0 2 2 5 2 3 3 1 2 2 3 5 5 7
-5 -3 -3 -6 -9 -9 -7 -10 2 3 -4 -4 -4 -5 -5 -4 -3 -2 -8 -6 -9 -7 -5 -9 -6 -4 -5 -4 -2 -1 1 4 4 5 6 2 7 4 -0 -1 1 1 3 3 5
-4 -4 -3 -4 -6 -4 -5 -5 2 -3 -1 -6 -9 -5 -5 -6 -4 -2 0 -6 -8 -5 -5 -10 -11 -8 -4 -3 -1 0 1 5 6 5 4 6 8 4 1 0 -0 -1 -0 2 4
-5 -4 -3 -7 -4 -2 -2 -4 -6 -3 -7 -8 -11 -4 -3 -5 -9 -4 0 3 1 0 -1 -0 -6 -6 -6 -5 -5 -2 2 -1 2 5 7 5 4 1 0 -1 -1 -2 3 3 3
-3 -3 -2 -6 -2 -1 -3 -5 -8 -8 -10 -9 -9 -8 -5 -10 -12 -8 -4 1 0 1 0 2 2 -3 -4 -5 -5 -4 -3 1 4 7 8 6 6 3 0 -0 -2 -2 4 3 3
-3 -1 -3 -3 -2 -1 -2 -4 -6 -10 -7 -9 -4 -9 -8 -7 -7 -4 -2 -2 -0 1 2 4 3 -0 -2 -2 -2 -1 -1 1 1 4 5 5 4 2 0 -1 -0 -3 -2 3 3
-2 -1 -2 -3 -1 -1 -2 -4 -6 -6 -6 -4 -5 -6 -7 -5 -4 -5 -3 -4 -9 -8 -0 4 6 4 1 -3 -4 -3 -2 -2 2 3 5 4 2 -2 -1 -1 -1 -3 -4 -3 0
-2 -2 -2 -1 -1 -1 -4 -5 -5 -5 -6 -4 -2 -3 -3 -1 -1 -2 -4 -5 -2 1 3 2 6 6 2 -1 -3 -3 -3 -1 2 3 2 5 3 -1 -1 -1 -2 -2 -3 -3 -2
-3 -1 -1 -1 -0 -3 -2 -3 -3 -4 -4 -5 -3 -4 -3 -2 -3 -1 -1 -3 -4 -5 -1 1 4 4 7 6 5 4 -2 -2 1 4 3 3 2 0 -1 -1 -2 -2 -3 -4 -4
-2 -1 -2 -2 -1 -1 -2 -3 -3 -3 -2 -2 -2 -3 -3 -1 -1 -1 -2 -3 -4 -5 2 3 4 2 4 4 4 6 2 -2 -1 1 3 2 2 1 -0 -1 -1 -2 -3 -3 -4
-2 -1 -2 -3 -2 -2 -2 -2 -2 -3 -4 0 1 -1 -1 0 -1 -1 -2 -3 -3 2 3 4 3 4 4 3 5 5 1 -0 1 0 1 1 1 -1 -1 -2 -2 -2 -3 -3 -3
-2 -1 -1 -2 -3 -2 -2 -2 -2 -3 -2 -3 -2 -0 0 -1 -2 -2 -2 -2 -2 -2 -1 3 5 6 5 4 5 5 0 -2 -2 1 1 2 -0 -2 -2 -2 -2 -2 -2 -3 -3

GFSSW_850_dewp_093.txt.gz
Dewpoint
-26 -26 -27 -29 -30 -30 -30 -30 -30 -30 -29 -28 -27 -26 -29 -32 -32 -31 -27 -23 -18 -9 -9 -7 -10 -11 -9 -9 -4 -5 -3 -2 -4 -4 -6 -8 -4 -3 1 5 5 5 4 5 5
-15 -16 -16 -17 -19 -21 -23 -26 -28 -30 -31 -31 -31 -29 -28 -27 -27 -25 -5 -9 -11 -6 -5 -5 -7 -6 -6 -4 -4 -4 -2 -3 -5 -7 -6 -6 -5 -5 4 6 6 6 5 5 6
-12 -11 -12 -12 -13 -14 -16 -18 -19 -22 -24 -27 -31 -32 -30 -28 -22 -20 -3 -3 -3 -6 -5 -1 -5 -3 -3 -3 -3 -4 -3 -4 -5 -6 -6 -6 -5 -1 4 3 4 4 4 5 7
-9 -12 -14 -15 -16 -17 -18 -18 -18 -18 -19 -22 -24 -29 -31 -29 -15 -7 -3 -2 -3 -0 -1 -3 -6 -4 -3 -3 -4 -3 -5 -5 -6 -7 -4 -4 -2 3 5 -0 1 4 5 8 8
-3 -12 -14 -16 -17 -19 -20 -20 -20 -20 -20 -20 -21 -24 -26 -24 -30 -24 -21 -25 -3 -2 -2 -3 -7 -6 -3 -4 -6 -5 -6 -7 -7 -6 -4 -4 -1 -0 3 -1 3 6 7 8 8
-4 -9 -13 -17 -19 -20 -20 -21 -21 -21 -22 -22 -21 -20 -18 -10 -31 -25 -21 -13 -12 -9 -10 -6 -7 -9 -4 -4 -4 -4 -5 -5 -4 -3 -4 -3 -3 3 -2 -1 3 7 8 10 9
-8 -15 -19 -20 -20 -21 -21 -22 -22 -22 -23 -22 -20 -16 -14 -26 -30 -31 -30 -24 -26 -26 -14 -11 -6 -4 -4 -3 -4 -3 -2 -2 -3 -4 -4 -3 -1 2 -1 1 8 9 10 10 9
-12 -18 -20 -20 -20 -20 -21 -22 -22 -23 -21 -16 -14 -12 -15 -29 -30 -31 -31 -32 -30 -28 -13 -5 -5 -4 -4 -4 -1 -1 -1 -1 -4 -3 -3 -1 -1 -1 -1 5 9 10 10 10 10
-15 -18 -18 -19 -19 -20 -20 -22 -23 -13 -5 -6 -13 -11 -15 -21 -23 -9 -1 -1 -1 -12 -27 -5 -2 -3 -1 -1 -1 -0 -3 -1 -2 -3 -1 0 1 -2 1 6 7 10 10 10 10
-13 -16 -17 -18 -18 -18 -20 -22 -15 -6 -3 -0 -3 -5 -22 -14 -16 -9 -4 -0 -1 -3 -10 -7 -2 1 1 1 -1 -1 1 1 -1 -1 -2 -2 -1 -2 -2 4 6 9 10 9 9
-7 -14 -15 -16 -17 -17 -20 -22 -10 -4 -7 -5 -6 0 -13 -12 -10 -7 -1 -2 -2 -6 -6 -2 -1 2 0 0 -2 -1 -0 -0 -1 -2 -2 -2 -3 -3 -3 0 3 8 10 9 9
-2 -10 -14 -16 -16 -17 -16 -5 -1 -1 0 -4 -6 -1 -4 -6 -1 -10 -3 -2 -3 -2 -3 -1 -3 -2 -1 -0 1 -0 0 0 -1 -2 -1 -2 -2 -3 -3 -1 1 4 8 9 9
-2 -4 -12 -15 -16 -16 -14 -4 -8 -5 1 -1 -1 0 -3 -2 -1 -5 -7 -3 -2 -2 -2 -4 -2 -3 -1 -0 1 1 1 1 0 -1 -2 -1 -0 -1 -2 1 3 5 6 8 8
-2 -2 -8 -15 -15 -14 -14 -10 -12 -2 2 -1 1 -2 -2 -1 -1 -8 -7 -11 -6 -2 -3 -2 -4 -3 -1 -1 -1 0 -1 -0 0 1 0 -1 2 0 -1 -2 0 5 8 8 7
-2 -3 -5 -12 -14 -14 -14 -17 -14 2 -11 -10 -4 -4 -3 -3 -5 -5 -4 -6 -8 -5 -3 -1 -3 -2 -2 -0 -1 -0 -1 0 0 1 1 1 3 1 0 0 -1 -1 7 8 6
-3 -4 -4 -6 -10 -10 -14 -15 -2 -0 -8 -5 -6 -6 -6 -4 -4 -3 -4 -6 -6 -6 -4 -5 -6 -4 -4 -5 -1 -1 0 0 2 3 5 3 2 1 0 0 -1 1 3 6 6
-4 -5 -3 -4 -8 -8 -11 -11 2 -2 -7 -3 -7 -9 -5 -7 -2 -3 -3 -2 -7 -2 -4 -5 -4 -5 -5 -4 -1 -0 1 2 5 6 4 2 3 1 0 -1 -1 -1 -0 3 4
-3 -3 -4 -4 -6 -6 -7 -5 1 -7 -2 -7 -11 -8 -3 -14 -11 -5 -0 0 -0 -3 -4 -8 -10 -5 -6 -3 -2 -0 0 1 3 5 3 5 6 2 1 -0 0 0 0 0 3
-4 -4 -5 -9 -5 -4 -6 -7 -10 -5 -8 -8 -12 -10 -6 -10 -13 -13 -4 1 1 -0 -0 2 -5 -5 -9 -5 -4 -0 1 -2 1 4 5 3 4 2 0 0 -1 -2 -1 2 2
-4 -3 -6 -8 -4 -2 -3 -10 -12 -8 -10 -10 -12 -10 -9 -11 -11 -9 -11 -2 0 0 0 2 5 -3 -4 -6 -5 -3 -1 3 3 3 2 3 5 1 0 -1 -2 -2 -1 1 2
-2 -3 -6 -4 -2 -2 -3 -5 -7 -8 -9 -8 -6 -7 -7 -6 -7 -9 -7 -4 -2 -9 -3 2 4 3 -0 -2 -2 -2 -2 -1 1 3 2 2 3 3 1 -0 -0 -1 -1 -3 2
-2 -2 -3 -2 -1 -2 -3 -5 -7 -8 -8 -6 -5 -5 -7 -10 -11 -11 -11 -6 -9 -5 -2 3 4 6 3 -0 -2 -3 -1 -2 1 1 5 3 1 -2 1 0 0 -0 -2 -4 -2
-2 -4 -3 -1 -2 -2 -4 -5 -6 -5 -6 -5 -2 -3 -3 -3 -5 -4 -3 -6 -3 -4 -3 -4 4 4 3 0 1 2 1 2 1 1 1 4 2 -1 -1 -0 -1 -1 -3 -3 -3
-3 -2 -2 -1 -1 -3 -4 -4 -4 -5 -5 -6 -5 -4 -3 -3 -2 -1 -2 -4 -4 -5 -5 -2 1 -1 0 4 2 3 3 1 5 5 2 2 -1 -0 -0 -0 -1 -1 -3 -3 -3
-3 -2 -4 -2 -2 -1 -2 -3 -3 -3 -4 -4 -3 -4 -4 -4 -4 -3 -3 -3 -4 -5 -3 1 3 3 1 -1 -2 1 1 1 4 5 3 -0 0 -1 -2 -1 -1 -1 -3 -2 -3
-3 -3 -3 -3 -4 -3 -3 -1 -3 -3 -5 -3 -3 -3 -2 -1 -3 -2 -2 -2 -1 -2 0 1 5 3 3 1 1 1 1 2 4 4 3 -1 -1 -1 -1 -1 -1 -2 -1 -2 -3
-3 -4 -2 -4 -4 -2 -2 -3 -3 -5 -4 -5 -5 1 2 -0 -1 -1 -1 -1 -1 0 -0 -0 1 5 4 2 3 5 2 3 3 2 0 2 0 -1 -1 -1 -1 -1 -2 -2 -3

GFSSW_850_dewp_096.txt.gz
Dewpoint
-17 -16 -16 -16 -16 -16 -16 -17 -18 -20 -24 -28 -31 -32 -32 -30 -25 -21 -14 -14 -20 -16 -10 -5 -4 -5 -5 -8 -6 -6 -7 -7 -9 -9 -10 -7 -5 -5 -1 -0 2 3 3 5 8
-13 -14 -16 -16 -17 -18 -17 -16 -15 -16 -18 -19 -22 -27 -31 -32 -31 -21 -9 -4 -7 -13 -7 -3 -6 -6 -8 -8 -7 -7 -7 -9 -10 -11 -9 -7 -5 -5 -3 -3 0 1 4 7 9
-9 -11 -15 -17 -18 -18 -19 -20 -20 -21 -21 -20 -21 -21 -25 -29 -23 -15 -4 -4 -4 -5 -3 -4 -5 -6 -7 -6 -6 -7 -7 -10 -8 -9 -7 -7 -7 -5 -4 -4 -5 -4 -2 5 10
-7 -11 -14 -16 -19 -20 -21 -21 -21 -22 -22 -23 -23 -24 -25 -25 -22 -9 -3 -3 -3 -4 -3 -3 -2 -4 -5 -5 -6 -4 -7 -8 -8 -9 -6 -7 -7 -5 -5 -4 -4 2 3 7 9
-5 -9 -13 -17 -20 -21 -21 -22 -22 -22 -23 -23 -23 -25 -23 -9 -16 -25 -30 -29 -21 -1 -1 -2 -3 -4 -6 -7 -7 -3 -7 -8 -8 -7 -8 -6 -5 -5 -6 -6 -4 3 9 8 9
-7 -11 -16 -19 -20 -21 -22 -22 -22 -23 -24 -24 -24 -22 -9 -10 -19 -27 -29 -21 -11 -8 -4 -2 -4 -6 -8 -8 -7 -9 -7 -8 -8 -8 -7 -5 -6 -7 -5 -6 1 7 8 9 10
-10 -12 -17 -19 -20 -20 -21 -21 -22 -23 -25 -25 -20 -13 -4 -13 -23 -24 -29 -24 -14 -10 -12 -11 -6 -5 -6 -6 -6 -6 -5 -7 -7 -7 -7 -7 -5 -7 -6 -0 3 6 8 9 9
-12 -15 -17 -18 -19 -19 -20 -21 -22 -23 -23 -18 -12 -8 -4 -27 -27 -28 -28 -27 -28 -29 -27 -17 -6 -6 -5 -5 -4 -4 -4 -3 -6 -7 -7 -4 -5 -4 -2 1 -1 3 7 9 9
-7 -12 -16 -17 -18 -19 -20 -21 -23 -19 -14 -8 -4 -3 -7 -20 -15 -9 -6 -6 -3 -3 -20 -7 -3 -5 -4 -3 -4 -4 -3 -4 -4 -6 -7 -3 -4 -4 -1 -0 -0 0 5 7 8
-1 -5 -13 -16 -17 -18 -19 -21 -20 -11 -4 -4 -2 -2 -12 -13 -6 -6 -1 -1 -1 -3 -9 -10 -3 -2 -2 -3 -1 -2 -2 -3 -4 -6 -3 -4 -3 -5 -4 -4 -2 -1 3 6 7
-0 -1 -10 -15 -16 -17 -19 -15 -7 -3 -5 -8 -12 -6 -8 -8 -5 -7 1 0 -2 -3 -6 -13 -4 -1 -4 -3 -3 -5 -4 -4 -6 -5 -3 -4 -6 -7 -5 -5 -3 -1 3 5 7
-1 -1 -4 -13 -16 -16 -15 -2 -3 -5 -2 -5 -4 -3 -3 -3 -3 -7 -5 -1 -2 -4 -4 -5 -7 -10 -6 -4 -3 -3 -3 -4 -5 -6 -4 -4 -5 -6 -6 -5 -4 -3 1 4 6
-1 -2 -2 -10 -15 -15 -11 -5 -11 -5 -0 -5 -2 -1 -1 -1 -2 -5 -7 -7 -2 -4 -3 -2 -5 -7 -9 -4 -2 -3 -3 -3 -3 -5 -4 -3 -4 -7 -8 -4 -2 0 1 2 5
-2 -2 -2 -8 -10 -14 -4 -12 -13 -2 -0 -9 -4 -2 -0 -1 -2 -5 -6 -10 -8 -4 -4 -3 -6 -6 -5 -5 -5 -2 -5 -4 -4 -3 -1 -4 -3 -8 -5 -4 -5 -5 1 3 4
-3 -2 -2 -4 -9 -4 -10 -15 -13 2 -14 -9 -4 -2 -6 -3 -5 -5 -3 -7 -9 -12 -3 -2 -3 -3 -4 -3 -5 -3 -4 -5 -2 -2 -2 -2 -1 -5 -5 -2 -3 -5 -4 3 5
-3 -3 -4 -2 -7 -7 -13 -14 -1 1 -13 -9 -7 -8 -7 -6 -5 -4 -5 -5 -6 -9 -10 -6 -7 -5 -4 -6 -4 -4 -1 -0 -0 0 3 0 -2 -4 -5 -2 -4 -4 -1 3 5
-3 -4 -4 -3 -3 -10 -12 -5 -2 -9 -16 -7 -7 -9 -7 -9 -5 -11 -2 -3 -6 -3 -5 -10 -8 -9 -6 -3 -4 -2 1 3 5 4 3 -2 0 -3 -3 -3 -3 -4 -4 2 5
-4 -2 -2 -3 -2 -7 -4 -8 -3 -14 -11 -8 -10 -10 -5 -11 -13 -16 -2 -3 -4 -3 -6 -7 -8 -9 -7 -6 -4 -1 1 1 2 3 1 -0 2 -1 -3 -4 -4 -1 -1 1 5
-1 -2 -3 -2 -7 -5 -5 -9 -16 -13 -12 -11 -15 -16 -15 -10 -14 -13 -13 0 -2 -4 -1 -0 -3 -5 -10 -8 -7 -3 0 -3 -1 -1 2 1 1 -0 -2 -2 -3 -3 -4 -1 3
-2 -2 -4 -3 -7 -1 -6 -11 -16 -12 -10 -11 -15 -16 -16 -13 -12 -12 -14 -5 -0 -9 -7 -4 2 -3 -5 -7 -8 -6 -6 1 0 3 2 -2 -1 -0 -2 -3 -4 -3 -4 -2 1
-2 -2 -2 -5 -5 -2 -5 -12 -13 -13 -11 -11 -13 -12 -12 -11 -13 -15 -16 -16 -9 -8 -10 -2 -1 -0 -1 -3 -6 -6 -3 -3 -3 -1 2 2 -1 -3 -3 -4 -4 -3 -3 -1 1
-2 -2 -4 -2 -1 -4 -5 -9 -10 -11 -10 -12 -12 -9 -10 -12 -13 -16 -16 -17 -16 -12 -10 -4 -1 1 0 -1 -1 0 -2 -4 -1 -1 0 1 0 -4 -3 -3 -3 -2 -1 -2 1
-2 -3 -3 -1 -2 -4 -7 -7 -7 -8 -9 -12 -12 -12 -12 -11 -12 -13 -12 -11 -7 -3 -3 -4 0 1 1 0 1 1 1 1 2 1 1 4 1 -4 -4 -3 -1 -2 -3 -1 -1
-2 -1 -2 -1 -2 -5 -6 -7 -6 -7 -7 -8 -8 -8 -8 -6 -7 -7 -5 -5 -4 -5 -4 -4 -3 -3 -3 -1 -2 0 1 -0 2 5 2 1 -1 -4 -5 -4 -4 -5 -3 -3 -1
-3 -4 -5 -2 -2 -1 -5 -6 -6 -6 -6 -6 -6 -7 -8 -8 -8 -7 -7 -6 -7 -7 -4 -4 -1 -4 -4 -5 -6 -5 -5 -4 0 0 3 2 1 -3 -3 -5 -4 -4 -3 -2 -2
-3 -3 -4 -8 -7 -5 -4 -4 -5 -6 -6 -6 -5 -7 -5 -3 -6 -5 -2 -3 -2 -3 -1 -1 -1 1 1 -2 -2 -3 -5 -5 -4 -2 -1 -1 1 -1 -3 -5 -5 -5 -5 -5 -2
-2 -3 -4 -7 -7 -5 -5 -4 -5 -6 -6 -6 -6 -5 -4 -3 -1 1 0 -1 -1 -2 -1 -0 0 1 1 -1 1 3 -1 -3 -5 -5 0 3 0 -2 -3 -4 -4 -2 -2 -3 -2

GFSSW_850_dewp_099.txt.gz
Dewpoint
-17 -16 -17 -18 -19 -21 -21 -22 -23 -21 -17 -14 -14 -15 -17 -21 -29 -30 -11 -9 -7 -12 -17 -1 -1 -4 -7 -7 -8 -8 -8 -7 -8 -9 -10 -13 -8 -8 -6 -5 -6 -5 -1 -1 5
-11 -14 -16 -15 -18 -19 -20 -22 -22 -23 -24 -25 -23 -21 -22 -20 -15 -19 -11 -9 -7 -5 -16 -2 -2 -5 -7 -8 -9 -9 -8 -8 -10 -11 -11 -12 -10 -8 -7 -7 -7 -6 -4 -1 7
-5 -11 -14 -16 -17 -20 -21 -22 -23 -24 -25 -25 -27 -27 -26 -25 -7 -9 -11 -3 -5 -10 -4 -4 -4 -6 -7 -9 -10 -9 -7 -10 -10 -11 -11 -11 -11 -10 -9 -7 -7 -6 -5 -2 3
-5 -8 -14 -16 -19 -21 -22 -22 -23 -24 -25 -25 -26 -27 -27 -25 -9 -7 -14 -7 -16 -5 -1 -4 -5 -6 -7 -8 -8 -7 -9 -9 -9 -10 -11 -10 -10 -10 -10 -9 -8 -7 -5 1 4
-4 -8 -13 -18 -20 -22 -22 -22 -23 -24 -25 -26 -27 -27 -25 -7 -8 -12 -17 -24 -25 -12 -2 -3 -4 -4 -4 -6 -7 -7 -8 -7 -8 -9 -9 -10 -10 -10 -10 -10 -9 -8 -5 2 5
-5 -10 -13 -18 -20 -21 -22 -22 -23 -25 -26 -27 -28 -26 -5 -6 -16 -18 -17 -13 -7 -10 -5 -3 -3 -4 -4 -6 -7 -9 -8 -7 -7 -9 -9 -9 -9 -9 -9 -10 -8 -6 -1 3 7
-4 -15 -16 -18 -20 -21 -22 -23 -24 -25 -27 -27 -22 -15 -2 -10 -15 -14 -12 -15 -9 -7 -9 -7 -4 -4 -6 -5 -7 -8 -6 -7 -8 -8 -8 -8 -7 -7 -9 -10 -10 -3 0 5 6
-2 -13 -14 -16 -19 -21 -23 -23 -25 -27 -27 -23 -15 0 -2 -10 -11 -15 -15 -15 -14 -12 -11 -12 -15 -15 -7 -6 -5 -4 -5 -3 -6 -7 -8 -7 -5 -8 -8 -7 -3 -2 -2 4 6
-1 -5 -8 -15 -18 -21 -23 -25 -27 -25 -20 -13 1 2 -4 -13 -10 -6 -3 -11 -10 -16 -14 -18 -18 -10 -10 -6 -4 -4 -2 -3 -4 -6 -7 -7 -4 -9 -5 -3 -3 -4 -3 -0 5
-0 -1 -2 -10 -16 -19 -23 -23 -9 -7 -4 1 2 -0 -4 -13 -11 -7 -8 -2 -0 -1 -4 -12 -12 -10 -7 -6 -1 -2 -3 -4 -3 -5 -6 -5 -6 -7 -8 -5 -5 -5 -5 -2 2
-1 -1 -1 -5 -15 -18 -21 -5 -8 -1 -4 -11 -14 -11 -14 -14 -9 -9 -9 -3 -1 -2 -3 -9 -10 -10 -10 -6 -5 -4 -4 -3 -4 -5 -5 -5 -4 -6 -8 -9 -6 -6 -6 -3 1
-2 -1 -1 -4 -12 -17 -4 -5 -3 -3 -3 -7 -8 -8 -8 -6 -4 -7 -9 -5 -5 -3 -6 -6 -7 -10 -13 -10 -5 -3 -2 -2 -4 -5 -5 -3 -3 -5 -7 -9 -9 -6 -6 -4 -2
-2 -2 -2 -3 -12 -6 -4 -3 -3 -2 -3 -9 -8 -5 -3 -2 -4 -7 -9 -11 -9 -5 -6 -3 -4 -8 -7 -7 -7 -4 -1 -1 -2 -4 -5 -4 -2 -3 -6 -8 -10 -8 -5 -5 -3
-3 -3 -3 -4 -3 -3 -4 -3 -2 1 -1 -8 -5 -3 -1 -2 -2 -6 -5 -8 -12 -10 -9 -7 -8 -5 -6 -6 -9 -5 -5 -4 -3 -3 -1 -4 -0 -3 -6 -9 -9 -6 -5 -4 -3
-3 -3 -3 -3 -2 -4 -3 -3 -2 3 -9 -13 -5 -3 -7 -3 -6 -6 -5 -6 -8 -12 -8 -6 -5 -3 -3 -5 -6 -6 -7 -5 -5 -3 -2 -2 -2 -3 -5 -5 -8 -7 -6 -6 -2
-3 -3 -3 -3 -1 -2 -2 -3 0 0 -9 -11 -9 -6 -10 -7 -7 -7 -5 -5 -6 -6 -8 -12 -11 -4 -4 -5 -6 -6 -5 -4 -2 -2 2 -1 -1 -2 -4 -5 -4 -5 -6 -4 -2
-3 -4 -3 -2 -3 -1 -2 -3 -3 -8 -20 -16 -10 -10 -10 -9 -8 -11 -7 -3 -3 -3 -3 -7 -10 -12 -8 -5 -5 -4 -3 2 2 4 4 -1 -0 -1 -5 -7 -4 -5 -5 -2 0
-3 -4 -1 -2 -2 -2 -2 -6 -3 -14 -13 -10 -10 -11 -11 -10 -11 -11 -12 -5 -5 -3 -3 -5 -6 -11 -12 -7 -6 -3 -2 3 2 2 3 -0 -0 -2 -5 -6 -6 -5 -4 -3 1
-4 -2 -1 -1 -1 -2 -4 -6 -12 -13 -15 -14 -13 -16 -20 -12 -11 -11 -11 -6 -3 -6 -1 -1 -3 -7 -13 -11 -7 -7 -0 -3 1 1 4 4 -0 -3 -2 -3 -4 -5 -5 -4 -0
-2 -1 -1 -1 -1 -3 -4 -7 -15 -18 -12 -12 -14 -21 -18 -21 -15 -15 -14 -7 -2 -5 -7 -2 0 -5 -7 -10 -9 -6 -8 -1 -1 4 3 -1 -1 0 -1 -3 -4 -4 -4 -5 -3
-1 -1 -2 -2 -2 -4 -3 -8 -13 -16 -13 -13 -15 -15 -15 -15 -15 -13 -15 -14 -16 -7 -10 -8 -1 -2 -3 -3 -6 -6 -4 -4 -4 -3 2 3 1 -3 -4 -3 -3 -4 -3 -4 -2
-2 1 -1 -2 -2 -4 -4 -9 -11 -13 -14 -13 -14 -14 -13 -14 -12 -13 -14 -18 -19 -17 -14 -9 -2 1 -2 -5 -3 -2 -6 -5 1 -1 -2 1 1 -4 -4 -4 -3 -2 -3 -2 -2
-2 -2 -1 -1 -1 -3 -7 -9 -11 -10 -12 -13 -13 -14 -14 -12 -11 -13 -14 -18 -19 -11 -5 -3 -4 -2 -2 -4 -4 -0 -1 -3 -4 -3 -2 2 1 -5 -5 -4 -5 -3 -4 -3 -1
-2 -1 -1 -1 -2 -3 -3 -6 -8 -9 -9 -10 -10 -11 -11 -11 -11 -10 -11 -12 -9 -7 -4 -4 -4 -4 -2 -2 -0 0 -0 0 0 3 1 -1 -4 -5 -5 -5 -5 -5 -4 -5 -1
-2 -3 -3 -0 -2 -2 -5 -5 -7 -9 -9 -9 -8 -9 -9 -8 -9 -9 -9 -10 -11 -10 -7 -4 -1 -5 -7 -8 -8 -5 -5 -5 -3 -2 2 1 -1 -2 -3 -4 -5 -5 -5 -5 -3
-2 -3 -6 -7 -7 -6 -5 -4 -4 -9 -8 -7 -7 -9 -7 -9 -10 -10 -12 -9 -7 -10 -9 -7 -0 -4 -5 -7 -7 -5 -7 -8 -8 -7 -5 -3 -2 -5 -5 -5 -3 -4 -5 -5 -6
-2 -4 -4 -4 -5 -5 -5 -7 -7 -9 -8 -8 -7 -5 -5 -6 -4 -2 -0 -1 -1 1 -1 2 -0 -2 1 -6 -6 -1 -5 -8 -10 -12 -10 -5 -5 -6 -3 -4 -4 -4 -5 -6 -4

GFSSW_850_dewp_102.txt.gz
Dewpoint
-14 -18 -21 -20 -22 -24 -25 -25 -27 -27 -27 -28 -29 -29 -28 -19 -11 -14 -12 -9 -9 -6 -6 -10 -5 -1 -4 -7 -8 -8 -6 -6 -7 -8 -8 -12 -11 -9 -8 -9 -7 -6 -6 -3 3
-6 -13 -19 -19 -19 -19 -22 -24 -25 -27 -26 -27 -28 -29 -30 -30 -20 -14 -8 -8 -11 -10 -9 -4 -3 -2 -3 -7 -8 -8 -5 -7 -10 -11 -9 -11 -11 -12 -9 -9 -8 -8 -7 -5 3
-9 -12 -17 -18 -18 -21 -23 -24 -25 -26 -27 -27 -28 -29 -30 -31 -12 -3 -10 -7 -4 -5 -6 -6 -4 -3 -3 -6 -8 -8 -6 -8 -10 -11 -10 -10 -10 -11 -11 -9 -10 -8 -7 -6 4
-5 -10 -15 -18 -20 -22 -23 -23 -24 -25 -26 -27 -29 -30 -30 -29 -8 -6 -11 -19 -15 -16 -2 -2 -4 -4 -4 -5 -7 -7 -10 -10 -10 -9 -10 -9 -10 -10 -10 -10 -10 -10 -9 -7 -1
-4 -14 -18 -17 -19 -21 -22 -24 -24 -25 -27 -28 -28 -29 -27 -4 -6 -11 -10 -15 -16 -10 -5 -2 -4 -4 -4 -5 -6 -6 -8 -8 -8 -9 -8 -8 -8 -8 -9 -10 -11 -11 -10 -8 -1
-4 -11 -15 -16 -19 -20 -22 -24 -25 -27 -28 -29 -29 -27 -10 -4 -13 -16 -15 -13 -14 -9 -10 -6 -5 -4 -4 -4 -3 -5 -6 -7 -8 -8 -7 -7 -8 -9 -9 -9 -9 -9 -9 -6 -0
-3 -6 -11 -15 -18 -21 -24 -25 -27 -29 -30 -30 -27 -21 -2 -7 -12 -10 -10 -12 -14 -11 -8 -11 -9 -4 -3 -3 -5 -5 -4 -7 -8 -8 -8 -8 -6 -7 -8 -8 -8 -9 -10 -4 3
-1 -3 -9 -16 -20 -23 -26 -28 -29 -30 -29 -24 -17 -3 1 -9 -8 -14 -14 -15 -15 -14 -9 -9 -10 -10 -11 -9 -6 -4 -4 -1 -5 -6 -7 -7 -4 -6 -8 -8 -9 -10 -4 -2 2
-0 -1 -3 -7 -14 -23 -27 -29 -29 -15 -10 -10 -4 4 -1 -9 -11 -8 -5 -3 -14 -13 -16 -17 -16 -14 -14 -10 -7 -5 -1 -2 -3 -5 -6 -6 -4 -7 -8 -8 -5 -4 -4 -4 1
0 -1 -2 -3 -8 -16 -24 -29 -15 -9 -1 0 2 1 -1 -9 -14 -13 -11 -9 -4 -2 -3 -6 -11 -16 -17 -11 -4 -5 -3 -3 -2 -4 -5 -5 -5 -7 -7 -8 -5 -4 -4 -5 -4
-3 -2 -3 -3 -6 -17 -16 -6 -7 0 1 -5 -6 -1 -8 -14 -14 -12 -11 -11 -4 -3 -1 -5 -9 -11 -12 -11 -10 -8 -5 -2 -0 -2 -2 -3 -4 -5 -6 -7 -7 -7 -6 -6 -6
-2 -3 -3 -3 -7 -17 -5 -3 -4 -3 -4 -7 -9 -11 -12 -11 -10 -8 -9 -10 -4 -3 -5 -4 -3 -7 -10 -11 -12 -11 -5 -2 -2 -2 -1 -2 -3 -5 -5 -5 -6 -8 -8 -7 -5
-1 -2 -3 -3 -10 -1 -4 -3 -4 -2 -3 -9 -11 -10 -9 -7 -8 -7 -9 -10 -8 -6 -6 -5 -7 -10 -8 -6 -6 -8 -8 -1 -0 -1 -1 -1 -1 -3 -6 -6 -6 -7 -8 -8 -6
-2 -2 -3 -3 -3 -1 -3 -2 -3 -0 -1 -14 -8 -9 -5 -4 -4 -5 -7 -10 -11 -10 -12 -10 -10 -9 -8 -5 -6 -4 -7 -7 -6 -3 2 -2 1 -2 -4 -5 -5 -5 -7 -9 -5
-3 -3 -2 -3 -3 -3 -3 -2 -3 2 -4 -10 -7 -4 -5 -4 -6 -7 -7 -7 -6 -10 -13 -12 -12 -11 -8 -8 -6 -4 -7 -7 -5 -2 -1 -2 -1 -2 -4 -4 -5 -6 -8 -6 -5
-2 -2 -2 -3 -2 -1 -2 -1 -0 1 -7 -13 -8 -6 -8 -7 -8 -8 -5 -5 -7 -7 -8 -9 -13 -13 -8 -7 -6 -6 -5 -4 -4 -3 2 -1 -1 -1 -2 -3 -5 -6 -8 -6 -6
-2 -1 -2 -3 -3 -1 -0 -2 -2 -5 -19 -17 -12 -10 -10 -12 -8 -9 -9 -5 -4 -3 -4 -7 -8 -11 -14 -8 -6 -4 -2 1 2 3 2 -2 -0 -1 -3 -4 -4 -5 -6 -4 -3
-3 -2 -2 -2 -3 -2 -1 -3 -1 -12 -12 -15 -11 -11 -10 -14 -14 -12 -9 -12 -14 -7 -5 -5 -7 -9 -10 -12 -8 -5 -1 3 6 5 4 4 8 1 -4 -5 -6 -6 -5 -3 -2
-3 -2 -2 -3 -3 -2 -2 -2 -7 -12 -15 -15 -15 -11 -11 -15 -12 -13 -13 -12 -14 -1 -2 -2 -6 -6 -10 -12 -11 -6 -1 -3 2 2 4 5 2 -0 -2 -4 -4 -5 -5 -4 -1
-2 -1 -1 -2 -1 -0 -0 -2 -8 -13 -16 -14 -10 -13 -15 -18 -20 -12 -13 -17 -9 -4 -6 -5 -0 -5 -7 -11 -12 -9 -9 -2 1 5 6 2 2 6 4 1 -2 -3 -3 -4 -3
-3 -1 -3 -2 0 0 -0 -5 -8 -11 -13 -13 -11 -12 -16 -16 -18 -17 -15 -16 -12 -11 -10 -10 -5 -4 -6 -3 -5 -8 -5 -4 -2 1 5 5 2 1 1 1 -1 -0 -3 -3 -5
-2 0 -2 -0 1 -1 -3 -7 -9 -11 -14 -15 -13 -13 -13 -14 -14 -13 -14 -14 -18 -17 -15 -14 -10 -2 -5 -3 -3 -0 -4 -4 -1 0 1 2 2 -3 0 1 -1 -1 -2 -2 -2
-2 -2 -3 -0 1 -1 -5 -7 -9 -10 -12 -12 -12 -13 -14 -14 -12 -12 -12 -14 -16 -15 -16 -6 -4 -3 -6 -9 -9 -4 -2 -2 -4 -2 0 4 3 -3 -2 -0 -2 -4 -4 -3 -2
-2 -1 -3 -0 -1 -3 -0 -4 -9 -10 -11 -12 -11 -12 -12 -12 -13 -12 -12 -14 -15 -13 -5 -4 -3 -1 -1 -6 -3 1 -1 -1 -1 7 1 -1 -3 -5 -0 -0 -2 -4 -5 -5 -4
-2 -1 -6 -2 -1 -3 -5 -2 -0 -6 -9 -10 -10 -10 -10 -9 -10 -10 -11 -12 -13 -10 -7 -6 -4 -5 -7 -8 -9 -7 -5 -4 -2 -1 5 3 0 -1 -1 0 -2 -3 -3 -4 -5
-2 -1 -5 -4 -1 -2 -4 -5 -5 -6 -9 -4 -9 -11 -10 -9 -10 -10 -11 -10 -9 -10 -10 -7 -5 -7 -5 -7 -8 -9 -9 -7 -6 -6 -6 -5 -4 -7 -6 -7 -6 -6 -6 -5 -4
-3 -4 -1 -4 -6 -5 -6 -2 -7 -10 -7 -8 -7 -2 -3 -6 -4 -2 -2 -3 -3 -1 -0 -0 -3 -5 -2 -5 -6 -4 -9 -9 -8 -8 -7 -5 -6 -8 -7 -6 -5 -5 -4 -4 -5

GFSSW_850_dewp_105.txt.gz
Dewpoint
-15 -19 -19 -23 -24 -24 -27 -28 -29 -30 -30 -29 -30 -30 -31 -31 -31 -30 -22 -14 -13 -9 -9 -4 -8 -10 -5 -3 -4 -6 -5 -4 -5 -6 -8 -10 -9 -8 -8 -9 -9 -8 -7 -7 0
-15 -20 -23 -24 -26 -27 -27 -29 -29 -29 -28 -28 -29 -30 -31 -32 -31 -19 -6 -7 -7 -8 -10 -10 -8 -3 -0 -3 -5 -6 -5 -5 -7 -8 -8 -9 -9 -11 -9 -8 -8 -8 -7 -5 4
-16 -18 -22 -24 -25 -26 -27 -27 -28 -27 -27 -27 -28 -30 -31 -32 -24 -3 -13 -11 -5 -5 -5 -5 -5 -3 -2 -2 -3 -6 -5 -7 -7 -8 -8 -8 -9 -9 -10 -9 -9 -9 -9 -1 4
-11 -14 -18 -21 -21 -25 -25 -26 -28 -27 -27 -28 -29 -30 -30 -28 -7 -6 -11 -10 -11 -15 -17 -5 -5 -5 -3 -2 -3 -4 -6 -7 -8 -9 -9 -9 -9 -8 -8 -9 -10 -10 -10 -7 3
-3 -8 -13 -17 -19 -21 -25 -26 -27 -27 -28 -28 -28 -28 -27 -8 -12 -18 -12 -12 -15 -14 -13 -1 -1 -2 -2 -3 -4 -4 -5 -6 -7 -8 -9 -8 -8 -6 -7 -8 -9 -9 -10 -11 -0
-1 -2 -8 -12 -17 -20 -24 -26 -28 -28 -29 -29 -28 -26 -13 1 -17 -10 -11 -13 -15 -14 -10 -7 -5 -5 -5 -3 -3 -3 -4 -4 -5 -5 -7 -8 -7 -7 -7 -8 -8 -9 -9 -10 -10
-1 -1 -4 -7 -13 -20 -23 -27 -29 -30 -30 -29 -21 -17 -10 -26 -25 -12 -11 -11 -10 -14 -13 -9 -11 -10 -8 -4 -6 -6 -3 -4 -4 -6 -6 -7 -6 -6 -8 -8 -8 -8 -8 -8 -8
0 -0 -0 -3 -9 -17 -21 -26 -30 -31 -29 -13 -7 -7 -5 -25 -9 -15 -15 -9 -9 -16 -14 -9 -9 -11 -10 -10 -10 -9 -7 -2 -4 -4 -5 -5 -3 -6 -7 -7 -7 -8 -8 -8 -6
-2 -2 -2 -3 -8 -16 -22 -28 -31 -28 -19 -7 -5 3 4 -4 -10 -9 -8 -4 -4 -13 -16 -14 -15 -17 -13 -11 -8 -8 -6 -5 -5 -5 -5 -4 -3 -5 -3 -7 -7 -7 -9 -8 -4
-0 -2 -3 -4 -8 -14 -24 -17 -17 -9 -5 1 1 3 -1 -9 -12 -15 -14 -12 -11 -5 -4 -14 -15 -14 -14 -13 -9 -6 -5 -6 -4 -5 -3 -1 -0 -2 -2 -4 -7 -7 -4 -4 -4
-1 -0 -2 -3 -8 -15 -8 -6 -7 -4 -7 1 -1 1 -4 -6 -9 -14 -14 -12 -11 -8 0 -3 -3 -6 -11 -14 -15 -13 -10 -8 -9 -6 -2 -1 -1 -1 -3 -3 -7 -6 -6 -4 -4
-2 -1 -1 -3 -10 -1 -3 -3 -4 -3 -2 -9 -18 -14 -11 -8 -12 -25 -14 -9 -10 -3 -2 -1 -1 -5 -11 -14 -14 -13 -10 -9 -9 -5 -4 -2 0 -0 -1 -2 -3 -6 -6 -7 -6
-3 -2 -2 -4 -11 -1 -2 -2 -3 -3 -1 -5 -12 -9 -9 -13 -10 -11 -11 -8 -8 -5 -2 -2 -3 -4 -5 -5 -7 -7 -6 -7 -8 -8 -4 -1 1 1 -1 -3 -4 -6 -7 -7 -6
-3 -3 -3 -4 -3 -3 -2 -2 -3 -2 3 -3 -7 -10 -11 -7 -6 -9 -8 -9 -9 -7 -7 -7 -8 -6 -6 -6 -7 -4 -6 -5 -5 -5 -3 -2 3 2 -1 -3 -4 -6 -6 -6 -5
-5 -2 -2 -3 -4 -3 -2 -0 -3 0 3 -10 -9 -9 -8 -5 -5 -5 -8 -7 -7 -8 -9 -7 -12 -11 -10 -11 -9 -6 -4 -4 -4 -3 -3 -3 -1 0 -3 -3 -5 -5 -5 -6 -6
-5 -2 -2 -2 -4 -3 -1 -0 -2 2 2 -11 -5 -5 -5 -5 -4 -7 -6 -7 -7 -5 -6 -6 -9 -10 -10 -11 -10 -6 -3 -2 -4 -3 0 -2 -1 -1 -3 -4 -5 -5 -6 -6 -6
-4 -3 -2 -2 -3 -6 -1 -1 1 3 -13 -16 -9 -6 -7 -4 -4 -6 -5 -3 -2 -1 -2 -5 -6 -9 -10 -8 -10 -5 -2 3 3 2 2 -2 -1 -2 -2 -4 -5 -5 -5 -4 -6
-5 -4 -3 -3 -4 -4 -2 -1 1 -6 -10 -14 -14 -12 -7 -9 -10 -9 -7 -6 -7 -5 -3 -2 -2 -7 -9 -8 -9 -4 -3 4 5 5 2 1 6 3 -1 -2 -2 -6 -5 0 5
-5 -6 -5 -4 -4 -3 -1 0 -4 -9 -11 -11 -12 -11 -9 -10 -11 -12 -10 -9 -12 -4 -0 0 -2 -4 -4 -6 -11 -9 -3 -5 2 1 4 3 2 -0 4 4 2 -3 -5 -0 6
-5 -4 -4 -6 -2 -2 -0 -2 -5 -9 -10 -8 -6 -11 -8 -11 -12 -13 -13 -13 -9 -2 -6 -4 -1 -5 -6 -5 -6 -9 -8 -3 1 6 7 2 1 3 4 5 4 0 -0 -1 3
-5 -2 -6 -4 -2 -0 -0 -2 -6 -8 -8 -8 -7 -10 -10 -10 -12 -12 -12 -13 -12 -3 -10 -11 -6 -5 -6 -4 2 3 -5 -6 -4 3 5 6 4 3 7 7 6 3 -1 -2 0
-2 -2 -3 -2 -0 -0 -0 -3 -6 -7 -8 -8 -9 -11 -9 -9 -10 -10 -9 -10 -14 -12 -12 -13 -9 -5 -7 -9 -1 2 4 3 -4 -1 2 2 2 -2 2 2 5 3 1 1 -0
-3 -3 -5 -5 -1 -0 -3 -5 -6 -6 -7 -7 -9 -11 -10 -9 -9 -10 -9 -11 -12 -10 -9 -10 -2 2 -2 -8 -9 -1 1 3 3 -2 -0 3 3 -3 -2 5 4 2 1 1 -3
-3 -3 -2 -2 -1 -1 0 -1 -1 -5 -7 -9 -9 -11 -9 -8 -10 -8 -9 -10 -12 -10 -6 -5 -4 -2 1 -0 -3 -4 -6 -3 3 7 7 5 3 -1 0 4 4 3 1 -1 -3
-3 -3 -4 -5 -1 -1 -2 -2 -2 -0 -2 -7 -9 -9 -8 -7 -7 -7 -8 -9 -11 -12 -6 -5 -2 -4 -5 -6 -6 -7 -7 -8 -6 -3 6 4 4 3 1 3 3 3 -1 -6 -5
-3 -3 -4 -2 -3 -2 -1 -2 -3 -5 1 0 -0 -3 -3 -6 -8 -3 -1 -1 -1 -1 -1 -3 -2 -4 -4 -7 -8 -6 -7 -8 -8 -8 -6 -5 -3 -5 -8 -6 -6 -2 -5 -5 -5
-3 -5 -2 -4 -1 -2 -0 -3 -3 -1 -4 -8 -3 -2 -2 -4 -3 -2 -2 -2 -2 -2 -1 -0 -1 -1 -0 -5 -6 -3 -5 -7 -8 -10 -8 -6 -7 -7 -10 -11 3 6 6 6 6

GFSSW_850_dewp_108.txt.gz
Dewpoint
-15 -18 -21 -24 -25 -26 -27 -27 -28 -29 -29 -29 -29 -30 -30 -31 -30 -30 -28 -23 -18 -12 -6 -7 -5 -6 -7 -1 -2 -4 -4 -2 -3 -5 -6 -8 -8 -9 -9 -8 -8 -7 -8 -9 -4
-20 -21 -23 -24 -25 -25 -27 -28 -28 -29 -29 -28 -29 -30 -30 -31 -31 -30 -9 -7 -10 -8 -9 -9 -7 -8 -3 -1 -3 -5 -4 -4 -6 -7 -6 -7 -7 -8 -10 -9 -8 -8 -8 -7 -3
-12 -18 -22 -23 -25 -26 -27 -27 -28 -28 -29 -28 -29 -30 -31 -32 -29 -18 -10 -11 -9 -8 -8 -6 -8 -7 -0 -1 -3 -4 -4 -6 -7 -7 -7 -7 -8 -8 -9 -9 -9 -9 -9 -5 1
-9 -11 -16 -20 -24 -25 -27 -27 -28 -28 -28 -29 -29 -30 -31 -31 -18 -5 -9 -12 -10 -11 -14 -8 -4 -4 -4 -1 -2 -1 -3 -5 -6 -7 -7 -8 -8 -9 -9 -9 -9 -8 -8 -4 2
-3 -6 -10 -15 -17 -23 -24 -26 -27 -27 -28 -29 -29 -29 -27 -17 -23 -28 -14 -12 -14 -16 -12 -9 -1 -2 -1 -3 -3 -2 -3 -4 -5 -6 -6 -6 -7 -7 -7 -8 -8 -8 -8 -7 -1
-3 -3 -5 -4 -9 -19 -24 -25 -28 -29 -30 -29 -28 -23 -13 -2 -23 -9 -10 -10 -12 -13 -14 -11 -4 -5 -5 -4 -3 -4 -3 -3 -4 -4 -5 -5 -6 -7 -7 -8 -8 -8 -8 -8 -8
-3 -4 -4 -8 -10 -15 -24 -27 -29 -29 -30 -30 -25 -8 -7 -26 -30 -19 -10 -10 -10 -11 -14 -14 -10 -9 -10 -8 -8 -8 -7 -7 -6 -5 -5 -5 -4 -6 -7 -6 -5 -4 -6 -8 -8
-0 -0 -4 -5 -10 -18 -25 -29 -31 -31 -30 -29 -18 -4 -6 -30 -16 -11 -12 -12 -11 -9 -14 -16 -13 -14 -11 -10 -10 -9 -7 -3 -4 -5 -5 -4 -2 -4 -5 -3 -3 -2 -3 -6 -8
-2 -1 -1 -4 -7 -17 -24 -28 -29 -25 -25 -18 -8 -2 -1 -10 -8 -11 -8 -7 -5 -4 -12 -16 -15 -15 -16 -11 -9 -9 -3 -3 -4 -8 -7 -5 -4 -5 -4 -3 -3 -3 -3 -4 -7
-2 -4 -3 -3 -8 -11 -8 -15 -14 -4 -3 -2 1 3 -8 -14 -5 -11 -14 -14 -12 -12 -6 -6 -15 -14 -13 -11 -5 -7 -6 -7 -7 -7 -5 -3 -2 -3 -3 -3 -2 -2 -2 -2 -6
-4 -3 -3 -5 -11 -2 -4 -10 -5 -7 -7 -2 0 1 -6 -4 -4 -6 -11 -15 -13 -12 -5 -3 -8 -8 -14 -12 -10 -10 -11 -11 -12 -13 -7 -4 -2 -4 -4 -3 -3 -2 -2 -2 -3
-5 -7 -5 -6 -14 -2 -2 -1 -2 -2 -1 -4 -12 -16 -9 -7 -6 -26 -20 -15 -9 -9 -5 -1 0 -5 -9 -11 -12 -13 -13 -13 -14 -12 -9 -6 -6 -8 -4 -3 -3 -2 -2 -4 -4
-6 -7 -5 -7 -15 -3 -2 -1 -1 -2 -1 -5 -14 -10 -14 -18 -12 -18 -17 -10 -8 -7 -3 -1 -1 -3 -4 -5 -9 -11 -12 -12 -10 -9 -8 -5 -4 -4 -4 -2 -1 -2 -2 -4 -5
-5 -6 -4 -6 -8 -6 -2 -2 -4 -2 1 -4 -7 -9 -11 -10 -9 -14 -19 -14 -8 -7 -6 -3 -4 -3 -3 -3 -4 -2 -6 -6 -5 -4 -2 -5 -2 -5 -6 -4 -2 -3 -4 -5 -5
-4 -6 -3 -2 -5 -6 -3 -4 -7 0 -8 -11 -8 -11 -11 -6 -6 -5 -9 -9 -7 -8 -7 -5 -10 -6 -4 -4 -6 -4 -6 -4 -3 -3 -3 -3 -2 -5 -4 -5 -5 -5 -6 -6 -6
-6 -5 -4 -3 -4 -4 -4 -2 -7 -1 -3 -9 -7 -7 -4 -5 -6 -5 -7 -7 -7 -6 -6 -6 -8 -8 -9 -10 -10 -9 -5 -3 -3 -2 0 -2 -2 -3 -4 -4 -5 -6 -6 -5 -6
-5 -5 -4 -3 -4 -5 -3 -3 -3 2 -8 -12 -11 -12 -11 -3 -3 -4 -4 -4 -3 -1 -1 -4 -6 -8 -9 -7 -8 -7 -2 2 3 2 1 -3 -1 -2 -4 -5 -3 -2 -2 -0 0
-5 -5 -6 -7 -6 -4 -3 -2 0 -8 -7 -11 -8 -12 -11 -11 -4 -4 -5 -3 -4 -4 -2 -1 -0 -6 -9 -7 -6 -6 -6 -0 3 3 1 -2 1 2 -2 -1 3 4 3 1 -2
-6 -6 -8 -11 -6 -2 -1 -1 -4 -7 -13 -8 -7 -10 -9 -10 -11 -11 -11 -10 -6 -5 -2 -0 -1 -5 -5 -4 -6 -6 -2 -5 -0 1 3 2 -0 -3 -4 5 5 5 5 2 6
-6 -6 -10 -4 -3 -2 -1 -3 -4 -8 -8 -7 -5 -6 -5 -8 -9 -10 -12 -10 -7 -5 -5 -7 -2 -7 -8 -7 -3 -4 -6 -4 0 3 2 3 2 2 3 6 6 6 5 4 4
-5 -4 -2 -2 -3 -1 -1 -3 -5 -6 -7 -8 -5 -5 -6 -7 -9 -9 -9 -10 -12 -12 -12 -12 -7 -5 -7 -4 -3 2 3 3 -3 3 2 5 3 6 6 6 6 7 6 4 4
-3 -4 -3 -1 -1 -1 -1 -4 -4 -4 -5 -5 -6 -6 -5 -9 -9 -10 -9 -10 -11 -10 -10 -9 -9 -8 -7 -10 -8 -0 2 3 6 3 4 3 1 -4 5 5 6 6 5 4 2
-4 -4 -8 -5 -6 -1 -1 -2 -4 -4 -5 -5 -6 -6 -6 -10 -8 -8 -9 -10 -11 -8 -7 -9 -6 0 -7 -7 -2 -0 -2 -4 4 5 5 5 1 -2 0 5 5 6 6 4 2
-4 -5 -5 -2 -2 -3 -2 -3 -3 -6 -3 -4 -4 -5 -5 -8 -9 -7 -7 -9 -10 -11 -6 -6 -4 -4 -3 -1 -4 -6 -7 -7 3 4 5 3 4 -0 -2 3 5 4 5 3 3
-4 -4 -4 -6 -4 -2 -2 -2 -2 -3 -6 -3 -3 -3 -4 -7 -8 -7 -7 -2 -4 -2 -5 -5 -3 -4 -4 -5 -6 -7 -7 -8 -7 -4 3 0 -1 -5 -3 1 4 4 4 3 3
-4 -3 -4 -3 -4 -4 -4 -3 -3 -3 -2 -1 -1 -2 -1 -2 -7 -5 -1 -1 -1 -2 -2 -1 -2 -4 -3 -4 -5 -4 -6 -6 -8 -8 -8 -6 -4 -7 -1 -2 1 0 3 5 7
-3 -4 -4 -5 -4 -4 -4 -2 -1 -5 -4 -3 -0 1 0 -3 -3 -2 -2 -2 -1 -1 -2 -1 -1 -1 -2 -3 -2 -1 -4 -6 -7 -8 -8 -6 -5 4 4 2 5 6 7 7 7

GFSSW_850_dewp_111.txt.gz
Dewpoint
-11 -13 -18 -23 -25 -27 -27 -28 -28 -28 -29 -29 -29 -29 -29 -30 -30 -30 -29 -27 -18 -19 -13 -11 -4 -4 -7 -1 -1 -2 -2 -0 -2 -4 -5 -8 -6 -7 -8 -8 -8 -7 -6 -5 -3
-14 -16 -19 -19 -21 -24 -26 -27 -28 -28 -28 -28 -29 -29 -30 -31 -31 -29 -25 -10 -8 -13 -8 -7 -8 -4 -5 -1 -1 -3 -2 -3 -5 -6 -6 -6 -7 -7 -8 -8 -9 -9 -9 -9 -6
-8 -15 -21 -22 -23 -24 -25 -26 -27 -27 -28 -29 -29 -29 -31 -32 -30 -20 -7 -9 -6 -6 -7 -6 -6 -5 -2 -1 -2 -5 -2 -6 -6 -7 -7 -7 -7 -7 -8 -7 -8 -9 -10 -8 -7
-5 -8 -14 -23 -25 -26 -26 -26 -26 -27 -27 -28 -29 -30 -31 -32 -24 -4 -8 -10 -12 -11 -13 -11 -5 -4 -4 -1 -2 -1 -4 -5 -5 -4 -5 -6 -6 -8 -8 -8 -6 -8 -8 -8 -6
-11 -15 -16 -21 -25 -27 -28 -29 -30 -30 -29 -29 -29 -30 -31 -19 -30 -30 -17 -7 -12 -13 -15 -12 -3 -4 -3 -3 -3 -2 -3 -3 -3 -3 -4 -5 -6 -6 -7 -5 -6 -7 -7 -7 -3
-9 -12 -15 -21 -24 -26 -28 -30 -31 -31 -30 -30 -29 -28 -18 -5 -28 -15 -16 -16 -13 -13 -13 -8 -3 -3 -3 -4 -3 -3 -3 -3 -4 -4 -4 -4 -4 -5 -6 -5 -6 -7 -5 -4 -3
-6 -7 -13 -15 -17 -24 -28 -30 -31 -31 -31 -30 -26 -18 -12 -28 -29 -27 -10 -9 -9 -11 -12 -13 -13 -10 -9 -9 -8 -8 -7 -7 -6 -5 -4 -5 -3 -5 -5 -5 -4 -4 -4 -4 -4
-5 -7 -11 -18 -21 -20 -25 -28 -30 -29 -31 -28 -18 -11 -9 -30 -24 -29 -21 -17 -12 -11 -12 -12 -15 -13 -14 -11 -10 -9 -8 -5 -4 -4 -5 -5 -2 -5 -6 -5 -3 -4 -4 -4 -4
-6 -10 -13 -18 -18 -19 -21 -26 -23 -20 -13 -10 -10 -8 -6 -12 -9 -13 -9 -10 -10 -7 -6 -8 -13 -14 -14 -10 -8 -8 -6 -5 -5 -6 -6 -6 -7 -7 -6 -6 -3 -4 -5 -5 -7
-7 -10 -14 -21 -15 -10 -12 -16 -16 -6 -4 -0 1 0 -11 -12 -3 -7 -11 -13 -14 -9 -10 -5 -14 -14 -13 -10 -4 -5 -6 -6 -5 -8 -8 -6 -6 -10 -8 -5 -4 -4 -6 -7 -6
-6 -9 -14 -20 -15 -3 -6 -13 -11 -5 -6 -5 -1 2 -5 -6 -7 -6 -9 -13 -14 -13 -9 -5 -10 -10 -13 -10 -8 -8 -8 -8 -10 -12 -13 -13 -11 -11 -11 -6 -5 -6 -7 -6 -5
-4 -6 -9 -17 -14 -4 -2 -2 -1 -2 -0 -3 -7 -8 -14 -15 -10 -22 -10 -15 -11 -10 -8 -6 -1 -7 -13 -13 -12 -12 -10 -10 -13 -15 -12 -11 -10 -10 -9 -9 -7 -5 -5 -4 -5
-3 -5 -9 -15 -11 -5 -2 -2 -2 -2 0 -4 -11 -7 -9 -12 -8 -15 -18 -13 -8 -8 -7 -9 -6 -4 -3 -5 -8 -9 -10 -10 -11 -12 -10 -9 -6 -6 -7 -6 -4 -5 -6 -5 -4
-3 -6 -8 -13 -8 -7 -2 -3 -4 -3 -1 -8 -7 -8 -10 -11 -8 -16 -19 -17 -7 -10 -7 -6 -8 -6 -2 -1 -3 -1 -8 -9 -10 -5 -2 -6 -2 -5 -6 -6 -6 -6 -7 -6 -5
-4 -6 -7 -7 -5 -4 -6 -5 -5 -1 -15 -15 -7 -10 -9 -7 -5 -6 -10 -16 -9 -7 -6 -5 -8 -2 -3 -4 -3 -2 -4 -3 -3 -3 -3 -3 -1 -4 -6 -5 -6 -7 -7 -6 -6
-6 -7 -7 -7 -8 -5 -8 -5 -7 -11 -11 -10 -11 -10 -12 -14 -6 -5 -10 -10 -11 -8 -7 -8 -9 -8 -7 -9 -7 -7 -7 -4 -3 -2 0 -4 -2 -4 -5 -5 -5 -6 -5 2 2
-6 -7 -7 -8 -10 -6 -7 -4 -12 -5 -12 -12 -9 -11 -12 -11 -10 -4 -4 -6 -3 -2 -2 -4 -5 -7 -8 -6 -7 -8 -4 -2 -1 2 0 -4 -1 -4 -5 -5 -3 4 4 4 4
-6 -8 -9 -10 -9 -6 -5 -4 -4 -13 -7 -9 -8 -12 -11 -9 -10 -11 -2 -3 -4 -3 -2 -1 -2 -5 -7 -6 -5 -6 -4 -1 -2 -1 -2 -3 1 -2 -2 -0 4 5 6 5 5
-6 -8 -11 -4 -8 -5 -2 -2 -7 -7 -9 -7 -8 -6 -7 -8 -7 -10 -10 -9 -8 -4 -1 -1 -1 -6 -8 -6 -5 -4 -4 -6 -4 -3 2 -1 -2 -5 -1 4 4 5 6 6 5
-7 -10 -6 -3 -4 -2 -3 -3 -5 -6 -7 -7 -6 -6 -4 -6 -6 -9 -9 -10 -10 -11 -8 -4 -2 -8 -9 -6 -4 -1 -3 -3 -0 2 -0 -1 1 1 0 5 4 5 7 6 4
-6 -8 -2 -3 -3 -2 -3 -3 -4 -7 -6 -5 -3 -4 -5 -5 -7 -7 -10 -9 -9 -10 -9 -11 -6 -4 -7 -6 -7 -1 2 2 2 1 3 1 -1 2 5 5 5 5 5 5 4
-4 -8 -4 -4 -2 -3 -2 -4 -5 -5 -4 -4 -4 -4 -4 -5 -5 -7 -9 -7 -10 -9 -8 -9 -9 -7 -9 -9 -8 -2 3 4 5 5 4 5 3 -1 -1 6 5 5 4 4 4
-4 -6 -8 -6 -7 -7 -3 -3 -3 -6 -3 -3 -3 -5 -5 -4 -2 -7 -8 -8 -9 -8 -8 -7 -6 -6 -9 -4 -4 -1 -4 -5 2 4 3 6 3 -3 -3 -2 5 6 4 3 5
-5 -8 -7 -3 -4 -3 -3 -3 -4 -4 -3 -5 -4 -5 -3 -2 -3 -3 -7 -7 -5 -5 -4 -4 -6 -8 -7 -3 -5 -7 -8 -9 1 3 1 1 -1 -1 -4 -5 3 4 4 5 5
-4 -6 -4 -6 -5 -3 -3 -4 -4 -3 -4 -4 -3 -2 -1 -0 -2 -7 -6 -3 -4 -2 -3 -3 -5 -5 -5 -5 -6 -6 -5 -6 -6 -4 -1 -7 -4 -5 -6 -4 -2 2 3 5 6
-4 -5 -3 -3 -5 -4 -5 -4 -4 -5 -2 -1 -1 -2 -1 1 -4 -4 -2 -2 -3 -3 -2 -2 -1 -3 -3 -4 -4 -3 -3 -4 -5 -5 -6 -7 -8 -11 -6 -3 -0 2 4 5 6
-4 -5 -4 -5 -5 -4 -5 -4 -3 0 -2 -2 0 0 1 -1 -4 -4 -3 -3 -3 -2 -2 -2 -1 -1 -4 -3 -3 -3 -6 -4 -6 -7 -7 -6 -9 -3 3 3 3 4 4 7 7

GFSSW_850_dewp_114.txt.gz
Dewpoint
-18 -21 -23 -24 -24 -25 -26 -26 -27 -28 -28 -29 -29 -29 -29 -30 -29 -30 -29 -26 -27 -23 -24 -16 -6 -6 -7 -3 -2 -3 -2 -0 -4 -3 -5 -8 -6 -7 -7 -8 -8 -8 -8 -8 -8
-10 -14 -18 -22 -23 -24 -25 -25 -26 -27 -28 -28 -28 -29 -29 -30 -31 -29 -19 -22 -21 -8 -17 -17 -7 -3 -5 -2 -1 -3 -1 -1 -4 -5 -6 -6 -6 -7 -7 -7 -7 -7 -7 -8 -8
-10 -15 -18 -21 -23 -26 -26 -27 -27 -27 -28 -28 -29 -29 -30 -31 -30 -24 -4 -7 -11 -11 -7 -6 -5 -4 -2 -1 -1 -3 -1 -4 -5 -5 -6 -7 -7 -6 -7 -6 -6 -6 -6 -6 -8
-7 -13 -23 -25 -26 -26 -28 -29 -29 -30 -29 -30 -29 -30 -31 -32 -26 -8 -8 -12 -10 -8 -7 -7 -4 -5 -3 -1 -2 -2 -4 -5 -5 -5 -5 -5 -4 -6 -5 -6 -5 -5 -5 -6 -7
-11 -15 -18 -23 -25 -25 -27 -29 -30 -30 -30 -31 -30 -30 -29 -21 -31 -31 -20 -9 -8 -12 -11 -9 -4 -5 -4 -4 -3 -1 -2 -3 -4 -4 -3 -3 -4 -4 -6 -5 -4 -5 -6 -6 -6
-14 -18 -23 -25 -25 -26 -27 -28 -29 -29 -30 -31 -28 -27 -15 -11 -29 -26 -16 -14 -21 -17 -13 -10 -5 -3 -3 -2 -2 -3 -3 -4 -4 -3 -3 -4 -4 -4 -4 -4 -5 -5 -6 -4 -3
-15 -20 -22 -25 -25 -27 -29 -29 -28 -27 -29 -29 -23 -17 -10 -30 -31 -32 -28 -9 -10 -8 -10 -12 -12 -12 -9 -8 -8 -7 -7 -8 -7 -5 -4 -5 -3 -4 -4 -4 -5 -5 -4 -4 -5
-13 -20 -25 -24 -25 -28 -30 -31 -28 -26 -25 -22 -10 -7 -9 -32 -30 -30 -25 -26 -12 -9 -9 -11 -11 -11 -13 -13 -10 -9 -8 -6 -6 -6 -5 -4 -1 -4 -6 -7 -7 -10 -11 -5 -7
-10 -16 -22 -23 -24 -26 -30 -29 -25 -21 -11 -6 -5 -5 -10 -16 -6 -5 -9 -11 -13 -14 -13 -10 -9 -13 -13 -10 -7 -8 -5 -6 -7 -6 -5 -5 -4 -9 -8 -12 -10 -10 -10 -9 -10
-9 -15 -19 -16 -21 -23 -27 -26 -21 -11 -6 -4 1 1 -10 -8 -5 -4 -5 -8 -9 -9 -10 -10 -13 -13 -12 -8 -5 -4 -5 -6 -6 -9 -7 -7 -7 -10 -14 -13 -10 -10 -10 -10 -9
-11 -12 -13 -15 -15 -13 -15 -17 -12 -8 -9 -8 -9 -5 -14 -17 -12 -15 -12 -13 -13 -12 -8 -7 -9 -10 -12 -11 -9 -8 -7 -7 -9 -11 -12 -11 -12 -14 -14 -13 -10 -10 -9 -8 -9
-6 -9 -17 -18 -14 -9 -3 -3 -2 -1 -1 -5 -20 -6 -14 -10 -5 -13 -14 -13 -11 -10 -9 -8 -2 -7 -13 -13 -11 -10 -9 -8 -12 -13 -12 -13 -12 -12 -11 -10 -10 -9 -8 -8 -8
-7 -10 -16 -19 -14 -13 -4 -3 -3 -2 -0 -5 -9 -7 -9 -8 -4 -9 -13 -13 -11 -9 -8 -9 -9 -7 -6 -9 -10 -11 -11 -10 -11 -12 -11 -9 -6 -7 -8 -9 -7 -7 -8 -8 -8
-6 -10 -12 -18 -12 -13 -7 -8 -4 -3 -1 -8 -8 -7 -9 -9 -6 -7 -13 -15 -10 -12 -11 -9 -11 -11 -2 -2 -5 -3 -7 -7 -5 -7 -2 -6 -2 -6 -6 -7 -7 -8 -8 -8 -1
-8 -11 -11 -11 -10 -8 -10 -10 -6 -1 -16 -17 -8 -10 -15 -9 -12 -7 -10 -16 -13 -7 -7 -8 -5 -6 -9 -6 -2 -1 -4 -5 -5 -3 -3 -3 -2 -5 -8 -7 -8 -7 -7 2 4
-7 -11 -12 -12 -11 -11 -13 -11 -7 -21 -19 -13 -10 -10 -13 -14 -13 -12 -11 -15 -15 -12 -8 -10 -9 -5 -4 -5 -5 -6 -5 -5 -3 -3 0 -4 -4 -7 -7 -6 -6 -4 3 5 5
-8 -11 -10 -10 -11 -13 -13 -6 -17 -16 -17 -10 -8 -10 -13 -8 -10 -11 -10 -8 -5 -3 -3 -5 -6 -7 -8 -6 -8 -8 -5 -3 -5 2 -2 -4 -2 -6 -7 -6 3 5 5 5 5
-8 -11 -11 -12 -11 -12 -9 -7 -11 -15 -10 -8 -9 -11 -9 -8 -9 -9 -10 -9 -9 -8 -2 -1 -2 -5 -7 -6 -5 -6 -5 -1 -3 -3 -5 -3 -1 -3 -4 1 3 4 4 6 5
-9 -11 -11 -5 -8 -8 -4 -5 -11 -6 -6 -5 -8 -8 -5 -7 -8 -8 -8 -10 -10 -10 -6 0 -1 -6 -8 -6 -4 -4 -3 -5 -3 -4 -0 -3 -4 -6 -1 2 3 3 4 3 0
-9 -11 -4 -5 -5 -5 -5 -6 -5 -6 -6 -6 -6 -4 -3 -5 -7 -9 -7 -8 -8 -10 -9 -5 -0 -7 -8 -3 -8 -3 -1 -2 -0 1 0 -3 -1 -1 4 5 4 4 4 3 0
-8 -9 -3 -2 -3 -4 -6 -4 -4 -6 -5 -3 -3 -3 -4 -4 -6 -6 -6 -8 -8 -9 -10 -8 -7 -5 -8 -7 -7 -3 1 2 2 3 4 4 -2 2 0 5 5 4 4 4 3
-7 -9 -4 -5 -4 -3 -3 -4 -4 -4 -6 -4 -4 -3 -3 -4 -4 -4 -4 -8 -10 -8 -7 -8 -6 -5 -8 -6 -6 1 3 3 3 5 4 4 3 -2 -4 -3 -2 5 5 4 3
-6 -6 -8 -6 -8 -8 -5 -3 -4 -5 -6 -3 -3 -4 -5 -3 -2 -2 -3 -8 -8 -8 -6 -4 -4 -6 -6 -3 -6 -3 -6 -0 2 3 3 4 1 -3 -6 -7 -7 3 3 5 4
-6 -8 -8 -4 -5 -4 -3 -4 -3 -5 -5 -4 -4 -4 -4 -3 -3 -2 -2 -5 -6 -5 -2 -3 -3 -6 -6 -6 -6 -8 -8 -7 1 1 -1 1 -3 -9 -8 -7 -9 -7 1 5 5
-5 -7 -5 -6 -6 -3 -4 -4 -5 -4 -4 -4 -3 -3 -2 0 -1 -1 -3 -5 -5 -3 -4 -3 -4 -6 -5 -6 -6 -6 -6 -6 -5 -4 -2 -9 -9 -11 -10 -11 -10 -10 0 4 4
-5 -5 -5 -4 -4 -4 -5 -4 -6 -6 -2 -2 -1 -2 -1 0 -1 1 -3 -1 -4 -4 -4 -3 -2 -3 -3 -4 -4 -3 -4 -4 -4 -5 -6 -6 -6 -10 -11 -11 -11 -3 2 4 4
-5 -5 -6 -6 -6 -4 -6 -6 -4 -4 -2 -1 -0 -0 0 -1 -1 -1 -3 -4 -3 -3 -2 -3 -3 -1 -4 -4 -4 -5 -7 -6 -5 -5 -6 -4 -7 -9 -9 -7 3 4 5 5 5

GFSSW_850_dewp_117.txt.gz
Dewpoint
-20 -21 -22 -23 -24 -25 -26 -27 -27 -27 -28 -28 -28 -29 -29 -29 -29 -29 -27 -25 -25 -25 -25 -21 -7 -8 -6 -3 -4 -5 -4 -5 -9 -6 -9 -7 -6 -7 -7 -7 -7 -8 -7 -7 -8
-16 -21 -23 -25 -26 -27 -28 -29 -29 -30 -30 -30 -31 -31 -31 -31 -31 -29 -13 -10 -11 -25 -19 -16 -6 -6 -3 -2 -2 -3 -3 -5 -6 -8 -7 -7 -6 -6 -7 -6 -6 -5 -6 -6 -5
-16 -22 -25 -26 -26 -26 -26 -27 -28 -29 -29 -30 -31 -32 -32 -32 -30 -25 -5 -6 -10 -8 -8 -13 -7 -3 -3 -1 -1 -2 -4 -4 -5 -5 -5 -6 -6 -6 -6 -5 -5 -4 -5 -5 -5
-19 -19 -21 -24 -25 -26 -27 -27 -27 -27 -28 -29 -30 -30 -30 -30 -24 -25 -5 -10 -7 -8 -6 -4 -3 -2 -3 -1 -1 -2 -3 -4 -5 -5 -5 -5 -5 -5 -4 -4 -4 -4 -4 -5 -5
-23 -23 -23 -24 -26 -28 -29 -29 -28 -27 -28 -28 -27 -27 -24 -18 -31 -31 -31 -12 -10 -10 -7 -7 -4 -5 -4 -4 -3 -1 -3 -4 -4 -5 -4 -4 -3 -3 -4 -4 -4 -4 -4 -4 -5
-23 -23 -24 -26 -28 -30 -31 -31 -30 -29 -30 -28 -24 -19 -14 -12 -30 -30 -27 -18 -13 -20 -14 -10 -9 -6 -5 -4 -3 -2 -3 -3 -4 -4 -3 -3 -3 -3 -4 -4 -4 -4 -4 -5 -4
-22 -23 -25 -27 -29 -30 -31 -31 -31 -31 -30 -27 -21 -12 -7 -24 -28 -29 -31 -31 -14 -11 -8 -10 -9 -5 -7 -7 -6 -6 -5 -7 -6 -5 -4 -4 -3 -3 -5 -4 -5 -5 -5 -9 -10
-17 -20 -26 -28 -30 -31 -32 -33 -33 -32 -27 -18 -12 -7 -10 -19 -23 -16 -8 -12 -24 -10 -10 -10 -9 -11 -11 -12 -10 -9 -8 -5 -6 -7 -6 -5 -2 -4 -5 -7 -11 -13 -14 -13 -13
-19 -23 -24 -26 -28 -31 -32 -32 -30 -25 -16 -10 -6 -3 -8 -16 -9 -4 -7 -9 -7 -17 -16 -11 -8 -11 -12 -11 -10 -7 -5 -5 -6 -6 -4 -3 -3 -6 -7 -11 -13 -14 -13 -12 -11
-21 -20 -24 -26 -26 -28 -29 -29 -23 -15 -8 -7 -3 -5 -10 -13 -12 -15 -16 -12 -10 -10 -6 -8 -11 -11 -11 -10 -9 -8 -6 -6 -6 -8 -7 -6 -4 -7 -10 -14 -14 -12 -11 -10 -9
-18 -21 -23 -24 -22 -18 -28 -29 -14 -10 -15 -11 -12 -6 -12 -17 -13 -15 -13 -11 -12 -11 -8 -9 -8 -8 -10 -10 -12 -8 -6 -6 -7 -9 -9 -8 -9 -11 -14 -14 -12 -10 -9 -9 -8
-20 -21 -24 -24 -19 -20 -14 -6 -3 -3 -1 -11 -10 -5 -10 -7 -5 -12 -12 -13 -10 -9 -10 -6 -3 -6 -11 -12 -11 -10 -8 -7 -8 -11 -10 -11 -9 -10 -11 -10 -10 -9 -8 -8 -7
-23 -22 -25 -24 -19 -18 -8 -8 -5 -3 -1 -8 -10 -9 -9 -8 -5 -10 -11 -13 -11 -8 -9 -9 -9 -8 -8 -10 -11 -10 -9 -8 -10 -11 -10 -9 -6 -7 -8 -9 -8 -8 -8 -8 -4
-18 -23 -22 -21 -16 -16 -14 -11 -6 -3 -4 -14 -7 -8 -17 -9 -8 -14 -9 -11 -12 -12 -9 -9 -10 -10 -6 -5 -8 -6 -10 -11 -11 -5 -3 -5 -4 -7 -7 -6 -7 -8 -6 1 4
-17 -16 -17 -16 -15 -17 -17 -16 -7 -1 -25 -18 -10 -12 -16 -13 -14 -14 -12 -13 -10 -12 -9 -7 -6 -9 -9 -9 -7 -7 -4 -7 -5 -3 -4 -3 -3 -6 -7 -9 -7 -6 1 4 5
-13 -14 -17 -16 -16 -17 -18 -14 -7 -24 -25 -15 -10 -12 -12 -10 -11 -11 -12 -14 -12 -9 -9 -8 -9 -6 -9 -10 -6 -3 -3 -3 -3 -2 -2 -4 -6 -8 -8 -6 -6 1 4 6 5
-14 -16 -15 -16 -14 -17 -17 -10 -20 -24 -17 -8 -8 -12 -10 -9 -10 -12 -11 -10 -10 -6 -3 -6 -10 -9 -7 -6 -5 -5 -4 -4 -2 -0 -6 -5 -4 -6 -6 -2 3 4 4 5 3
-15 -14 -14 -9 -11 -14 -10 -15 -16 -12 -8 -8 -9 -11 -7 -8 -10 -12 -12 -9 -11 -11 -8 -1 -1 -6 -7 -6 -5 -3 -4 -5 -8 -6 -8 -4 -5 -4 2 2 2 3 4 3 2
-14 -13 -7 -7 -10 -10 -9 -14 -14 -6 -6 -6 -8 -7 -6 -7 -7 -10 -10 -10 -10 -9 -8 -4 -1 -6 -7 -5 -6 -4 -3 -6 -6 -4 -2 -3 -4 -2 1 1 -1 -1 2 3 4
-11 -9 -2 -5 -5 -8 -6 -8 -6 -6 -5 -5 -5 -4 -4 -6 -6 -8 -8 -9 -9 -9 -8 -8 -6 -6 -7 -5 -5 -3 -3 -2 -1 -0 -1 -3 -3 -0 -2 -2 -5 -4 -0 3 4
-11 -7 -4 -4 -5 -8 -4 -5 -5 -6 -5 -4 -3 -4 -5 -4 -5 -6 -8 -9 -9 -9 -9 -8 -6 -7 -7 -3 -4 -3 0 2 0 2 -2 -2 -3 -1 -2 -3 -7 -8 -7 1 5
-9 -6 -5 -6 -5 -4 -4 -4 -5 -5 -6 -7 -4 -3 -3 -4 -4 -4 -5 -6 -8 -8 -9 -7 -5 -4 -7 -4 -3 1 3 2 2 3 3 2 -0 -2 -3 -7 -9 -10 -10 -2 4
-7 -7 -7 -7 -5 -6 -6 -5 -5 -5 -6 -5 -4 -4 -5 -5 -4 -4 -4 -5 -6 -6 -7 -5 -3 -3 -1 -2 -5 -6 -9 0 1 1 3 2 -4 -3 -8 -11 -12 -11 -10 -8 5
-8 -7 -7 -5 -5 -4 -3 -5 -5 -7 -7 -7 -6 -5 -4 -3 -4 -2 -3 -5 -5 -6 -4 -3 -5 -5 -2 -4 -6 -7 -8 -8 -1 -2 -3 -3 -5 -11 -12 -12 -12 -13 -12 -9 4
-6 -6 -5 -5 -5 -5 -5 -6 -6 -5 -6 -4 -3 -3 -2 -0 -2 -3 -4 -3 -5 -6 -3 -4 -6 -7 -8 -7 -6 -6 -7 -7 -7 -8 -7 -10 -11 -13 -13 -13 -13 -11 -10 -9 2
-7 -6 -5 -5 -4 -5 -6 -6 -6 -5 -3 -3 -1 -3 -2 -1 -0 -0 1 -3 -4 -5 -2 -4 -6 -4 -4 -6 -7 -6 -6 -5 -6 -6 -6 -7 -7 -9 -11 -11 -10 -9 -7 1 4
-6 -6 -7 -6 -6 -5 -6 -6 -6 -3 -4 -3 -1 -1 -0 -1 -2 -2 -1 -1 -2 -2 -3 -3 -4 -6 -7 -8 -6 -5 -7 -7 -7 -8 -7 -8 -10 -12 -9 -10 -9 -5 1 5 6

GFSSW_850_dewp_120.txt.gz
Dewpoint
-21 -22 -24 -25 -27 -28 -29 -30 -30 -30 -31 -31 -32 -32 -32 -32 -31 -30 -24 -21 -23 -24 -24 -24 -18 -2 -3 -4 -4 -6 -5 -5 -7 -9 -10 -11 -9 -8 -7 -8 -8 -8 -7 -6 -3
-22 -24 -26 -27 -27 -28 -28 -29 -29 -29 -30 -31 -31 -32 -32 -32 -32 -29 -13 -7 -7 -6 -15 -6 -5 -3 -4 -4 -4 -5 -5 -5 -8 -9 -10 -10 -8 -8 -8 -9 -9 -7 -6 -5 -4
-24 -25 -26 -26 -27 -29 -29 -29 -29 -29 -29 -30 -30 -30 -31 -31 -22 -21 -6 -6 -9 -15 -8 -5 -6 -5 -7 -5 -4 -5 -4 -6 -7 -8 -10 -10 -10 -9 -9 -10 -10 -8 -7 -5 -3
-25 -26 -27 -27 -29 -30 -31 -31 -31 -31 -31 -30 -30 -30 -27 -28 -20 -12 -16 -9 -8 -8 -4 -4 -5 -5 -7 -5 -5 -3 -5 -6 -7 -6 -7 -7 -8 -8 -7 -8 -8 -6 -5 -4 -4
-24 -25 -27 -28 -30 -30 -31 -31 -31 -31 -31 -30 -30 -28 -21 -10 -20 -25 -30 -30 -25 -9 -3 -4 -4 -5 -5 -7 -6 -3 -5 -6 -5 -5 -5 -6 -6 -6 -6 -6 -5 -6 -4 -4 -4
-24 -26 -27 -29 -30 -30 -31 -32 -32 -32 -31 -31 -29 -23 -10 -12 -21 -30 -30 -26 -10 -9 -7 -5 -6 -6 -6 -7 -6 -7 -5 -5 -6 -6 -6 -5 -5 -5 -5 -4 -4 -3 -4 -3 -3
-24 -26 -29 -30 -31 -32 -32 -32 -32 -32 -32 -30 -23 -13 -6 -11 -17 -22 -26 -28 -21 -10 -6 -9 -7 -6 -8 -7 -7 -7 -6 -8 -7 -6 -5 -4 -3 -3 -4 -4 -4 -4 -4 -3 -5
-25 -28 -30 -31 -31 -31 -32 -32 -32 -32 -31 -26 -17 -6 -4 -11 -15 -5 -6 -6 -7 -11 -13 -8 -7 -7 -9 -9 -9 -8 -8 -6 -9 -8 -7 -5 -5 -6 -5 -5 -4 -7 -10 -10 -9
-26 -28 -28 -29 -30 -31 -31 -31 -31 -27 -19 -12 -2 -1 -5 -11 -5 -8 -9 -6 -8 -2 -9 -9 -7 -10 -12 -10 -11 -12 -8 -8 -8 -8 -7 -5 -5 -6 -6 -7 -9 -10 -13 -13 -10
-26 -26 -28 -28 -29 -29 -30 -31 -23 -17 -16 -14 -5 -2 -8 -14 -13 -14 -12 -10 -9 -8 -5 -9 -9 -8 -9 -11 -10 -11 -11 -10 -9 -9 -7 -6 -6 -8 -8 -8 -10 -12 -14 -11 -10
-25 -27 -27 -27 -26 -27 -30 -18 -10 -9 -9 -9 -9 -8 -8 -7 -8 -9 -10 -11 -10 -11 -7 -10 -10 -9 -12 -11 -12 -13 -13 -12 -13 -11 -9 -9 -9 -10 -11 -12 -14 -14 -12 -10 -9
-26 -27 -27 -25 -21 -22 -24 -5 -4 -9 -4 -11 -8 -7 -8 -7 -6 -12 -9 -11 -15 -13 -13 -7 -8 -16 -17 -14 -11 -11 -12 -13 -15 -11 -8 -9 -11 -14 -15 -13 -13 -12 -11 -9 -8
-26 -27 -27 -27 -23 -24 -17 -11 -7 -4 -3 -9 -7 -7 -14 -6 -8 -16 -9 -10 -10 -11 -14 -9 -12 -10 -8 -7 -8 -9 -9 -11 -12 -13 -13 -12 -12 -13 -13 -12 -11 -9 -8 -7 -4
-25 -27 -28 -26 -21 -21 -7 -14 -9 -5 -8 -18 -7 -12 -17 -18 -11 -14 -12 -10 -8 -9 -12 -11 -12 -11 -9 -6 -6 -5 -10 -11 -11 -9 -9 -12 -8 -10 -10 -10 -9 -10 -7 -2 1
-25 -25 -26 -25 -22 -9 -17 -17 -7 -1 -23 -15 -12 -13 -19 -17 -17 -19 -12 -11 -8 -8 -8 -9 -9 -9 -8 -9 -10 -7 -10 -7 -6 -8 -9 -10 -6 -11 -11 -8 -9 -7 -0 2 4
-23 -23 -23 -23 -21 -20 -22 -15 -5 -11 -24 -13 -12 -14 -19 -15 -18 -17 -16 -12 -12 -10 -8 -6 -8 -10 -10 -12 -12 -11 -8 -4 -4 -6 -3 -6 -6 -11 -9 -10 -9 -1 2 3 2
-21 -21 -20 -19 -13 -22 -22 -6 -17 -26 -20 -11 -10 -14 -18 -12 -16 -16 -19 -13 -10 -8 -6 -7 -6 -8 -8 -8 -5 -8 -4 -2 -1 -1 -3 -12 -10 -10 -11 -5 -1 1 1 1 2
-18 -19 -17 -17 -18 -19 -15 -15 -19 -15 -10 -11 -11 -16 -13 -11 -14 -13 -16 -23 -12 -10 -9 -7 -2 -4 -9 -6 -5 -4 -3 -4 -1 -3 -5 -8 -8 -5 0 0 -0 -0 1 2 2
-17 -15 -12 -13 -14 -15 -10 -21 -13 -9 -8 -8 -13 -14 -12 -12 -10 -11 -13 -14 -11 -9 -6 -7 -7 -5 -5 -4 -7 -4 0 -5 -4 -5 -5 -7 -1 1 -1 -4 -4 -4 -2 0 1
-15 -5 -3 -9 -11 -8 -12 -9 -9 -8 -8 -8 -9 -9 -9 -10 -9 -9 -11 -15 -13 -10 -10 -8 -5 -8 -4 -1 -1 -3 -5 -4 -4 -1 -5 -10 -5 -4 -1 -7 -12 -15 -14 -8 -3
-13 -4 -6 -9 -8 -7 -7 -8 -8 -8 -9 -8 -8 -8 -9 -7 -8 -8 -9 -12 -11 -8 -10 -11 -6 -7 -7 -1 3 4 1 0 -1 -4 -3 -4 -6 -4 -3 -6 -9 -12 -14 -13 -8
-10 -3 -7 -9 -5 -6 -8 -8 -7 -10 -8 -9 -7 -6 -6 -7 -7 -8 -8 -9 -10 -8 -7 -11 -7 -4 -6 -7 -4 -1 5 6 6 1 -2 -3 -3 -4 -2 -5 -12 -11 -14 -12 -12
-4 -7 -7 -5 -3 -6 -7 -7 -7 -7 -8 -9 -9 -9 -9 -8 -6 -9 -8 -9 -8 -8 -6 -6 -7 -6 -8 -4 -1 -1 -5 -3 1 3 2 1 -3 -2 -2 -7 -12 -13 -15 -13 -13
-4 -3 -6 -5 -5 -6 -5 -7 -9 -10 -9 -10 -8 -7 -6 -5 -7 -5 -6 -7 -7 -7 -6 -5 -7 -6 -6 -1 -4 -4 -3 -6 -6 -1 -1 -3 -6 -7 -10 -14 -15 -15 -15 -12 -11
-5 -4 -6 -4 -6 -8 -8 -9 -7 -6 -7 -7 -6 -5 -4 -2 -5 -5 -6 -4 -5 -6 -7 -7 -7 -10 -11 -11 -10 -6 -5 -7 -7 -8 -6 -7 -10 -13 -14 -14 -15 -14 -13 -11 -9
-3 -5 -5 -7 -7 -8 -7 -8 -7 -7 -5 -4 -3 -1 -2 -2 0 1 -2 -2 -3 -7 -6 -7 -6 -8 -8 -10 -9 -8 -9 -9 -10 -9 -10 -11 -10 -13 -15 -16 -14 -12 -12 -9 -5
-7 -6 -6 -6 -7 -8 -7 -7 -6 -4 -6 -5 -1 -1 -5 -5 -6 -4 -3 -3 -3 -1 -2 -3 -5 -6 -6 -11 -11 -8 -10 -11 -11 -12 -11 -8 -11 -15 -14 -13 -11 -10 -10 -3 2

GFSSW_850_dewp_123.txt.gz
Dewpoint
-21 -23 -25 -27 -28 -29 -29 -30 -30 -30 -31 -31 -31 -31 -31 -31 -30 -27 -11 -13 -12 -14 -22 -15 -4 -6 -5 -6 -6 -5 -3 -3 -6 -7 -9 -12 -11 -11 -12 -13 -9 -8 -9 -5 -5
-23 -25 -27 -28 -29 -29 -30 -30 -30 -31 -31 -31 -31 -31 -31 -31 -30 -16 -11 -12 -7 -7 -7 -12 -6 -7 -6 -5 -5 -5 -2 -4 -7 -8 -8 -10 -10 -10 -9 -9 -10 -9 -8 -7 -5
-25 -27 -28 -28 -29 -30 -31 -31 -31 -32 -32 -32 -31 -31 -31 -31 -9 -10 -10 -8 -9 -9 -8 -7 -7 -8 -7 -7 -5 -4 -2 -5 -7 -8 -8 -9 -10 -9 -9 -9 -10 -11 -10 -8 -6
-25 -27 -27 -29 -30 -30 -30 -30 -29 -29 -28 -28 -28 -29 -28 -25 -10 -7 -21 -28 -27 -11 -1 -4 -7 -7 -7 -6 -8 -4 -5 -6 -6 -7 -7 -7 -8 -8 -9 -9 -9 -9 -9 -9 -6
-26 -27 -28 -28 -29 -28 -28 -29 -29 -27 -27 -29 -29 -28 -23 -6 -12 -16 -22 -24 -20 -11 -4 -4 -5 -7 -6 -7 -8 -6 -6 -6 -6 -6 -6 -7 -6 -6 -6 -7 -7 -7 -7 -6 -5
-25 -27 -28 -29 -30 -30 -31 -31 -31 -31 -31 -32 -31 -28 -8 -7 -15 -15 -19 -24 -16 -7 -9 -5 -6 -6 -6 -7 -7 -8 -7 -7 -6 -6 -7 -6 -6 -6 -6 -6 -5 -5 -5 -5 -4
-25 -27 -29 -30 -30 -31 -31 -32 -32 -32 -32 -30 -28 -21 -3 -8 -8 -10 -11 -12 -15 -20 -12 -10 -9 -7 -8 -6 -7 -8 -6 -7 -7 -6 -6 -6 -4 -5 -7 -7 -6 -5 -4 -3 -3
-26 -28 -30 -30 -31 -31 -32 -33 -33 -32 -29 -24 -17 0 -4 -7 -10 -6 -5 -6 -7 -6 -9 -18 -12 -10 -9 -7 -7 -7 -7 -5 -7 -9 -9 -8 -4 -7 -8 -7 -6 -5 -5 -4 -4
-28 -30 -30 -30 -31 -32 -33 -33 -32 -28 -21 -22 2 2 -6 -9 -10 -11 -13 -15 -14 -9 -4 -10 -14 -10 -10 -8 -7 -7 -5 -6 -7 -10 -10 -8 -6 -8 -9 -6 -6 -6 -6 -8 -9
-28 -29 -29 -30 -31 -33 -33 -33 -15 -15 -9 -2 -2 -3 -7 -10 -8 -9 -11 -12 -12 -12 -6 -10 -13 -9 -10 -11 -8 -8 -9 -10 -9 -11 -10 -7 -7 -8 -8 -7 -6 -9 -9 -11 -12
-27 -28 -29 -30 -32 -31 -33 -8 -9 -4 -9 -10 -10 -9 -11 -9 -8 -12 -10 -10 -12 -10 -9 -8 -11 -11 -12 -11 -12 -12 -11 -11 -12 -14 -12 -10 -9 -9 -10 -9 -8 -9 -10 -12 -14
-27 -28 -30 -31 -26 -26 -9 -8 -6 -5 -6 -8 -7 -7 -12 -8 -9 -15 -11 -9 -10 -11 -12 -11 -6 -10 -14 -14 -12 -12 -10 -10 -12 -15 -15 -11 -9 -11 -13 -11 -11 -11 -14 -15 -13
-28 -30 -29 -28 -24 -7 -6 -6 -5 -3 -4 -11 -8 -13 -17 -16 -12 -17 -16 -12 -9 -8 -9 -10 -12 -12 -10 -10 -14 -14 -11 -9 -10 -13 -14 -12 -10 -11 -15 -17 -16 -14 -15 -13 -9
-30 -29 -28 -24 -7 -8 -5 -6 -4 -5 -3 -13 -8 -12 -20 -19 -13 -21 -21 -14 -12 -7 -8 -8 -12 -11 -11 -10 -9 -6 -10 -11 -10 -8 -7 -10 -9 -12 -14 -15 -14 -14 -12 -9 -5
-29 -29 -28 -23 -8 -9 -8 -10 -6 0 -8 -15 -13 -14 -20 -19 -18 -21 -21 -18 -13 -13 -9 -8 -7 -8 -7 -8 -10 -8 -9 -9 -8 -7 -7 -10 -10 -11 -12 -10 -11 -11 -9 -5 -0
-28 -28 -25 -8 -4 -6 -16 -18 -1 -1 -14 -13 -15 -16 -19 -23 -18 -21 -21 -24 -23 -16 -14 -12 -12 -8 -6 -10 -10 -8 -6 -8 -6 -5 -3 -6 -7 -9 -9 -9 -10 -10 -4 -0 -0
-27 -24 -19 -6 -4 -21 -18 -2 -6 -17 -20 -12 -12 -15 -19 -15 -16 -19 -17 -20 -22 -11 -11 -16 -14 -10 -10 -6 -8 -9 -6 0 -1 1 3 -7 -7 -9 -10 -12 -11 -6 -0 -1 0
-22 -23 -21 -6 -11 -16 -3 -8 -12 -15 -12 -13 -14 -16 -16 -13 -13 -13 -14 -17 -21 -19 -11 -10 -11 -8 -4 -6 -5 -6 -5 -1 2 2 -1 -6 -4 -7 -12 -3 -2 -1 -1 0 0
-17 -5 -3 -16 -21 -16 -5 -14 -10 -10 -11 -11 -13 -14 -16 -15 -13 -13 -13 -14 -18 -15 -10 -9 -10 -13 -6 -3 -3 -4 1 -5 -1 -2 -1 -3 -5 -2 -2 -1 -2 -3 -2 -0 0
-4 -4 -5 -20 -21 -2 -9 -10 -10 -11 -11 -12 -10 -12 -10 -12 -11 -11 -12 -16 -16 -16 -14 -10 -7 -12 -12 -3 -5 3 -2 3 3 6 3 -3 -4 -1 -1 -3 -4 -6 -8 -9 -7
-5 -6 -6 -15 -5 -7 -8 -9 -11 -11 -12 -12 -12 -11 -11 -10 -10 -10 -11 -13 -14 -12 -11 -11 -11 -13 -13 -7 -1 1 3 -2 0 3 1 -1 -5 -7 -1 -5 -9 -11 -12 -12 -13
-5 -1 -10 -5 -5 -9 -9 -11 -10 -12 -10 -10 -10 -8 -8 -9 -9 -10 -10 -12 -13 -12 -9 -11 -5 -8 -11 -10 -4 -2 1 5 7 1 -0 -1 -2 -2 -4 -7 -7 -9 -11 -12 -12
-4 -8 -6 -2 -1 -6 -8 -9 -10 -10 -11 -11 -11 -12 -11 -9 -8 -10 -11 -13 -11 -10 -9 -5 -6 -3 -8 -14 -3 0 -0 0 2 4 5 4 3 -1 -2 -5 -9 -13 -14 -14 -12
-3 -2 -7 -6 -8 -6 -6 -9 -10 -11 -11 -12 -10 -10 -7 -5 -8 -5 -8 -10 -7 -7 -7 -6 -5 -5 -5 -9 0 -4 1 -3 -3 1 1 5 5 4 4 -5 -14 -15 -15 -15 -14
-1 -5 -6 -1 -6 -8 -9 -10 -8 -8 -9 -9 -8 -6 -4 -3 -5 -5 -4 -4 -8 -7 -7 -6 -4 -5 -8 -12 -14 -13 -10 -6 -3 -3 -2 -5 -3 1 -6 -13 -14 -15 -15 -14 -14
-2 -5 -7 -8 -8 -8 -8 -8 -9 -9 -7 -5 -4 -5 -4 -4 -2 -1 -5 -5 -3 -4 -5 -8 0 -5 -7 -10 -12 -13 -13 -10 -8 -7 -7 -7 -8 -12 -13 -15 -16 -16 -14 -12 -12
-5 -4 -5 -7 -7 -7 -7 -8 -8 -5 -7 -7 -4 -2 -5 -7 -7 -6 -6 -5 -5 -4 -3 -3 -3 -5 -4 -9 -9 -10 -14 -14 -13 -12 -9 -9 -10 -13 -15 -16 -14 -10 -9 -8 -10

GFSSW_850_dewp_126.txt.gz
Dewpoint
-19 -22 -24 -26 -27 -28 -29 -30 -30 -31 -31 -31 -31 -31 -31 -30 -25 -24 -8 -8 -10 -11 -9 -15 -15 -5 -4 -3 -4 -4 -3 -2 -4 -5 -6 -9 -10 -12 -12 -13 -14 -7 -7 -6 -3
-21 -24 -25 -27 -28 -29 -30 -31 -31 -31 -31 -31 -30 -29 -29 -28 -23 -16 -5 -7 -11 -10 -9 -9 -13 -9 -6 -7 -6 -5 -2 -3 -6 -6 -7 -9 -9 -11 -11 -11 -12 -9 -9 -9 -6
-22 -25 -27 -28 -29 -30 -31 -30 -28 -27 -25 -25 -24 -24 -24 -24 -7 -4 -12 -9 -16 -25 -23 -4 -7 -10 -7 -7 -6 -5 -3 -5 -6 -6 -7 -8 -8 -10 -10 -9 -10 -10 -9 -9 -8
-24 -27 -27 -28 -29 -29 -27 -26 -25 -25 -25 -26 -26 -27 -25 -21 -6 -8 -13 -16 -21 -26 -6 -4 -4 -7 -6 -7 -7 -5 -6 -6 -6 -5 -6 -6 -7 -8 -9 -9 -9 -10 -10 -10 -9
-26 -27 -28 -28 -28 -27 -27 -27 -27 -27 -28 -28 -29 -30 -28 -2 -5 -13 -16 -17 -20 -7 -8 -7 -5 -6 -6 -8 -8 -6 -7 -8 -7 -6 -6 -7 -6 -6 -7 -7 -8 -8 -8 -8 -7
-25 -26 -28 -28 -28 -28 -28 -29 -30 -31 -32 -32 -32 -31 -20 -4 -9 -13 -12 -13 -16 -18 -13 -8 -7 -6 -6 -6 -6 -7 -8 -8 -8 -7 -7 -6 -6 -6 -6 -6 -6 -6 -6 -7 -6
-24 -26 -28 -28 -28 -29 -30 -31 -32 -33 -33 -33 -30 -26 -2 -7 -9 -8 -11 -9 -8 -9 -17 -17 -11 -10 -7 -6 -7 -7 -5 -6 -6 -8 -7 -7 -5 -5 -7 -7 -7 -7 -6 -5 -5
-25 -27 -28 -29 -30 -31 -32 -32 -33 -32 -29 -23 -20 -5 -0 -6 -10 -8 -9 -11 -11 -7 -7 -7 -12 -16 -12 -10 -10 -6 -6 -4 -7 -7 -7 -7 -3 -6 -7 -6 -6 -7 -7 -5 -4
-25 -28 -29 -30 -31 -32 -34 -33 -29 -25 -15 -13 3 3 -4 -10 -7 -10 -11 -11 -12 -13 -15 -8 -6 -11 -17 -10 -7 -7 -3 -4 -5 -8 -8 -7 -5 -8 -9 -9 -8 -7 -7 -6 -5
-27 -29 -30 -30 -32 -34 -34 -27 -12 -15 -6 -2 -0 -4 -5 -11 -10 -9 -11 -11 -11 -13 -12 -10 -7 -12 -14 -11 -6 -6 -7 -7 -6 -8 -9 -9 -7 -9 -9 -9 -8 -8 -6 -6 -5
-28 -29 -30 -31 -34 -34 -34 -8 -6 -2 -8 -10 -11 -11 -11 -10 -8 -14 -12 -10 -10 -12 -10 -12 -6 -7 -12 -11 -10 -10 -9 -9 -10 -12 -10 -6 -6 -7 -9 -9 -8 -7 -6 -8 -8
-28 -29 -30 -34 -33 -32 -11 -7 -5 -3 -5 -10 -9 -7 -14 -13 -12 -17 -19 -15 -11 -8 -10 -11 -8 -9 -9 -10 -11 -11 -9 -8 -9 -11 -10 -10 -6 -8 -10 -10 -11 -12 -7 -8 -9
-27 -29 -32 -33 -31 -12 -7 -7 -5 -3 -2 -8 -9 -10 -17 -18 -17 -14 -21 -21 -16 -12 -10 -8 -9 -12 -12 -11 -8 -8 -9 -9 -10 -12 -11 -8 -6 -8 -12 -13 -12 -13 -14 -10 -11
-27 -31 -31 -30 -7 -7 -4 -7 -4 -1 1 -10 -8 -11 -19 -22 -17 -18 -21 -21 -22 -14 -14 -12 -10 -10 -10 -10 -11 -8 -11 -9 -9 -9 -7 -10 -5 -7 -10 -11 -11 -13 -14 -14 -12
-31 -31 -30 -21 -6 -6 -5 -7 -3 1 0 -15 -13 -15 -19 -23 -23 -20 -22 -22 -20 -22 -22 -16 -16 -14 -11 -9 -10 -8 -10 -9 -7 -6 -6 -6 -4 -5 -9 -9 -11 -12 -13 -13 -8
-30 -29 -26 -12 -11 -3 -9 -21 -0 3 -5 -13 -16 -16 -18 -21 -20 -18 -20 -18 -21 -21 -22 -20 -18 -16 -15 -14 -11 -9 -9 -8 -6 -4 -1 -4 -4 -4 -7 -10 -8 -10 -11 -6 0
-29 -28 -24 -7 -1 -3 -19 0 1 -4 -19 -13 -14 -17 -17 -18 -15 -15 -14 -15 -16 -16 -18 -20 -16 -16 -17 -12 -7 -7 -6 -2 3 2 2 -4 -3 -4 -7 -8 -7 -9 -6 -0 -0
-28 -25 -14 -3 -3 -9 -1 -2 -3 -15 -13 -14 -15 -16 -15 -15 -15 -14 -13 -13 -15 -18 -18 -18 -13 -14 -6 -4 -1 -2 0 0 -1 -0 -0 -4 0 -4 -7 -9 -6 -7 -1 -1 -0
-23 -11 -1 -2 -22 -11 -1 -2 -8 -11 -12 -13 -14 -16 -15 -16 -14 -13 -12 -12 -17 -17 -12 -11 -11 -14 -15 -11 -6 1 2 -1 2 -1 -0 1 -2 -4 -5 -6 -1 -1 -0 -0 0
-2 -2 -5 -22 -23 1 -0 -10 -11 -13 -13 -14 -11 -13 -11 -12 -12 -11 -11 -13 -14 -15 -15 -12 -9 -13 -15 -16 -11 -3 -2 3 4 5 3 -2 -2 1 -1 -3 -1 -0 -1 -1 -2
-3 -3 -7 -22 -5 1 -0 -10 -12 -12 -13 -13 -13 -11 -11 -9 -10 -10 -11 -13 -15 -12 -11 -12 -9 -8 -10 -14 -13 -1 0 -1 2 6 2 2 -2 -2 3 4 0 -3 -7 -9 -11
-3 1 -16 -5 -1 -8 -8 -11 -12 -13 -11 -10 -10 -9 -10 -11 -11 -11 -11 -13 -13 -12 -10 -13 -6 -4 -8 -12 -9 -7 4 5 4 5 3 2 1 -2 -0 3 2 -10 -10 -11 -11
-3 -9 -8 -2 1 -4 -10 -10 -11 -11 -12 -12 -12 -13 -12 -9 -5 -8 -8 -7 -6 -4 -9 -7 -0 1 -3 -7 -7 -1 -2 -1 2 4 4 6 3 2 1 1 -4 -8 -11 -13 -14
-4 1 -6 -6 -8 -6 -7 -9 -10 -11 -12 -13 -11 -11 -7 -7 -9 -7 -6 -6 -6 -2 -2 -3 -6 -6 -4 -6 -1 -5 -6 -7 -0 2 1 -0 2 6 5 4 2 -3 -14 -15 -15
-1 -1 -4 -1 -6 -8 -8 -9 -8 -8 -10 -11 -9 -7 -6 -4 -6 -6 -7 -8 -9 -8 -2 -1 -3 -8 -8 -7 -11 -13 -13 -12 -9 -2 -1 -2 -1 1 3 2 2 1 -15 -15 -14
-4 -7 -5 -7 -8 -8 -8 -8 -10 -10 -8 -6 -6 -6 -6 -4 -3 -3 -6 -6 -5 -7 -2 -2 1 2 2 -5 -9 -9 -9 -13 -14 -10 -7 -7 -4 -7 -4 -5 -8 -14 -14 -11 -10
-5 -5 -5 -8 -7 -6 -6 -9 -9 -5 -7 -9 -6 -5 -7 -7 -8 -7 -6 -6 -5 -4 -5 -4 -4 -3 -2 -7 -7 -6 -11 -12 -16 -15 -13 -8 -8 -9 -10 -7 -4 -4 -5 -5 -7